[[{"header":{"parameterUnit":"m.s-1","parameterCategory":1,"la1":30.6,"la2":29.2853,"lo1":-89.7004,"lo2":-87.6739,"dy":0.0162,"dx":0.0183,"nx":112,"ny":82,"refTime":"2023-08-23T06:00:00:Z","depth":0,"parameterNumber":2,"parameterNumberName":"U-component_of_WINDS"},"data":[0.0,0.0,0.0,0.0,0.0,0.0,0.0,0.0,0.0,0.0,0.0,0.0,0.0,0.0,0.0,0.0,0.0,0.0,0.0,0.0,0.0,0.0,0.0,0.0,0.0,0.0,0.0,0.0,0.0,0.0,0.0,0.0,0.0,0.0,0.0,0.0,0.0,0.0,0.0,0.0,0.0,0.0,0.0,0.0,0.0,0.0,0.0,0.0,0.0,0.0,0.0,0.0,0.0,0.0,0.0,0.0,0.0,0.0,0.0,0.0,0.0,0.0,0.0,0.0,0.0,0.0,0.0,0.0,0.0,0.0,0.0,0.0,0.0,0.0,0.0,0.0,0.0,0.0,0.0,0.0,0.0,0.0,0.0,0.0,0.0,0.0,0.0,0.0,0.0,0.0,2.3595,2.3595,2.3595,2.3595,2.3595,2.3595,2.3595,2.3595,0.0,0.0,0.0,0.0,0.0,0.0,0.0,0.0,0.0,0.0,0.0,0.0,0.0,0.0,0.0,0.0,0.0,0.0,0.0,0.0,0.0,0.0,0.0,0.0,0.0,0.0,0.0,0.0,0.0,0.0,0.0,0.0,0.0,0.0,0.0,0.0,0.0,0.0,0.0,0.0,0.0,0.0,0.0,0.0,0.0,0.0,0.0,0.0,0.0,0.0,0.0,0.0,0.0,0.0,0.0,0.0,0.0,0.0,0.0,0.0,0.0,0.0,0.0,0.0,0.0,0.0,0.0,0.0,0.0,0.0,0.0,0.0,0.0,0.0,0.0,0.0,0.0,0.0,0.0,0.0,0.0,0.0,0.0,0.0,0.0,0.0,0.0,0.0,0.0,0.0,0.0,0.0,0.0,0.0,0.0,0.0,0.0,0.0,0.0,0.0,0.0,0.0,0.0,0.0,2.3595,2.3595,2.3595,2.3595,2.3595,2.3595,2.3595,2.3595,0.0,0.0,0.0,0.0,0.0,0.0,0.0,0.0,0.0,0.0,0.0,0.0,0.0,0.0,0.0,0.0,0.0,0.0,0.0,0.0,0.0,0.0,0.0,0.0,0.0,0.0,0.0,0.0,0.0,0.0,0.0,0.0,0.0,0.0,0.0,0.0,0.0,0.0,0.0,0.0,0.0,0.0,0.0,0.0,0.0,0.0,0.0,0.0,0.0,0.0,0.0,0.0,0.0,0.0,0.0,0.0,0.0,0.0,0.0,0.0,0.0,0.0,0.0,0.0,0.0,0.0,0.0,0.0,0.0,0.0,0.0,0.0,0.0,0.0,0.0,0.0,0.0,0.0,0.0,0.0,0.0,0.0,0.0,0.0,0.0,0.0,0.0,0.0,0.0,0.0,0.0,0.0,0.0,0.0,0.0,0.0,0.0,0.0,0.0,0.0,0.0,0.0,0.0,2.3595,2.3724,2.3991,2.3752,2.3724,2.3991,2.3752,2.3595,2.3595,2.3595,0.0,0.0,0.0,0.0,0.0,0.0,0.0,0.0,0.0,0.0,0.0,0.0,0.0,0.0,0.0,0.0,0.0,0.0,0.0,0.0,0.0,0.0,0.0,0.0,0.0,0.0,0.0,0.0,0.0,0.0,0.0,0.0,0.0,0.0,0.0,0.0,0.0,0.0,0.0,0.0,0.0,0.0,0.0,0.0,0.0,0.0,0.0,0.0,0.0,0.0,0.0,0.0,0.0,0.0,0.0,0.0,0.0,0.0,0.0,0.0,0.0,0.0,0.0,0.0,0.0,0.0,0.0,0.0,0.0,0.0,0.0,0.0,0.0,0.0,0.0,0.0,0.0,0.0,0.0,0.0,0.0,0.0,0.0,0.0,0.0,0.0,0.0,0.0,0.0,0.0,0.0,0.0,0.0,0.0,0.0,0.0,0.0,0.0,0.0,0.0,0.0,0.0,2.3595,2.3752,2.4158,2.3837,2.3752,2.4199,2.3837,2.3595,2.3595,2.3595,0.0,0.0,0.0,0.0,0.0,0.0,0.0,0.0,0.0,0.0,0.0,0.0,0.0,0.0,0.0,0.0,0.0,0.0,0.0,0.0,0.0,0.0,0.0,0.0,0.0,0.0,0.0,0.0,0.0,0.0,0.0,0.0,0.0,0.0,0.0,0.0,0.0,0.0,0.0,0.0,0.0,0.0,0.0,0.0,0.0,0.0,0.0,0.0,0.0,0.0,0.0,0.0,0.0,0.0,0.0,0.0,0.0,0.0,0.0,0.0,0.0,0.0,0.0,0.0,0.0,0.0,0.0,0.0,0.0,0.0,0.0,0.0,0.0,0.0,0.0,0.0,0.0,0.0,0.0,0.0,0.0,0.0,0.0,0.0,0.0,0.0,0.0,0.0,0.0,0.0,0.0,0.0,0.0,0.0,0.0,0.0,0.0,0.0,0.0,0.0,0.0,0.0,2.3595,2.3595,2.3638,2.3638,2.3595,2.3638,2.3638,2.3595,2.3595,2.3595,0.0,0.0,0.0,0.0,0.0,0.0,0.0,0.0,0.0,0.0,0.0,0.0,0.0,0.0,0.0,0.0,0.0,0.0,0.0,0.0,0.0,0.0,0.0,0.0,0.0,0.0,0.0,0.0,0.0,0.0,0.0,0.0,0.0,0.0,0.0,0.0,0.0,0.0,0.0,0.0,0.0,0.0,0.0,0.0,0.0,0.0,0.0,0.0,0.0,0.0,0.0,0.0,0.0,0.0,0.0,0.0,0.0,0.0,0.0,0.0,0.0,0.0,0.0,0.0,0.0,0.0,0.0,0.0,0.0,0.0,0.0,0.0,0.0,0.0,0.0,0.0,0.0,0.0,0.0,0.0,0.0,0.0,0.0,0.0,0.0,0.0,0.0,0.0,0.0,0.0,0.0,0.0,0.0,0.0,0.0,0.0,0.0,0.0,0.0,0.0,0.0,0.0,2.3595,2.3709,2.4074,2.3794,2.3767,2.4074,2.3794,2.3595,2.3595,0.0,0.0,0.0,0.0,0.0,0.0,0.0,0.0,0.0,0.0,0.0,0.0,0.0,0.0,0.0,0.0,0.0,0.0,0.0,0.0,0.0,0.0,0.0,0.0,0.0,0.0,0.0,0.0,0.0,0.0,0.0,0.0,0.0,0.0,0.0,0.0,0.0,0.0,0.0,0.0,0.0,0.0,0.0,0.0,0.0,0.0,0.0,0.0,0.0,0.0,0.0,0.0,0.0,0.0,0.0,0.0,0.0,0.0,0.0,0.0,0.0,0.0,0.0,0.0,0.0,0.0,0.0,0.0,0.0,0.0,0.0,0.0,0.0,0.0,0.0,0.0,0.0,0.0,0.0,0.0,0.0,0.0,0.0,0.0,0.0,0.0,0.0,0.0,0.0,0.0,0.0,0.0,0.0,0.0,0.0,0.0,0.0,0.0,0.0,0.0,0.0,0.0,2.4298,2.4238,2.4356,2.4716,2.4443,2.4324,2.4468,2.4126,2.3834,2.361,0.0,0.0,0.0,0.0,0.0,0.0,0.0,0.0,0.0,0.0,0.0,0.0,0.0,0.0,0.0,0.0,0.0,0.0,0.0,0.0,0.0,0.0,0.0,0.0,0.0,0.0,0.0,0.0,0.0,0.0,0.0,0.0,0.0,0.0,0.0,0.0,0.0,0.0,0.0,0.0,0.0,0.0,0.0,0.0,0.0,0.0,0.0,0.0,0.0,0.0,0.0,0.0,0.0,0.0,0.0,0.0,0.0,0.0,0.0,0.0,0.0,0.0,0.0,0.0,0.0,0.0,0.0,0.0,0.0,0.0,0.0,0.0,0.0,0.0,0.0,0.0,0.0,0.0,0.0,0.0,0.0,0.0,0.0,0.0,0.0,0.0,0.0,0.0,0.0,0.0,0.0,0.0,0.0,0.0,0.0,0.0,0.0,0.0,0.0,0.0,0.0,0.0,2.5615,2.5615,2.5615,2.5615,2.5615,2.5345,2.4642,2.4597,2.4343,0.0,0.0,0.0,0.0,0.0,0.0,0.0,0.0,0.0,0.0,0.0,0.0,0.0,0.0,0.0,0.0,0.0,0.0,0.0,0.0,0.0,0.0,0.0,0.0,0.0,0.0,0.0,0.0,0.0,0.0,0.0,0.0,0.0,0.0,0.0,0.0,0.0,0.0,0.0,0.0,0.0,0.0,0.0,0.0,0.0,0.0,0.0,0.0,0.0,0.0,0.0,0.0,0.0,0.0,0.0,0.0,0.0,0.0,0.0,0.0,0.0,0.0,0.0,0.0,0.0,0.0,0.0,0.0,0.0,0.0,0.0,0.0,0.0,0.0,0.0,0.0,0.0,0.0,0.0,0.0,0.0,0.0,0.0,0.0,0.0,0.0,0.0,0.0,0.0,0.0,0.0,0.0,0.0,0.0,0.0,0.0,0.0,0.0,0.0,0.0,0.0,0.0,0.0,2.5674,2.5615,2.5615,2.5615,2.5615,2.554,2.533,2.5315,2.5241,2.5031,0.0,0.0,0.0,0.0,0.0,0.0,0.0,0.0,0.0,0.0,0.0,0.0,0.0,0.0,0.0,0.0,0.0,0.0,0.0,0.0,0.0,0.0,0.0,0.0,0.0,0.0,0.0,0.0,0.0,0.0,0.0,0.0,0.0,0.0,0.0,0.0,0.0,0.0,0.0,0.0,0.0,0.0,0.0,0.0,0.0,0.0,0.0,0.0,0.0,0.0,0.0,0.0,0.0,0.0,0.0,0.0,0.0,0.0,0.0,0.0,0.0,0.0,0.0,0.0,0.0,0.0,0.0,0.0,0.0,0.0,0.0,0.0,0.0,0.0,0.0,0.0,0.0,0.0,0.0,0.0,0.0,0.0,0.0,0.0,0.0,0.0,0.0,0.0,0.0,0.0,0.0,0.0,0.0,0.0,0.0,0.0,0.0,0.0,0.0,0.0,0.0,0.0,2.6437,2.6393,2.6393,2.6393,2.6393,2.6288,2.6019,2.6004,2.5884,2.563,0.0,0.0,0.0,0.0,0.0,0.0,0.0,0.0,0.0,0.0,0.0,0.0,0.0,0.0,0.0,0.0,0.0,0.0,0.0,0.0,0.0,0.0,0.0,0.0,0.0,0.0,0.0,0.0,0.0,0.0,0.0,0.0,0.0,0.0,0.0,0.0,0.0,0.0,0.0,0.0,0.0,0.0,0.0,0.0,0.0,0.0,0.0,0.0,0.0,0.0,0.0,0.0,0.0,0.0,0.0,0.0,0.0,0.0,0.0,0.0,0.0,0.0,0.0,0.0,0.0,0.0,0.0,0.0,0.0,0.0,0.0,0.0,0.0,0.0,0.0,0.0,0.0,0.0,0.0,0.0,0.0,0.0,0.0,0.0,0.0,0.0,0.0,0.0,0.0,0.0,0.0,0.0,0.0,0.0,0.0,0.0,0.0,0.0,0.0,0.0,0.0,0.0,2.7509,2.7509,2.7509,2.7509,2.756,2.732,2.6737,2.6628,2.6325,2.5729,0.0,0.0,0.0,0.0,0.0,0.0,0.0,0.0,0.0,0.0,0.0,0.0,0.0,0.0,0.0,0.0,0.0,0.0,0.0,0.0,0.0,0.0,0.0,0.0,0.0,0.0,0.0,0.0,0.0,0.0,0.0,0.0,0.0,0.0,0.0,0.0,0.0,0.0,0.0,0.0,0.0,0.0,0.0,0.0,0.0,0.0,0.0,0.0,0.0,0.0,0.0,0.0,0.0,0.0,0.0,0.0,0.0,0.0,0.0,0.0,2.5823,2.6669,0.0,0.0,0.0,0.0,0.0,0.0,0.0,0.0,0.0,0.0,0.0,0.0,0.0,0.0,0.0,0.0,0.0,0.0,0.0,0.0,0.0,0.0,0.0,0.0,0.0,0.0,0.0,0.0,0.0,0.0,0.0,0.0,0.0,0.0,0.0,0.0,0.0,0.0,0.0,0.0,2.6721,2.6721,2.6721,2.6721,2.7255,2.7565,2.743,2.6828,2.646,2.6329,2.5763,0.0,0.0,0.0,0.0,0.0,0.0,0.0,0.0,0.0,0.0,0.0,0.0,0.0,0.0,0.0,0.0,0.0,0.0,0.0,0.0,0.0,0.0,0.0,0.0,0.0,0.0,0.0,0.0,0.0,0.0,0.0,0.0,0.0,0.0,0.0,0.0,0.0,0.0,0.0,0.0,0.0,0.0,0.0,0.0,0.0,0.0,0.0,0.0,0.0,0.0,0.0,0.0,0.0,0.0,0.0,0.0,0.0,0.0,0.0,2.5273,2.5783,0.0,0.0,0.0,0.0,0.0,0.0,0.0,0.0,0.0,0.0,0.0,0.0,0.0,0.0,0.0,0.0,0.0,0.0,0.0,0.0,0.0,0.0,0.0,0.0,0.0,0.0,0.0,0.0,0.0,0.0,0.0,0.0,0.0,0.0,0.0,0.0,0.0,0.0,0.0,0.0,2.6457,2.6176,2.596,2.596,2.6322,2.6534,2.6534,2.6162,2.596,2.596,2.5618,0.0,0.0,0.0,0.0,0.0,0.0,0.0,0.0,0.0,0.0,0.0,0.0,0.0,0.0,0.0,0.0,0.0,0.0,0.0,0.0,0.0,0.0,0.0,0.0,0.0,0.0,0.0,0.0,0.0,0.0,0.0,0.0,0.0,0.0,0.0,0.0,0.0,0.0,0.0,0.0,0.0,0.0,0.0,0.0,0.0,0.0,0.0,0.0,0.0,0.0,0.0,0.0,0.0,2.4381,2.4667,2.4118,2.4724,2.4681,2.4118,2.4724,2.4724,2.435,2.4951,0.0,0.0,0.0,0.0,0.0,0.0,0.0,0.0,0.0,0.0,0.0,0.0,0.0,0.0,0.0,0.0,0.0,0.0,0.0,0.0,0.0,0.0,2.596,2.5175,2.5007,2.5007,2.5007,0.0,0.0,0.0,0.0,0.0,0.0,0.0,0.0,0.0,0.0,0.0,2.6068,2.5563,2.5231,2.5231,2.5342,2.5398,2.5398,2.5287,2.5231,2.5231,2.5063,2.5063,0.0,0.0,0.0,0.0,0.0,0.0,0.0,0.0,0.0,0.0,0.0,0.0,0.0,0.0,0.0,0.0,0.0,0.0,0.0,0.0,0.0,0.0,0.0,0.0,0.0,0.0,0.0,0.0,0.0,0.0,0.0,0.0,2.5508,2.5398,0.0,0.0,0.0,0.0,0.0,0.0,0.0,0.0,0.0,0.0,0.0,0.0,0.0,2.3078,2.3078,2.3185,2.3185,2.3078,2.3305,2.3365,2.3245,2.3365,2.3365,2.3245,2.3365,0.0,2.4292,2.4408,0.0,0.0,0.0,0.0,0.0,0.0,0.0,0.0,0.0,0.0,0.0,0.0,0.0,0.0,0.0,0.0,0.0,0.0,0.0,0.0,0.0,0.0,2.4394,2.359,2.3412,2.3412,2.3412,2.4439,2.5453,2.5508,2.5563,2.5783,0.0,0.0,0.0,0.0,0.0,0.0,2.4681,2.4509,2.4452,2.4452,2.5007,2.5398,2.5398,2.4794,2.4452,2.4452,2.3767,2.3708,2.4408,2.3767,0.0,0.0,0.0,0.0,0.0,0.0,0.0,0.0,0.0,0.0,0.0,0.0,0.0,0.0,0.0,0.0,0.0,0.0,0.0,0.0,0.0,0.0,0.0,0.0,0.0,0.0,0.0,0.0,0.0,2.4794,2.461,2.415,2.4509,2.461,0.0,0.0,0.0,0.0,0.0,0.0,0.0,0.0,0.0,2.3078,2.3078,2.3078,2.3078,2.3078,2.3078,2.3078,2.3078,2.3078,2.3078,2.3078,2.3078,2.3078,2.3078,2.3305,2.3662,2.3662,2.3826,2.4105,0.0,0.0,0.0,0.0,2.5063,2.5342,2.4951,2.4794,2.4794,2.4794,0.0,0.0,0.0,0.0,0.0,0.0,0.0,2.5618,2.4567,2.4292,2.4118,2.3305,2.3078,2.3078,2.3078,2.3649,2.4266,2.4681,2.4794,2.5007,2.5728,2.5563,0.0,0.0,0.0,2.415,2.4292,2.3884,2.3662,2.3662,2.393,2.4105,2.4105,2.3813,2.3662,2.3662,2.3305,2.3258,2.359,2.3305,2.3245,0.0,0.0,0.0,0.0,0.0,0.0,0.0,0.0,0.0,0.0,0.0,0.0,0.0,0.0,0.0,0.0,0.0,0.0,0.0,0.0,0.0,0.0,0.0,0.0,0.0,0.0,0.0,0.0,2.4002,2.3767,2.3185,2.3662,2.3767,0.0,0.0,0.0,0.0,0.0,0.0,2.3078,2.3078,2.3078,2.3078,2.3078,2.3078,2.3078,2.3078,2.3078,2.3078,2.3078,2.3078,2.3078,2.3078,2.3078,2.3078,2.3078,2.3078,2.3078,2.3078,2.3078,2.3078,2.3078,2.3484,2.4002,2.4002,2.4337,2.4724,2.4163,2.4002,2.4002,2.4002,2.4118,2.4408,2.4951,0.0,0.0,0.0,0.0,2.4951,2.4163,2.4002,2.3826,2.3245,2.3078,2.3078,2.3078,2.3078,2.3245,2.3884,2.4002,2.4221,2.5007,2.4681,0.0,2.5063,2.4163,2.3543,2.3943,2.3484,2.3078,2.3078,2.3078,2.3078,2.3078,2.3078,2.3078,2.3078,2.3078,2.3078,2.3078,2.3078,2.3078,2.3078,0.0,0.0,0.0,0.0,0.0,0.0,0.0,0.0,0.0,0.0,0.0,0.0,0.0,0.0,0.0,0.0,0.0,0.0,0.0,0.0,0.0,0.0,0.0,0.0,0.0,0.0,0.0,0.0,0.0,2.3078,2.3138,0.0,0.0,0.0,0.0,2.3078,2.3078,2.3078,2.3078,2.3078,2.3078,2.3078,2.3078,2.3078,2.3078,2.3078,2.3078,2.3078,2.3078,2.3078,2.3078,2.3078,2.3078,2.3078,2.3078,2.3078,2.3078,2.3078,2.3078,2.3078,2.3078,2.3138,2.3125,2.3125,2.3185,2.3185,2.3185,2.3125,2.3125,2.3125,2.3649,2.4292,2.435,2.4851,0.0,0.0,2.435,2.4176,2.3365,2.3125,2.3125,2.3138,2.3078,2.3078,2.3078,2.3078,2.3138,2.3125,2.3125,2.3424,2.4234,0.0,2.4292,2.435,2.4292,2.4002,2.3245,2.3138,2.3078,2.3078,2.3078,2.3078,2.3078,2.3078,2.3078,2.3078,2.3078,2.3078,2.3078,2.3078,2.3078,2.3078,2.3078,0.0,0.0,0.0,0.0,0.0,0.0,0.0,0.0,0.0,0.0,0.0,0.0,0.0,0.0,0.0,0.0,0.0,0.0,0.0,0.0,0.0,0.0,0.0,0.0,0.0,0.0,0.0,0.0,2.3078,2.3078,0.0,2.3078,2.3078,2.3078,2.3078,2.3078,2.3078,2.3078,2.3078,2.3078,2.3078,2.3078,2.3078,2.3078,2.3078,2.3078,2.3078,2.3078,2.3078,2.3078,2.3527,2.369,2.3715,2.4067,2.4217,2.4217,2.4217,2.3729,2.3078,2.3078,2.3078,2.3078,2.3078,2.3078,2.3078,2.3078,2.3078,2.3078,2.3078,2.3558,2.4106,2.4106,2.4532,2.4939,2.4705,2.4643,2.4593,2.428,2.4217,2.4217,2.4217,2.4217,2.4217,2.4217,2.4217,2.4217,2.4217,2.3566,2.3198,2.3484,2.3543,2.3543,2.3543,2.3543,2.3424,2.3138,2.3078,2.3078,2.3078,2.3078,2.3078,2.3078,2.3078,2.3078,2.3078,2.3078,2.3078,2.3078,2.3078,2.3078,2.3078,2.3078,2.2823,0.0,0.0,0.0,0.0,0.0,0.0,0.0,0.0,0.0,0.0,0.0,0.0,0.0,0.0,0.0,0.0,0.0,0.0,0.0,0.0,0.0,0.0,0.0,0.0,0.0,2.3078,2.3078,2.3078,2.3078,2.3078,2.3078,2.3078,2.3078,2.3078,2.3078,2.3078,2.3078,2.3078,2.3078,2.3078,2.3326,2.3427,2.3427,2.3615,2.3703,2.3703,2.3703,2.3703,2.3715,2.4104,2.428,2.4293,2.4669,2.482,2.482,2.482,2.4381,2.3703,2.3703,2.3703,2.3703,2.3703,2.3703,2.3703,2.3703,2.3703,2.3703,2.3703,2.3966,2.428,2.428,2.4531,2.482,2.482,2.482,2.482,2.482,2.482,2.482,2.482,2.482,2.482,2.482,2.482,2.482,2.482,2.4217,2.3703,2.3703,2.3703,2.3703,2.3703,2.3703,2.3703,2.3703,2.354,2.3427,2.3427,2.3251,2.3078,2.3078,2.3078,2.3078,2.3078,2.3078,2.3078,2.3078,2.3078,2.3078,2.3078,2.3078,2.2861,2.23,0.0,0.0,0.0,0.0,0.0,0.0,0.0,0.0,0.0,0.0,0.0,0.0,0.0,0.0,0.0,0.0,0.0,0.0,0.0,0.0,0.0,0.0,0.0,2.3078,2.3078,2.3078,2.3078,2.3078,2.3078,2.3078,2.3078,2.3078,2.3103,2.3103,2.3115,2.3128,2.3128,2.3128,2.3128,2.3728,2.4017,2.4017,2.4556,2.482,2.482,2.482,2.482,2.482,2.4845,2.4845,2.4845,2.4858,2.487,2.487,2.487,2.487,2.487,2.4833,2.482,2.482,2.482,2.482,2.482,2.482,2.482,2.482,2.482,2.4833,2.4845,2.4845,2.4858,2.487,2.487,2.487,2.487,2.487,2.487,2.487,2.487,2.487,2.487,2.487,2.487,2.487,2.487,2.487,2.4858,2.4833,2.482,2.482,2.482,2.482,0.0,2.482,2.4356,2.4017,2.4017,2.3527,2.3128,2.3128,2.3128,2.3175,2.3103,2.3103,2.309,2.3078,2.3078,2.3078,2.3078,2.3078,2.3047,2.3043,0.0,0.0,0.0,0.0,0.0,0.0,0.0,0.0,0.0,0.0,0.0,0.0,0.0,0.0,0.0,0.0,0.0,0.0,0.0,0.0,0.0,2.3766,2.3615,2.3128,2.3078,2.3078,2.3078,2.3078,2.3078,2.3078,2.3078,2.3314,2.3728,2.3766,2.3941,2.433,2.4356,2.4356,2.4356,2.4506,2.4594,2.4594,2.4745,2.482,2.482,2.482,2.482,2.4833,2.5209,2.5385,2.541,2.5824,2.6013,2.6013,2.6013,2.6013,2.5937,2.5134,2.482,2.482,2.482,2.482,2.482,2.482,2.482,2.482,2.482,2.5071,2.5385,2.5385,2.5674,2.6013,2.6013,2.6013,2.6013,2.6013,2.6013,2.6013,2.6013,2.6013,2.6013,2.6013,2.6013,2.6013,2.6013,2.6013,2.5749,2.4958,2.482,2.482,2.482,2.482,2.482,2.482,2.4695,2.4594,2.4594,2.4456,2.4356,2.4356,2.4356,2.4192,2.3791,2.3766,2.3577,2.309,2.3078,2.3078,2.3078,2.2506,2.1939,0.0,0.0,0.0,0.0,0.0,0.0,0.0,0.0,0.0,0.0,0.0,0.0,0.0,0.0,0.0,0.0,0.0,0.0,0.0,0.0,0.0,0.0,2.4343,2.4217,2.3891,2.3779,2.3779,2.3779,2.3779,2.3779,2.3779,2.3779,2.3979,2.4318,2.4343,2.4481,2.4808,2.482,2.482,2.482,2.5034,2.5146,2.5146,2.5385,2.5511,2.5511,2.5511,2.5511,2.5523,2.5824,2.5963,2.5975,2.6382,2.6533,2.6533,2.6533,2.6533,2.6402,0.0,0.0,0.0,0.0,2.5511,2.5511,2.5511,2.5511,2.5511,2.5511,2.5711,2.5963,2.5963,2.6189,2.6533,2.6533,2.6533,2.6533,2.6533,2.6533,2.6533,2.6533,2.6533,2.6533,2.6533,2.6533,2.6533,2.6533,2.6533,0.0,2.5624,2.5511,2.5511,2.5511,2.5511,2.5511,2.5511,2.5297,2.5146,2.5146,2.4946,2.482,2.482,2.482,0.0,0.0,0.0,2.4192,2.3853,2.3627,0.0,0.0,0.0,2.1966,2.1123,2.0262,0.0,0.0,2.0275,1.9876,0.0,0.0,0.0,0.0,0.0,0.0,0.0,0.0,0.0,0.0,0.0,0.0,0.0,0.0,0.0,0.0,2.4908,2.4933,2.4996,2.5008,2.4958,2.4845,2.482,2.482,2.482,2.482,2.4845,2.4908,2.4908,2.4933,2.5008,2.5008,0.0,0.0,0.0,2.5686,2.5686,2.6201,2.6533,2.6533,2.6533,2.6533,2.6533,2.6533,2.6533,2.6533,2.6533,2.6533,2.6533,2.6533,2.6533,2.6533,2.6533,2.6533,2.6533,2.6533,2.6533,2.6533,2.6533,0.0,0.0,2.6533,2.6533,2.6533,2.6533,2.6533,2.6533,2.6533,2.6533,2.6533,2.6533,2.6533,2.6533,2.6533,2.6533,2.6533,2.6533,2.6533,2.6533,2.6533,2.6533,2.6533,2.6533,2.6533,2.6533,2.6533,2.6533,2.6533,2.6533,2.6013,2.5686,2.5686,2.5285,0.0,2.5008,2.5008,2.4971,2.4908,2.4858,2.482,2.482,2.4356,2.4029,2.3954,2.3393,2.2665,2.1731,2.1012,2.0151,1.9301,1.9213,1.8748,0.0,0.0,0.0,0.0,0.0,0.0,0.0,0.0,0.0,0.0,0.0,0.0,0.0,0.0,0.0,2.5372,2.5448,2.5611,2.6076,2.6138,2.5812,2.4921,2.482,2.482,2.482,2.482,2.4996,2.541,2.5448,2.5649,2.6113,2.6138,2.6138,2.6138,2.6239,2.6302,2.6302,2.6471,2.6533,2.6533,2.6533,0.0,2.6533,2.6533,2.6533,2.6533,2.6533,2.6533,2.6533,2.6533,2.6533,2.6533,2.6533,2.6533,2.6533,2.6533,2.6533,2.6533,2.6533,2.6533,2.6533,2.6533,2.6533,2.6533,2.6533,2.6533,0.0,2.6533,2.6533,2.6533,2.6533,2.6533,2.6533,2.6533,2.6533,2.6533,2.6533,2.6533,2.6533,2.6533,2.6533,2.6533,2.6533,2.6533,2.6533,2.6533,2.6533,2.6533,2.6533,2.6433,2.6302,2.6302,2.6201,2.6138,2.6138,2.6138,2.5937,2.5473,2.5059,2.482,2.482,2.472,2.4245,2.3478,2.3305,2.2451,2.0839,2.0654,2.0151,1.9301,1.8564,1.8137,0.0,0.0,0.0,0.0,0.0,0.0,0.0,0.0,0.0,0.0,0.0,2.5297,2.5586,0.0,2.5724,2.5988,2.6025,2.6138,2.6483,2.6533,2.6319,2.5711,2.5636,2.5636,2.5636,2.5636,2.5749,2.6013,2.6025,2.6151,2.6508,2.6533,2.6533,2.6533,2.6533,2.6533,2.6533,2.6533,2.6533,2.6533,2.6533,2.6533,2.6533,2.6533,2.6533,2.6533,2.6533,2.6533,2.6533,2.6533,2.6533,2.6533,2.6533,2.6533,2.6533,2.6533,2.6533,2.6533,2.6533,2.6533,2.6533,2.6533,2.6533,2.6533,2.6533,2.6533,2.6533,2.6533,2.6533,2.6533,2.6533,2.6533,2.6533,2.6533,2.6533,2.6533,2.6533,2.6533,2.6533,2.6533,2.6533,2.6533,2.6533,2.6533,2.6533,2.6533,2.6533,2.6533,2.6533,2.6533,2.6533,2.6533,2.6533,2.6533,2.6533,2.6533,2.6339,2.605,2.5787,2.5636,2.5636,2.536,2.4987,2.4487,2.3687,2.2661,2.1285,2.0827,2.0128,1.9314,1.8879,1.8645,0.0,0.0,0.0,0.0,0.0,0.0,0.0,2.5059,2.5259,2.5674,2.5762,2.59,2.6445,2.6533,2.6533,2.6533,2.6533,2.6533,2.6533,2.6533,2.6533,2.6533,2.6533,2.6533,2.6533,2.6533,2.6533,2.6533,2.6533,2.6533,2.6533,2.6533,2.6533,2.6533,2.6533,2.6533,2.6533,2.6634,2.6684,2.6697,2.6728,2.6779,2.6779,2.6779,2.6779,2.6779,2.6779,2.6779,2.6779,2.6779,2.6779,2.6779,2.6779,2.6779,2.6766,2.6653,2.6691,2.6779,2.6779,2.6779,2.6779,2.6779,2.6779,2.6753,2.6722,2.6684,2.6603,2.6559,2.6533,2.6533,2.6533,2.6533,2.6533,2.6533,2.6533,2.6533,2.6533,2.6533,2.6533,2.6533,2.6533,2.6533,2.6533,2.6533,2.6533,2.6533,2.6533,2.6533,2.6533,2.6533,2.6533,2.6533,2.6533,2.6533,2.6533,2.6533,2.6533,2.6533,2.6533,2.6533,2.6533,2.6013,2.5695,2.548,2.4285,2.3166,2.2257,2.1514,2.0803,2.0142,2.0129,1.9824,2.4707,2.4682,2.4644,2.4707,2.5121,2.5511,0.0,2.5912,2.6302,2.642,2.6433,2.6445,2.6521,2.6533,2.6533,2.6533,2.6533,2.6533,2.6533,2.6533,2.6533,2.6533,2.6533,2.6533,2.6533,2.6533,2.6533,2.6533,2.6533,2.6533,2.6533,2.6533,2.6533,2.6533,2.6533,2.6533,2.6533,2.6942,2.7193,2.7205,2.7682,2.7921,2.7921,2.7921,2.7921,2.7921,2.7921,2.7921,2.7921,2.7921,2.7921,2.7921,2.7921,2.7921,2.7858,2.7369,2.7494,2.7921,2.7921,2.7921,2.7921,2.7921,2.7921,2.7833,2.7344,2.7193,2.708,2.6603,2.6533,2.6533,2.6533,2.6533,2.6533,2.6533,2.6533,2.6533,2.6533,2.6533,2.6533,2.6533,2.6533,2.6533,2.6533,2.6533,2.6533,2.6533,2.6533,2.6533,2.6533,2.6533,2.6533,2.6533,2.6533,2.6533,2.6533,2.6533,2.6533,2.6533,2.6533,2.6533,2.6533,2.6471,2.5995,2.5063,2.4932,2.4317,2.3358,2.3202,2.3113,2.3065,2.3051,2.1706,2.482,2.5285,2.5699,2.536,2.5686,2.6101,2.6101,2.6289,2.6533,2.6533,2.6533,2.6533,2.6533,2.6533,2.6533,2.6533,2.6533,2.6533,2.6533,2.6533,2.6533,2.6533,2.681,2.6816,2.6559,2.6533,2.6533,2.6533,2.6753,2.6942,2.6942,2.7243,2.7419,2.7419,2.7419,2.7419,2.7419,2.7645,2.7758,2.777,2.7996,2.8109,2.8109,2.8109,2.8109,2.8109,2.8109,2.8109,2.8109,2.8109,2.8109,2.8109,2.8109,2.8298,2.8511,2.7959,2.7908,2.8109,2.8109,2.8109,2.8109,2.8109,2.8109,2.8059,2.7833,2.7758,2.7708,2.7482,2.7419,2.7419,2.7419,2.7419,2.7419,2.7419,2.7419,2.7419,2.7419,2.7419,2.7419,2.7419,2.7419,2.7419,2.7419,2.7155,2.6942,2.6942,2.6666,2.6533,2.6533,2.6533,2.6533,2.6533,2.6533,2.6533,2.6533,2.6533,2.6533,2.6533,2.6533,2.6533,2.6533,2.6533,2.6314,2.5873,2.53,2.4791,2.4337,2.3161,2.2928,2.3494,2.2371,2.1459,2.5639,2.634,2.6896,2.6219,2.649,2.6917,2.6917,2.6917,2.6917,2.6917,2.6917,2.6917,2.6917,2.6917,2.6917,2.6917,2.6917,2.6917,2.6917,2.6917,2.6917,2.6917,2.7268,2.7356,2.6954,2.6917,2.6917,2.6917,2.7281,2.7507,2.7507,2.7896,2.8109,2.8109,2.8109,2.8109,2.8109,2.826,2.8335,2.8335,2.8499,2.8574,2.8574,2.8574,2.8574,2.8574,2.8574,2.8574,2.8574,2.8574,2.8574,2.8574,2.8574,2.8812,2.9114,2.8712,2.8574,2.8574,2.8574,2.8574,2.8574,2.8574,2.8574,2.8549,2.8386,2.8335,2.8298,2.8147,2.8109,2.8109,2.8109,2.8109,2.8109,2.8109,2.8109,2.8109,2.8109,2.8109,2.8109,2.8109,2.8109,2.8109,2.8109,2.777,2.7507,2.7507,2.7168,2.6804,2.6571,2.6533,2.6533,2.6533,2.6533,2.6533,2.6533,2.6533,2.6533,2.6533,2.6533,2.6533,2.6533,2.6533,2.6533,2.6533,2.5804,2.5441,2.5441,2.3952,2.3599,2.4276,2.2911,2.259,2.7867,2.8025,2.8268,2.743,2.7645,2.8059,2.8059,2.8059,2.8059,2.8059,2.8059,2.8059,2.8059,2.8059,2.8059,2.8059,2.8059,2.8059,2.8059,2.8059,2.8059,2.8059,2.8072,2.8072,2.8059,2.8059,2.8059,2.8059,2.8072,2.8084,2.8084,2.8097,2.8109,2.8109,2.8109,2.8109,2.8109,2.8637,2.89,2.8913,2.9478,2.9741,2.9741,2.9741,2.9741,2.9741,2.9741,2.9741,2.9741,2.9741,2.9741,2.9741,2.9741,2.9754,2.9767,2.9741,2.9741,2.9741,2.9741,2.9741,2.9741,2.9741,2.9741,2.9641,2.9076,2.89,2.8787,2.826,2.8109,2.8109,2.8109,2.8109,2.8109,2.8109,2.8109,2.8109,2.8109,2.8109,2.8109,2.8109,2.8109,2.8109,2.8109,2.8097,2.8084,2.8084,2.8059,2.767,2.6603,2.6533,2.6533,2.6533,2.6533,2.6533,2.6533,2.6533,2.6533,2.6533,2.6533,2.6533,2.6533,2.6533,2.6533,2.6533,2.6452,2.6452,2.6452,2.6383,2.6371,2.6432,2.6321,2.6346,2.862,2.9056,2.9426,2.9187,2.9029,2.9054,2.9054,2.8579,2.8109,2.8109,2.8109,2.8109,2.8109,2.8109,2.8109,2.8109,2.8109,2.8109,2.8109,2.8109,2.8109,2.8109,2.8423,2.8649,2.8649,2.8323,2.8109,2.8109,2.8448,2.8649,2.8649,2.9013,2.9227,2.9227,2.9227,2.9227,2.9227,2.9415,2.9503,2.9503,2.9691,2.9792,2.9792,2.9792,2.9792,2.9792,2.9792,2.9792,2.9792,2.9792,2.9792,2.9792,2.9792,2.9792,2.9792,2.9792,2.9792,2.9792,2.9792,2.9792,2.9792,2.9792,2.9792,2.9754,2.9566,2.9503,2.9465,2.9277,2.9227,2.9227,2.9227,2.9227,2.9227,2.9227,2.9227,2.9227,2.9227,2.9227,2.9227,2.9227,2.9227,2.9227,2.9227,2.8913,2.8524,2.816,2.8109,2.7971,2.7607,2.7557,2.7557,2.7557,2.7557,2.7406,2.703,2.7005,2.6854,2.6546,2.6533,2.6533,2.6533,2.6533,2.6533,2.6533,2.6533,2.6533,2.6533,2.5804,2.5856,2.6441,2.4424,2.389,2.982,3.0277,3.0732,3.0693,3.039,3.0143,3.0143,2.9387,2.8712,2.8712,2.8712,2.8712,2.8712,2.8712,2.8712,2.8712,2.8712,2.8712,2.8712,2.8712,2.8712,2.8712,2.9026,2.9239,2.9239,2.8913,2.8712,2.8712,2.9038,2.9239,2.9239,2.9591,2.9792,2.9792,2.9792,2.9792,2.9792,2.9792,2.9792,2.9792,2.9792,2.9792,2.9792,2.9792,2.9792,2.9792,2.9792,2.9792,2.9792,2.9792,2.9792,2.9792,2.9792,2.9792,2.9792,2.9792,2.9792,2.9792,2.9792,2.9792,2.9792,2.9792,2.9792,2.9792,2.9792,2.9792,2.9792,2.9792,2.9792,2.9792,2.9792,2.9792,2.9792,2.9792,2.9792,2.9792,2.9792,2.9792,2.9792,2.9792,2.9792,2.9792,2.9792,2.9478,2.9114,2.8762,2.8712,2.8561,2.816,2.8109,2.8109,2.8109,2.8109,2.7959,2.7607,2.7582,2.7419,2.7067,2.7042,2.7042,2.7042,2.7042,2.7042,2.7042,2.6854,2.6753,2.6753,2.5972,2.5873,2.6452,2.4531,2.3913,3.1326,3.17,3.2155,3.1968,3.167,3.1315,3.1315,3.0558,2.9856,2.9856,2.9869,2.9792,2.9792,2.9792,2.9792,2.9792,2.9792,2.9792,2.9792,2.9792,2.9792,2.9792,2.9792,2.9792,2.9792,2.9792,2.9792,2.9792,2.9792,2.9792,2.9792,2.9792,2.9792,2.9792,2.9792,2.9792,2.9792,2.9792,2.9792,2.9792,2.9792,2.9792,2.9792,2.9792,2.9792,2.9792,2.9792,2.9792,2.9792,2.9856,2.9856,2.9869,2.9934,2.9934,2.9934,2.9869,2.9856,2.9856,2.9792,2.9792,2.9792,2.9792,2.9792,2.9792,2.9792,2.9792,2.9792,2.9792,2.9792,2.9792,2.9792,2.9792,2.9792,2.9792,2.9792,2.9792,2.9792,2.9792,2.9792,2.9792,2.9792,2.9792,2.9792,2.9792,2.9792,2.9792,2.9792,2.9402,2.8335,2.8197,2.8197,2.8197,2.8197,2.8185,2.8147,2.8147,2.8134,2.8109,2.8109,2.8109,2.8109,2.8109,2.8109,2.8109,2.7595,2.7318,2.7318,2.6804,2.6609,2.6609,2.6559,2.6515,3.2065,3.2657,3.3247,3.3691,3.3552,3.331,3.331,3.2033,3.0833,3.0833,3.0279,2.9792,2.9792,2.9792,2.9792,2.9792,2.9792,2.9792,2.9792,2.9792,2.9792,2.9792,2.9792,2.9792,2.9792,2.9792,2.9792,2.9792,2.9792,2.9792,2.9792,2.9792,2.9792,2.9792,2.9792,2.9792,2.9792,2.9792,2.9792,2.9792,2.9792,2.9792,2.9792,2.9792,2.9792,2.9792,2.9792,2.9792,2.9856,3.0558,3.0833,3.0895,3.1609,3.1901,3.1829,3.1119,3.0833,3.0758,3.0075,2.9792,2.9792,2.9792,2.9792,2.9792,2.9792,2.9792,2.9792,2.9792,2.9792,2.9792,2.9792,2.9792,2.9792,2.9792,2.9792,2.9792,2.9792,2.9792,2.9792,2.9792,2.9792,2.9792,2.9792,2.9792,2.9792,2.9792,2.9792,2.9691,2.9402,2.9365,2.9365,2.9365,2.9365,2.9189,2.875,2.8725,2.8549,2.8134,2.8109,2.8109,2.8109,2.8109,2.8109,2.8109,2.7971,2.7896,2.7896,2.7758,2.7682,2.767,2.6936,2.6539,3.2691,3.3215,3.3724,3.4681,3.4479,3.4027,3.4027,3.289,3.1815,3.1815,3.1044,3.0419,3.0419,3.0075,2.9792,2.9792,2.9792,2.9792,2.9792,2.9792,2.9934,3.0343,3.0419,3.0419,3.0419,3.0771,3.0709,2.9869,2.9792,2.9792,2.9792,2.9792,2.9792,2.9792,2.9792,2.9792,2.9792,3.003,3.0156,3.0156,3.0382,3.0495,3.0495,3.1021,3.0955,3.0561,3.1538,3.1615,3.1242,3.2248,3.2386,3.2021,3.2535,3.2461,3.2008,3.1499,3.1268,3.1203,3.0707,3.0495,3.0419,2.9942,2.9792,2.9792,2.9792,2.9792,2.9792,2.9792,2.9792,2.9792,2.9792,2.9792,2.9792,2.9792,2.9792,2.9792,2.9792,2.9792,2.9792,2.9792,2.9792,2.9792,2.9792,2.9792,2.9792,2.9792,2.9792,2.9792,2.9792,2.9792,2.9792,2.9792,2.9792,2.9666,2.934,2.9302,2.9176,2.8863,2.885,2.885,2.885,2.885,2.885,2.885,2.8599,2.8461,2.8461,2.8222,2.8109,2.8097,2.7482,2.7276,3.314,3.3499,3.3814,3.5175,3.4839,3.4177,3.4177,3.3463,3.282,3.282,3.2033,3.1389,3.1389,3.0696,3.0152,2.9998,3.0011,2.9934,2.9792,2.9792,3.0139,3.1106,3.118,3.1254,3.1389,3.2105,3.1901,3.0292,3.0075,2.9934,2.9792,2.9792,2.9792,2.9792,2.9867,2.9905,2.9905,3.0444,3.0721,3.0721,3.1173,3.1468,3.1618,3.2554,3.2475,3.1699,3.3761,3.4004,3.3091,3.4293,3.4218,3.3389,3.3544,3.2922,3.1996,3.1847,3.1686,3.1536,3.1468,3.1386,3.1223,3.0231,2.9905,2.9892,2.9817,2.9792,2.9792,2.9792,2.9792,2.9792,2.9792,2.9842,2.9905,2.9905,2.9955,3.0005,3.0005,3.0005,2.998,2.9917,2.9905,2.988,2.9804,2.9792,2.9792,2.9792,2.9792,2.9792,2.9792,2.9792,2.9792,2.9792,2.9792,2.9792,2.9792,2.9792,2.9792,2.9792,2.9792,2.9792,2.9792,2.9792,2.9792,2.9792,2.9302,2.9038,2.9038,2.8561,2.8335,2.8335,2.8335,2.8335,3.314,3.3499,3.3814,3.5175,3.5359,3.5213,3.5213,3.4476,3.3739,3.3739,3.3031,3.2393,3.2393,3.2249,3.1829,3.1106,3.097,3.0696,2.9934,2.9792,3.0139,3.1106,3.118,3.1536,3.2321,3.2536,3.2464,3.2105,3.1402,3.062,2.9869,2.9792,2.9792,2.9792,3.0231,3.047,3.047,3.0997,3.1248,3.126,3.1348,3.1847,3.2712,3.2948,3.287,3.2791,3.4066,3.4004,3.3169,3.5026,3.5683,3.5538,3.6356,3.6,3.504,3.419,3.3349,3.2449,3.1699,3.1386,3.1286,3.067,3.047,3.0382,2.993,2.9792,2.9792,2.9792,2.9792,2.9792,2.9792,3.0131,3.047,3.047,3.0796,3.111,3.111,3.111,3.0984,3.0557,3.047,3.0331,2.988,2.9792,2.9792,2.9792,2.9792,2.9792,2.9792,2.9792,2.9792,2.9792,2.9792,2.9792,2.9792,2.9792,2.9792,2.9792,2.9792,2.9792,2.9792,2.9792,2.9792,2.9792,2.9691,2.9641,2.9641,2.9553,2.9503,2.9503,2.9503,2.9503,3.2721,3.323,3.3739,3.4726,3.5235,3.5504,3.5504,3.5133,3.4758,3.4758,3.4041,3.331,3.331,3.2961,3.2464,3.2033,3.196,3.1756,3.1341,3.1267,3.1623,3.2536,3.2664,3.282,3.331,3.3822,3.3478,3.196,3.1888,3.1549,3.0558,3.0354,3.0218,3.0218,3.0746,3.1022,3.1022,3.1549,3.213,3.2662,3.2972,3.3658,3.4668,3.4668,3.4365,3.3993,3.5537,3.569,3.4825,3.6907,3.7448,3.6981,3.7448,3.6685,3.5228,3.4746,3.3899,3.2962,3.3044,3.3127,3.3118,3.308,3.216,3.0972,3.0708,3.062,3.062,3.062,3.062,3.062,3.062,3.0821,3.1022,3.1022,3.121,3.1386,3.1386,3.1386,3.1311,3.1072,3.1022,3.0934,3.067,3.0394,3.0218,3.0218,2.998,2.9792,2.9792,2.9792,2.9792,2.9792,2.9792,2.9792,2.9792,2.9792,2.9792,2.9792,2.9792,2.9792,2.9792,2.9792,2.9792,2.9792,2.9792,2.9792,2.9792,2.9792,2.9792,2.9792,2.9792,2.9792,3.2332,3.2886,3.344,3.4098,3.4786,3.5295,3.5295,3.54,3.5504,3.5504,3.4839,3.4312,3.4312,3.3754,3.3185,3.2961,3.289,3.282,3.2593,3.2593,3.2961,3.3876,3.4027,3.4095,3.4312,3.5052,3.4558,3.2321,3.2593,3.2376,3.1153,3.0802,3.067,3.0783,3.1286,3.1562,3.1562,3.2114,3.2951,3.4045,3.4439,3.5373,3.6526,3.6526,3.6146,3.5453,3.7357,3.7496,3.6682,3.862,3.887,3.8144,3.8144,3.6958,3.5386,3.5386,3.4664,3.3856,3.4733,3.5061,3.5049,3.5452,3.3873,3.1932,3.1818,3.1549,3.1386,3.1386,3.1386,3.1386,3.1386,3.1486,3.1599,3.1712,3.175,3.175,3.175,3.175,3.1712,3.1587,3.1562,3.1524,3.1411,3.1047,3.0783,3.0783,3.0319,2.9967,2.9967,2.9867,2.9792,2.9792,2.9792,2.9792,2.9792,2.9792,2.9792,2.9792,2.9792,2.9792,2.9792,2.9792,2.9792,2.9792,2.9792,2.9792,2.9792,2.9792,2.9792,2.9792,2.9792,2.9792,3.2332,3.2557,3.2766,3.3425,3.4083,3.4562,3.4562,3.5055,3.5504,3.5504,3.5439,3.5359,3.5359,3.5279,3.492,3.4027,3.3876,3.3602,3.2749,3.2593,3.2961,3.3876,3.4027,3.4394,3.5279,3.5439,3.5359,3.5148,3.4327,3.2927,3.0798,3.0583,3.0834,3.1298,3.1851,3.2139,3.2139,3.2704,3.3551,3.4584,3.4637,3.5775,3.7663,3.7663,3.7587,3.7601,3.8782,3.862,3.7753,3.8943,3.9337,3.9265,3.9265,3.8546,3.751,3.751,3.6866,3.5974,3.6053,3.6053,3.6039,3.6142,3.5006,3.3515,3.3014,3.2169,3.1386,3.1386,3.1386,3.1386,3.1386,3.1763,3.2265,3.2792,3.2918,3.2918,3.2918,3.2918,3.2767,3.224,3.2139,3.1976,3.1474,3.1348,3.1323,3.1323,3.0871,3.0545,3.0545,3.0105,2.9792,2.9792,2.9792,2.9792,2.9792,2.9792,2.9792,2.9792,2.9792,2.9792,2.9792,2.9792,2.9792,2.9792,2.9792,2.9792,2.9792,2.9792,2.9792,2.9792,2.9792,2.9792,3.1854,3.2213,3.2572,3.2841,3.3395,3.3888,3.3888,3.4397,3.4891,3.4891,3.522,3.5504,3.5504,3.5504,3.5359,3.4986,3.4905,3.4773,3.4409,3.4341,3.4476,3.4839,3.4905,3.5067,3.5439,3.5504,3.5279,3.461,3.3671,3.3107,3.2898,3.2874,3.3141,3.3806,3.43,3.4593,3.4593,3.4832,3.5521,3.6568,3.6568,3.7357,3.8708,3.8069,3.7829,3.7829,3.8234,3.8234,3.7904,3.8943,3.9424,3.9424,3.9424,3.8708,3.7829,3.7829,3.7098,3.6277,3.693,3.7175,3.7252,3.789,3.7249,3.5903,3.4433,3.3747,3.3269,3.2642,3.2403,3.2403,3.2403,3.2566,3.2792,3.3018,3.3081,3.3081,3.3081,3.3081,3.3006,3.278,3.2729,3.2667,3.2441,3.2114,3.1888,3.1888,3.1424,3.0972,3.0658,3.0419,3.0168,2.9829,2.9792,2.9792,2.9792,2.9792,2.9792,2.9792,2.9792,2.9942,3.0281,3.0281,3.0281,3.0281,3.0281,3.0118,2.9792,2.9792,2.9967,3.0281,3.0278,3.0464,3.1739,3.2028,3.2213,3.2213,3.2721,3.32,3.32,3.3709,3.4188,3.4188,3.4726,3.519,3.519,3.537,3.5504,3.5504,3.5504,3.5504,3.5504,3.5504,3.5504,3.5504,3.5504,3.5504,3.5504,3.5504,3.5213,3.4476,3.3822,3.4002,3.5234,3.5305,3.5377,3.5654,3.5991,3.6198,3.6198,3.6198,3.6774,3.7829,3.7829,3.8383,3.9337,3.862,3.8308,3.8308,3.8308,3.8308,3.8308,3.9104,3.9424,3.9424,3.9424,3.8943,3.8308,3.8308,3.7814,3.7238,3.7979,3.8308,3.8383,3.9177,3.887,3.7904,3.5762,3.4979,3.4511,3.3797,3.3313,3.3081,3.3081,3.3081,3.3081,3.3081,3.3081,3.3081,3.3081,3.3081,3.3081,3.3081,3.3081,3.3081,3.3081,3.2742,3.2466,3.2466,3.1989,3.1499,3.1135,3.0809,3.047,3.008,2.9892,2.9792,2.9792,2.9792,2.9867,3.003,3.0043,3.0281,3.0821,3.0846,3.0846,3.0846,3.0846,3.0645,3.0269,3.0269,3.047,3.0846,3.0841,3.1032,3.2382,3.2064,3.1482,3.1482,3.2033,3.2527,3.2527,3.3036,3.3499,3.3499,3.4023,3.4487,3.4487,3.504,3.5504,3.5504,3.5504,3.5504,3.5504,3.5504,3.5504,3.5504,3.5504,3.5504,3.5504,3.5504,3.5504,3.5504,3.5504,3.5992,3.7261,3.7336,3.701,3.6235,3.6198,3.6198,3.6198,3.6198,3.6774,3.7829,3.7829,3.8383,3.9424,3.9424,3.9352,3.9352,3.9352,3.9352,3.9352,3.9424,3.9424,3.9424,3.9424,3.9424,3.9352,3.9352,3.9352,3.9337,3.9352,3.9352,3.9424,3.9424,3.9424,3.9017,3.6838,3.5521,3.4664,3.4664,3.3953,3.3081,3.3081,3.3081,3.3081,3.3081,3.3081,3.3081,3.3081,3.3081,3.3081,3.3081,3.3081,3.3081,3.3081,3.3068,3.3068,3.3068,3.2579,3.2202,3.219,3.1273,3.062,3.0608,3.0118,2.9792,2.9792,2.9792,3.003,3.057,3.0608,3.0834,3.1361,3.1386,3.1386,3.1386,3.1386,3.1386,3.1373,3.1373,3.1373,3.1386,3.1386,3.1386,3.1894,3.1697,3.1482,3.1482,3.1631,3.1839,3.1839,3.2362,3.2826,3.2826,3.335,3.3948,3.4397,3.4651,3.4966,3.5429,3.5504,3.5504,3.5504,3.5504,3.5504,3.5504,3.5504,3.5504,3.5504,3.5504,3.5504,3.5504,3.5504,3.6073,3.7345,3.7404,3.7708,3.8413,3.8368,3.8368,3.8368,3.8368,3.8531,3.887,3.887,3.9104,3.9424,3.9424,3.9424,3.9424,3.9424,3.9424,3.9424,3.9424,3.9424,3.9424,3.9424,3.9424,3.9424,3.9424,3.9424,3.9424,3.9424,3.9424,3.9424,3.9424,3.887,3.8144,3.751,3.654,3.5426,3.4024,3.3398,3.3081,3.3081,3.3081,3.3081,3.3081,3.3081,3.3081,3.3081,3.3081,3.3081,3.3081,3.3081,3.3081,3.3081,3.3081,3.3081,3.3081,3.2918,3.2667,3.2265,3.1913,3.1562,3.1185,3.0984,3.0595,2.9854,3.0143,3.0432,3.0608,3.0947,3.1386,3.1926,3.1951,3.1951,3.1951,3.1951,3.1763,3.1386,3.1386,3.1587,3.1964,3.2353,3.2541,3.281,3.2312,3.191,3.191,3.1697,3.1482,3.1482,3.1795,3.2138,3.2138,3.2662,3.332,3.3978,3.4307,3.4696,3.5385,3.5504,3.5504,3.5504,3.5504,3.5504,3.5504,3.5504,3.5504,3.5504,3.5504,3.5504,3.5504,3.5504,3.6073,3.7345,3.7404,3.8018,3.9379,3.9424,3.9424,3.9424,3.9424,3.9424,3.9424,3.9424,3.9424,3.9424,3.9424,3.9424,3.9424,3.9424,3.9424,0.0,3.9424,3.9424,3.9424,3.9424,3.9424,3.9424,3.9424,3.9424,3.9424,3.9424,3.9424,3.9424,3.9424,3.8383,3.719,3.719,3.6462,3.5278,3.3556,3.3081,3.3081,3.3081,3.3081,3.3081,3.3081,3.3081,3.3081,3.3081,3.3081,3.3081,3.3081,3.3081,3.3081,3.3081,3.3081,3.3081,3.3081,3.3081,3.2943,3.2591,3.2353,3.2077,3.1738,3.1512,3.1122,3.0444,3.0708,3.0997,3.121,3.1524,3.1951,3.2516,3.2541,3.2541,3.2541,3.2541,3.2365,3.2026,3.2026,3.2202,3.2554,3.2905,3.3081,0.0,3.3649,3.2586,3.2641,3.2064,3.1524,3.1582,3.1539,0.0,3.1482,3.2018,3.2662,3.3365,3.3993,3.4637,3.5385,3.5504,3.5504,3.5504,3.5504,3.5504,3.5504,3.5504,3.5504,3.5504,3.5504,3.5504,3.5504,3.5504,3.6073,3.7345,3.7404,3.8018,3.9379,3.9424,3.9424,3.9424,3.9424,3.9424,3.9424,3.9424,3.9424,3.9424,3.9424,3.9424,3.9424,3.9424,3.9424,3.9424,3.9424,3.9424,3.9424,3.9424,3.9424,3.9424,3.9424,3.9424,3.9424,3.9424,3.9424,3.9424,3.9337,3.7965,3.629,3.6198,3.5426,3.4345,3.3398,3.3081,3.3081,3.3081,3.3081,3.3081,3.3081,3.3081,3.3081,3.3081,3.3081,3.3081,3.3081,3.3154,3.3154,3.3081,3.3154,3.3154,3.3081,3.3081,3.3081,3.3081,3.2604,3.2265,3.2349,3.1965,3.1663,3.1663,3.1556,3.1675,3.2177,3.2252,3.2516,3.3056,3.3081,3.3081,3.3081,3.3081,3.3081,3.3081,3.3081,3.3081,3.3081,3.3081,3.3081,3.5362,0.0,3.2749,3.3235,3.2407,3.164,0.0,3.191,3.1482,3.1482,3.1601,3.2123,3.3275,3.3619,3.4113,3.531,3.5504,3.5504,3.5504,3.5504,3.5504,3.5504,3.5504,3.5504,3.5504,3.5504,3.5504,3.5504,3.5504,3.6073,3.7345,3.7404,3.8018,3.9379,3.9424,3.9424,3.9424,3.9424,3.9424,3.9424,3.9424,3.9424,3.9424,3.9424,3.9424,3.9424,3.9424,3.9424,3.9424,3.9424,3.9424,3.9424,3.9424,3.9424,3.9424,3.9424,3.9424,3.9424,3.9424,3.9424,3.9265,3.8472,3.7829,3.7266,3.6448,3.4952,3.3398,3.3154,3.3081,3.3081,3.3081,3.3081,3.3081,3.3081,3.3081,3.3081,3.3081,3.3081,3.3081,3.3081,3.3797,3.4037,3.324,3.3797,3.4037,3.324,3.3081,3.3081,3.3081,3.2955,3.3183,3.4066,3.4018,3.394,3.394,3.274,3.2077,3.2202,3.2629,3.293,3.3068,3.3081,3.3081,3.3081,3.3081,3.3081,3.3081,3.3081,3.3081,3.3081,3.3081,3.3081,3.5622,3.4609,3.3582,3.3987,3.3271,3.2461,3.2586,3.2272,3.191,3.1582,3.1482,3.1943,3.3245,3.3499,3.3933,3.528,3.5504,3.5504,3.5504,3.5504,3.5504,3.5504,3.5504,3.5504,3.5504,3.5504,3.5504,3.5504,3.5504,3.6073,3.7345,3.7404,3.8018,3.9379,3.9424,3.9424,3.9424,3.9424,3.9424,3.9424,3.9424,3.9424,3.9424,3.9424,3.9424,3.9424,3.9424,3.9424,3.9424,3.9424,3.9424,3.9424,3.9424,3.9424,3.9424,3.9424,3.9424,3.9424,3.9424,3.9424,3.9265,3.8708,3.8234,3.7677,3.7098,3.5828,3.4415,3.3953,3.3797,3.3713,3.324,3.3081,3.3081,3.3081,3.3081,3.3081,3.3081,3.3081,3.324,3.3713,3.4275,3.4664,3.4568,3.5034,3.5047,3.4024,3.3797,3.3797,3.3797,3.3797,3.4262,3.5278,3.5359,3.5359,3.5359,3.4578,3.3615,3.2689,3.2905,3.3313,3.3797,3.3797,3.3797,3.3797,3.3313,3.3081,3.3081,3.3081,3.3081,3.3081,3.3081,3.3081,3.5622,3.5207,3.4736,3.4736,3.4186,3.3495,3.2986,3.2841,3.2586,3.1951,3.1739,3.2088,3.3412,3.3546,3.3933,3.528,3.5504,3.5504,3.5504,3.5504,3.5504,3.5504,3.5504,3.5504,3.5504,3.5504,3.5504,3.5504,3.5594,3.6163,3.7345,3.7509,3.8138,3.9379,3.9424,3.9424,3.9424,3.9424,3.9424,3.9424,3.9424,3.9424,3.9424,3.9424,3.9424,3.9424,3.9424,3.9424,3.9424,3.9424,3.9424,3.9424,3.9424,3.9424,3.9424,3.9424,3.9424,3.9424,3.9424,3.9424,3.9424,3.9424,3.8782,3.8069,3.8069,3.742,3.6448,3.5453,3.5061,3.4746,3.3784,3.3543,3.3543,3.3543,3.3543,3.3543,3.3543,3.3543,3.3869,3.4733,3.5061,3.5373,3.6053,3.6369,3.6132,3.5047,3.4897,3.4897,3.4897,3.4897,3.5292,3.6369,3.6448,3.6448,3.6448,3.6448,3.5588,3.3713,3.3543,3.394,3.4897,3.4746,3.4664,3.4664,3.3641,3.3154,3.3313,3.3313,3.3386,3.3543,3.3458,3.3326,3.5622,3.5515,3.547,3.547,3.4512,3.3735,3.4186,3.3836,3.3427,3.3287,3.2841,3.2838,3.4106,3.3864,3.3933,3.528,3.5504,3.5504,3.5504,3.5504,3.5504,3.5504,3.5504,3.5504,3.5504,3.5504,3.5504,3.5504,3.6028,3.6641,3.7375,3.7943,3.8601,3.9394,3.9424,3.9424,3.9424,3.9424,3.9424,3.9424,3.9424,3.9424,3.9424,3.9424,3.9424,3.9424,3.9424,3.9424,3.9424,3.9424,3.9424,3.9424,3.9424,3.9424,3.9424,3.9424,3.9424,3.9424,3.9424,3.9424,3.9424,3.9424,3.9265,3.9177,3.9177,3.9017,3.8694,3.7587,3.671,3.5974,3.5734,3.5734,3.5734,3.5734,3.5734,3.5734,3.5734,3.5734,3.5734,3.5974,3.671,3.7098,3.6369,3.693,3.719,3.6132,3.5974,3.5974,3.5974,3.5974,3.6383,3.742,3.7587,3.7587,3.7587,3.7587,3.7021,3.5814,3.5734,3.5814,3.5974,3.5129,3.4664,3.4664,3.3641,3.3556,3.4428,3.4428,3.4897,3.5734,3.4832,3.445,3.5622,3.5622,3.5622,3.5622,3.4847,3.4137,3.4087,3.3531,3.3039,3.3039,3.3123,3.3479,3.4326,3.4601,3.4789,3.5404,3.5504,3.5504,3.5504,3.5804,3.6028,3.6028,3.6327,3.6402,3.6073,3.6028,3.6028,3.6028,3.6312,3.6911,3.7883,3.8227,3.8706,3.9394,3.9424,3.9424,3.9424,3.9424,3.9424,3.9424,3.9424,3.9424,3.9424,3.9424,3.9424,3.9424,3.9424,3.9424,3.9424,3.9424,3.9424,3.9424,3.9424,3.9424,3.9424,3.9424,3.9424,3.9424,3.9424,3.9424,3.9424,3.9424,3.9424,3.9424,3.9424,3.9424,3.9265,3.8782,3.7904,3.693,3.6369,3.6198,3.6198,3.6198,3.6198,3.6198,3.6198,3.6198,3.6369,3.693,3.7434,3.7829,3.789,3.8368,3.8308,3.7252,3.7098,3.7098,3.7098,3.7098,3.7496,3.8546,3.8634,3.8634,3.8634,3.8634,3.7979,3.6277,3.6774,3.7098,3.7098,3.6632,3.6411,3.6411,3.5278,3.5034,3.5507,3.5507,3.5734,3.6212,3.571,3.5498,3.5622,3.5622,3.5622,3.5622,3.5207,3.464,3.3987,3.3443,3.3039,3.2895,3.3263,3.3836,3.4388,3.5089,3.5569,3.5544,3.5504,3.5549,3.5714,3.6178,3.6537,3.6686,3.712,3.7225,3.6746,3.6701,3.6701,3.6701,3.6851,3.736,3.8347,3.8542,3.8871,3.9409,3.9424,3.9424,3.9424,3.9424,3.9424,3.9424,3.9424,3.9424,3.9424,3.9424,3.9424,3.9424,3.9424,3.9424,3.9424,3.9424,3.9424,3.9424,3.9424,3.9424,3.9424,3.9424,3.9424,3.9424,3.9424,3.9424,3.9424,3.9424,3.9424,3.9424,3.9424,3.9424,3.9424,3.9424,3.8782,3.7979,3.7161,3.6916,3.6916,3.6916,3.6916,3.6916,3.6916,3.6916,3.7175,3.7994,3.8144,3.8472,3.9265,3.9424,3.9104,3.8308,3.8144,3.8144,3.8144,3.8144,3.8472,3.9337,3.9424,3.9424,3.9424,3.9424,3.8694,3.7084,3.7738,3.8144,3.8144,3.7919,3.7829,3.7829,3.6774,3.6355,3.6604,3.6604,3.6682,3.693,3.6693,3.6576,3.5622,3.5622,3.5622,3.5622,3.556,3.5362,3.4688,3.4479,3.4284,3.3649,3.3504,3.3707,3.4372,3.5048,3.5509,3.5489,3.5504,3.5714,3.6327,3.6462,3.6701,3.727,3.7375,3.7389,3.7345,3.7345,3.7345,3.7345,3.7898,3.8287,3.8392,3.899,3.9364,3.9424,3.9424,3.9424,3.9424,3.9424,3.9424,3.9424,3.9424,3.9424,3.9424,3.9424,3.9424,3.9424,3.9424,3.9424,3.9424,3.9424,3.9424,3.9424,3.9424,3.9424,3.9424,3.9424,3.9424,3.9424,3.9424,3.9424,3.9424,3.9424,3.9424,3.9424,3.9424,3.9424,3.9424,3.9424,3.9337,3.9265,3.9177,3.9177,3.9177,3.9177,3.9177,3.9177,3.9177,3.9177,3.9177,3.9265,3.9265,3.9337,3.9424,3.9424,3.9337,3.9265,3.9265,3.9265,3.9265,3.9265,3.9337,3.9424,3.9424,3.9424,3.9424,3.9424,3.9337,3.9177,3.9265,3.9265,3.9265,3.8308,3.7829,3.7829,3.6774,3.6682,3.7663,3.7663,3.8234,3.9162,3.8179,3.7667,3.5622,3.5622,3.5622,3.5622,3.5622,3.5407,3.4736,3.4284,3.4037,3.4186,3.4599,3.5093,3.5683,3.5657,3.5504,3.5504,3.5848,3.6207,3.6447,3.7165,3.7764,3.7988,3.8392,3.8497,3.8063,3.8018,3.8018,3.8018,3.8257,3.8571,3.9005,3.9275,3.9424,3.9424,3.9424,3.9424,3.9424,3.9424,3.9424,3.9424,3.9424,3.9424,3.9424,3.9424,3.9424,3.9424,3.9424,3.9424,3.9424,3.9424,3.9424,3.9424,3.9424,3.9424,3.9424,3.9424,3.9424,3.9424,3.9424,3.9424,3.9424,3.9424,3.9424,3.9424,3.9424,3.9424,3.9424,3.9424,3.9424,3.9424,3.9424,3.9424,3.9424,3.9424,3.9424,3.9424,3.9424,3.9424,3.9424,3.9424,3.9424,3.9424,3.9424,3.9424,3.9424,3.9424,3.9424,3.9424,3.9424,3.9424,3.9424,3.9424,3.9424,3.9424,3.9424,3.9424,3.9424,3.9424,3.9424,3.9424,3.9424,3.9017,3.8782,3.8782,3.8383,3.8383,3.8782,3.8782,3.9017,3.9409,3.8954,3.8778,3.5622,3.5622,3.5622,3.5622,3.5622,3.547,3.5005,3.4399,3.3987,3.4235,3.5017,3.5792,3.6199,3.6054,3.5782,3.5569,3.6058,3.6552,3.6746,3.7704,3.8467,3.8691,3.9125,3.923,3.8751,3.8721,3.8721,3.8721,3.8721,3.8916,3.9394,3.9424,3.9424,3.9424,3.9424,3.9424,3.9424,3.9424,3.9424,3.9424,3.9424,3.9424,3.9424,3.9424,3.9424,3.9424,3.9424,3.9424,3.9424,3.9424,3.9424,3.9424,3.9424,3.9424,3.9424,3.9424,3.9424,3.9424,3.9424,3.9424,3.9424,3.9424,3.9424,3.9424,3.9424,3.9424,3.9424,3.9424,3.9424,3.9424,3.9424,3.9424,3.9424,3.9424,3.9424,3.9424,3.9424,3.9424,3.9424,3.9424,3.9424,3.9424,3.9424,3.9424,3.9424,3.9424,3.9424,3.9424,3.9424,3.9424,3.9424,3.9424,3.9424,3.9424,3.9424,3.9424,3.9424,3.9424,3.9424,3.9424,3.9424,3.9424,3.9424,3.9424,3.9424,3.9424,3.9424,3.9424,3.9424,3.9424,3.9424,3.9424,3.5622,3.5622,3.5622,3.5622,3.5622,3.5622,3.5622,3.5098,3.4431,3.3751,3.4718,3.5695,3.5555,3.6117,3.6399,3.5619,3.6058,3.6701,3.733,3.7973,3.8646,3.9334,3.9424,3.9424,3.9424,3.9424,3.9424,3.9424,3.9424,3.9424,3.9424,3.9424,3.9424,3.9424,3.9424,3.9424,3.9424,3.9424,3.9424,3.9424,3.9424,3.9424,3.9424,3.9424,3.9424,3.9424,3.9424,3.9424,3.9424,3.9424,3.9424,3.9424,3.9424,3.9424,3.9424,3.9424,3.9424,3.9424,3.9424,3.9424,3.9424,3.9424,3.9424,3.9424,3.9424,3.9424,3.9424,3.9424,3.9424,3.9424,3.9424,3.9424,3.9424,3.9424,3.9424,3.9424,3.9424,3.9424,3.9424,3.9424,3.9424,3.9424,3.9424,3.9424,3.9424,3.9424,3.9424,3.9424,3.9424,3.9424,3.9424,3.9424,3.9424,3.9424,3.9424,3.9424,3.9424,3.9424,3.9424,3.9424,3.9424,3.9424,3.9424,3.9424,3.9424,3.9424,3.9424,3.9424,3.9424,3.9424,3.9424,3.9424,3.5622,3.5622,3.5622,3.5622,3.5622,3.5622,3.5622,3.547,3.5399,3.5693,3.6095,3.6562,3.7042,3.7294,3.7219,3.6399,3.6842,3.7273,3.7383,3.7973,3.8646,3.9334,3.9424,3.9424,3.9424,3.9424,3.9424,3.9424,3.9424,3.9424,3.9424,3.9424,3.9424,3.9424,3.9424,3.9424,3.9424,3.9424,3.9424,3.9424,3.9424,3.9424,3.9424,3.9424,3.9424,3.9424,3.9424,3.9424,3.9424,3.9424,3.9424,3.9424,3.9424,3.9424,3.9424,3.9424,3.9424,3.9424,3.9424,3.9424,3.9424,3.9424,3.9424,3.9424,3.9424,3.9424,3.9424,3.9424,3.9424,3.9424,3.9424,3.9424,3.9424,3.9424,3.9424,3.9424,3.9424,3.9424,3.9424,3.9424,3.9424,3.9424,3.9424,3.9424,3.9424,3.9424,3.9424,3.9424,3.9424,3.9424,3.9424,3.9424,3.9424,3.9424,3.9424,3.9424,3.9424,3.9424,3.9424,3.9424,3.9424,3.9424,3.9424,3.9424,3.9424,3.9424,3.9424,3.9424,3.9424,3.9424,3.9424,3.9424,3.5622,3.5622,3.5622,3.5622,3.5622,3.5622,3.5622,3.5622,3.5715,3.6158,3.6737,3.7197,3.7351,3.7842,3.7962,3.7203,3.7665,3.7966,3.7512,3.8258,3.8946,3.896,3.9245,3.9424,3.9424,3.9424,3.9424,3.9424,3.9424,3.9424,3.9424,3.9424,3.9424,3.9424,3.9424,3.9424,3.9424,3.9424,3.9424,3.9424,3.9424,3.9424,3.9424,3.9424,3.9424,3.9424,3.9424,3.9424,3.9424,3.9424,3.9424,3.9424,3.9424,3.9424,3.9424,3.9424,3.9424,3.9424,3.9424,3.9424,3.9424,3.9424,3.9424,3.9424,3.9424,3.9424,3.9424,3.9424,3.9424,3.9424,3.9424,3.9424,3.9424,3.9424,3.9424,3.9424,3.9424,3.9424,3.9424,3.9424,3.9424,3.9424,3.9424,3.9424,3.9424,3.9424,3.9424,3.9424,3.9424,3.9424,3.9424,3.9424,3.9424,3.9424,3.9424,3.9424,3.9424,3.9424,3.9424,3.9424,3.9424,3.9424,3.9424,3.9424,3.9424,3.9424,3.9424,3.9424,3.9424,3.9424,3.9424,3.9424,3.5622,3.5622,3.5622,3.5622,3.5622,3.5622,3.5622,3.5622,3.5626,3.5712,3.6883,3.7702,3.7009,3.8036,3.8745,3.8035,3.8408,3.8543,3.7732,3.8642,3.9143,3.8427,3.8901,3.9334,3.9334,3.9379,3.9424,3.9424,3.9424,3.9424,3.9424,3.9364,3.9349,3.9424,3.9364,3.9349,3.9424,3.9424,3.9424,3.9424,3.9424,3.9424,3.9424,3.9424,3.9424,3.9424,3.9424,3.9424,3.9424,3.9424,3.9424,3.9424,3.9424,3.9424,3.9424,3.9424,3.9424,3.9424,3.9424,3.9424,3.9424,3.9424,3.9424,3.9424,3.9424,3.9424,3.9424,3.9424,3.9424,3.9424,3.9424,3.9424,3.9424,3.9424,3.9424,3.9424,3.9424,3.9424,3.9424,3.9424,3.9424,3.9424,3.9424,3.9424,3.9424,3.9424,3.9424,3.9424,3.9424,3.9424,3.9424,3.9424,3.9424,3.9424,3.9424,3.9424,3.9424,3.9424,3.9424,3.9424,3.9424,3.9424,3.9424,3.9424,3.9424,3.9424,3.9424,3.9424,3.9424,3.9424,3.9424,3.9424,3.5622,3.5622,3.5622,3.5622,3.5622,3.5622,3.5622,3.5622,3.578,3.64,3.727,3.8012,3.8405,3.9244,3.961,3.8799,3.8766,3.8594,3.7717,3.7822,3.7901,3.7623,3.8212,3.8616,3.8616,3.9095,3.9424,3.9424,3.9424,3.9424,3.9424,3.8901,3.8856,3.9409,3.8901,3.8871,3.9409,3.9424,3.9424,3.9424,3.9424,3.9424,3.9424,3.9424,3.9424,3.9424,3.9424,3.9424,3.9424,3.9424,3.9424,3.9424,3.9424,3.9424,3.9424,3.9424,3.9424,3.9424,3.9424,3.9424,3.9424,3.9424,3.9424,3.9424,3.9424,3.9424,3.9424,3.9424,3.9424,3.9424,3.9424,3.9424,3.9424,3.9424,3.9424,3.9424,3.9424,3.9424,3.9424,3.9424,3.9424,3.9424,3.9424,3.9424,3.9424,3.9424,3.9424,3.9424,3.9424,3.9424,3.9424,3.9424,3.9424,3.9424,3.9424,3.9424,3.9424,3.9424,3.9424,3.9424,3.9424,3.9424,3.9424,3.9424,3.9424,3.9424,3.9424,3.9424,3.9424,3.9424,3.9424,3.9424,3.5622,3.5622,3.5622,3.5622,3.5622,3.5622,3.5622,3.5622,3.574,3.6146,3.684,3.7601,3.8345,3.9073,3.9547,3.9492,3.9489,3.9056,3.7872,3.7977,3.7888,3.7045,3.7524,3.7913,3.7913,3.8242,3.8452,3.8452,3.8452,3.8452,3.8452,3.8123,3.8078,3.8452,3.8108,3.8093,3.8452,3.8452,3.8616,3.8931,3.8931,3.9095,3.9424,3.9424,3.9424,3.9424,3.9424,3.9424,3.9424,3.9424,3.9424,3.9424,3.9424,3.9424,3.9424,3.9424,3.9424,3.9424,3.9424,3.9424,3.9424,3.9424,3.9424,3.9424,3.9424,3.9424,3.9424,3.9424,3.9424,3.9424,3.9424,3.9424,3.9424,3.9424,3.9424,3.9424,3.9424,3.9424,3.9424,3.9424,3.9424,3.9424,3.9424,3.9424,3.9424,3.9424,3.9424,3.9424,3.9424,3.9424,3.9424,3.9424,3.9424,3.9424,3.9424,3.9424,3.9424,3.9424,3.9424,3.9424,3.9424,3.9424,3.9424,3.9424,3.9424,3.9424,3.9424,3.9424,3.9424,3.9424,3.9424,3.9424,3.5622,3.5622,3.5622,3.5622,3.5622,3.5622,3.5622,3.5622,3.5622,3.5622,3.6231,3.7009,3.777,3.8497,3.9225,3.9952,4.007,3.9627,3.8206,3.8476,3.8328,3.6907,3.7304,3.7615,3.7615,3.7721,3.7782,3.7594,3.7594,3.7541,3.7404,3.73,3.73,3.7404,3.73,3.73,3.7404,3.7404,3.7689,3.8227,3.8332,3.8691,3.9245,3.9364,3.9424,3.9424,3.9424,3.9424,3.9424,3.9424,3.9424,3.9424,3.9424,3.9424,3.9424,3.9424,3.9424,3.9424,3.9424,3.9424,3.9424,3.9424,3.9424,3.9424,3.9424,3.9424,3.9424,3.9424,3.9424,3.9424,3.9424,3.9424,3.9424,3.9424,3.9424,3.9424,3.9424,3.9424,3.9424,3.9424,3.9424,3.9424,3.9424,3.9424,3.9424,3.9424,3.9424,3.9424,3.9424,3.9424,3.9424,3.9424,3.9424,3.9424,3.9424,3.9424,3.9424,3.9424,3.9424,3.9424,3.9424,3.9424,3.9424,3.9424,3.9424,3.9424,3.9424,3.9424,3.9424,3.9424,3.9424,3.9424,3.5622,3.5622,3.5622,3.5622,3.5622,3.5622,3.5622,3.5622,3.5622,3.5622,3.6231,3.7009,3.777,3.8497,3.9225,3.9952,4.007,3.9782,3.887,3.8827,3.8544,3.7716,3.8217,3.8629,3.8629,3.9122,3.9172,3.8496,3.8431,3.8116,3.7404,3.6896,3.6851,3.7389,3.6881,3.6866,3.7404,3.7404,3.7449,3.7539,3.8123,3.8437,3.8542,3.9155,3.9424,3.9424,3.9424,3.9424,3.9424,3.9424,3.9424,3.9424,3.9424,3.9424,3.9424,3.9424,3.9424,3.9424,3.9424,3.9424,3.9424,3.9424,3.9424,3.9424,3.9424,3.9424,3.9424,3.9424,3.9424,3.9424,3.9424,3.9424,3.9424,3.9424,3.9424,3.9424,3.9424,3.9424,3.9424,3.9424,3.9424,3.9424,3.9424,3.9424,3.9424,3.9424,3.9424,3.9424,3.9424,3.9424,3.9424,3.9424,3.9424,3.9424,3.9424,3.9424,3.9424,3.9424,3.9424,3.9424,3.9424,3.9424,3.9424,3.9424,3.9424,3.9424,3.9424,3.9424,3.9424,3.9424,3.9424,3.9424,3.5622,3.5622,3.5622,3.5622,3.5622,3.5622,3.5622,3.5622,3.5622,3.5622,3.5893,3.6502,3.7686,3.8176,3.8751,3.9884,4.007,3.9833,3.9016,3.8908,3.8635,3.7863,3.8094,3.8211,3.8211,3.8499,3.8555,3.8194,3.8133,3.8026,3.7639,3.6952,3.6682,3.6957,3.6305,3.6073,3.6342,3.6342,3.6522,3.6896,3.7539,3.7838,3.7853,3.8542,3.905,3.9424,3.9424,3.9424,3.9424,3.9424,3.9424,3.9424,3.9424,3.9424,3.9424,3.9424,3.9424,3.9424,3.9424,3.9424,3.9424,3.9424,3.9424,3.9424,3.9424,3.9424,3.9424,3.9424,3.9424,3.9424,3.9424,3.9424,3.9424,3.9424,3.9424,3.9424,3.9424,3.9424,3.9424,3.9424,3.9424,3.9424,3.9424,3.9424,3.9424,3.9424,3.9424,3.9424,3.9424,3.9424,3.9424,3.9424,3.9424,3.9424,3.9424,3.9424,3.9424,3.9424,3.9424,3.9424,3.9424,3.9424,3.9424,3.9424,3.9424,3.9424,3.9424,3.9424,3.9424,3.9424,3.9424,3.9424,3.5622,3.5622,3.5622,3.5622,3.5622,3.5622,3.5622,3.5622,3.5622,3.5622,3.5622,3.6028,3.7364,3.777,3.8328,3.9597,3.9952,3.9901,3.9315,3.9193,3.8978,3.843,3.8374,3.8374,3.8374,3.8374,3.8318,3.8092,3.8092,3.7978,3.7806,3.7219,3.6783,3.6615,3.6054,3.5668,3.5504,3.5504,3.5744,3.6237,3.6866,3.718,3.7195,3.7838,3.8512,3.917,3.9349,3.9424,3.9424,3.9424,3.9424,3.9424,3.9424,3.9424,3.9424,3.9424,3.9424,3.9424,3.9424,3.9424,3.9424,3.9424,3.9424,3.9424,3.9424,3.9424,3.9424,3.9424,3.9424,3.9424,3.9424,3.9424,3.9424,3.9424,3.9424,3.9424,3.9424,3.9424,3.9424,3.9424,3.9424,3.9424,3.9424,3.9424,3.9424,3.9424,3.9424,3.9424,3.9424,3.9424,3.9424,3.9424,3.9424,3.9424,3.9424,3.9424,3.9424,3.9424,3.9424,3.9424,3.9424,3.9424,3.9424,3.9424,3.9424,3.9424,3.9424,3.9424,3.9424,3.9424,3.9424,3.9424,3.5622,3.5622,3.5622,3.5622,3.5622,3.5622,3.5622,3.5622,3.5622,3.5622,3.5622,3.5876,3.6688,3.7432,3.8159,3.892,3.9631,4.007,4.002,4.002,4.002,3.9952,3.9969,3.9969,3.9969,3.9969,3.9662,3.8908,3.8854,3.8525,3.7806,3.7748,3.7397,3.66,3.6554,3.6228,3.5504,3.5504,3.5519,3.5564,3.6222,3.6537,3.6552,3.718,3.7823,3.8482,3.9125,3.9424,3.9424,3.9424,3.9424,3.9424,3.9424,3.9424,3.9424,3.9424,3.9424,3.9424,3.9424,3.9424,3.9424,3.9424,3.9424,3.9424,3.9424,3.9424,3.9424,3.9424,3.9424,3.9424,3.9424,3.9424,3.9424,3.9424,3.9424,3.9424,3.9424,3.9424,3.9424,3.9424,3.9424,3.9424,3.9424,3.9424,3.9424,3.9424,3.9424,3.9424,3.9424,3.9424,3.9424,3.9424,3.9424,3.9424,3.9424,3.9424,3.9424,3.9424,3.9424,3.9424,3.9424,3.9424,3.9424,3.9424,3.9424,3.9424,3.9424,3.9424,3.9424,3.9424,3.9424,3.9424,3.5622,3.5622,3.5622,3.5622,3.5622,3.5622,3.5622,3.5622,3.5622,3.5622,3.5622,3.5707,3.5994,3.6671,3.7584,3.8802,3.9208,3.9546,4.0003,4.007,4.007,4.007,4.007,4.007,4.007,4.007,3.9952,3.9662,3.9662,3.9558,3.9279,3.8816,3.8342,3.8101,3.7616,3.698,3.6228,3.5718,3.5504,3.5504,3.5744,3.5863,3.5878,3.6522,3.7165,3.7808,3.8467,3.9005,3.9424,3.9424,3.9424,3.9424,3.9424,3.9424,3.9424,3.9424,3.9424,3.9424,3.9424,3.9424,3.9424,3.9424,3.9424,3.9424,3.9424,3.9424,3.9424,3.9424,3.9424,3.9424,3.9424,3.9424,3.9424,3.9424,3.9424,3.9424,3.9424,3.9424,3.9424,3.9424,3.9424,3.9424,3.9424,3.9424,3.9424,3.9424,3.9424,3.9424,3.9424,3.9424,3.9424,3.9424,3.9424,3.9424,3.9424,3.9424,3.9424,3.9424,3.9424,3.9424,3.9424,3.9424,3.9424,3.9424,3.9424,3.9424,3.9424,3.9424,3.9424,3.9424,3.9424,3.9424,3.5622,3.5622,3.5622,3.5622,3.5622,3.5622,3.5622,3.5622,3.5622,3.5622,3.5622,3.569,3.596,3.6434,3.7178,3.843,3.8836,3.9242,3.9969,4.007,4.007,4.007,4.007,4.007,4.007,4.007,4.007,4.007,4.007,4.007,4.007,3.961,3.9193,3.8908,3.8189,3.7515,3.704,3.6538,3.6133,3.5894,3.5894,3.5718,3.5519,3.5953,3.6611,3.7434,3.7868,3.8571,3.9424,3.9424,3.9424,3.9424,3.9424,3.9424,3.9424,3.9424,3.9424,3.9424,3.9424,3.9424,3.9424,3.9424,3.9424,3.9424,3.9424,3.9424,3.9424,3.9424,3.9424,3.9424,3.9424,3.9424,3.9424,3.9424,3.9424,3.9424,3.9424,3.9424,3.9424,3.9424,3.9424,3.9424,3.9424,3.9424,3.9424,3.9424,3.9424,3.9424,3.9424,3.9424,3.9424,3.9424,3.9424,3.9424,3.9424,3.9424,3.9424,3.9424,3.9424,3.9424,3.9424,3.9424,3.9424,3.9424,3.9424,3.9424,3.9424,3.9424,3.9424,3.9424,3.9424,3.9424,0.0,0.0,0.0,3.5622,3.5622,3.5622,3.5622,3.5622,3.5622,3.5622,3.5639,3.5876,3.6637,3.6806,3.706,3.7821,3.8531,3.9242,3.9969,4.007,4.007,4.007,4.007,4.007,4.007,4.007,4.007,4.007,4.007,4.007,4.007,4.007,3.9731,3.8962,3.8206,3.7806,3.7806,3.7806,3.7397,3.6676,3.6676,3.6228,3.5504,3.5504,3.6193,3.7404,3.7404,3.8167,3.9424,3.9424,3.9424,3.9424,3.9424,3.9424,3.9424,3.9424,3.9424,3.9424,3.9424,3.9424,3.9424,3.9424,3.9424,3.9424,3.9424,3.9424,3.9424,3.9424,3.9424,3.9424,3.9424,3.9424,3.9424,3.9424,3.9424,3.9424,3.9424,3.9424,3.9424,3.9424,3.9424,3.9424,3.9424,3.9424,3.9424,3.9424,3.9424,3.9424,3.9424,3.9424,3.9424,3.9424,3.9424,3.9424,3.9424,3.9424,3.9424,3.9424,3.9424,3.9424,3.9424,3.9424,3.9424,3.9424,3.9424,3.9424,3.9424,3.9424,3.9424,3.9424,3.9424,3.9424,3.5622,0.0,0.0,0.0,0.0,0.0,3.5622,3.5622,3.5622,3.5622,3.6062,3.6535,3.6738,3.7229,3.7838,3.8582,3.887,3.9242,3.9969,4.007,4.007,4.007,4.007,4.007,4.007,4.007,4.007,4.007,4.007,4.007,4.007,4.007,4.002,3.9782,3.8978,3.858,3.858,3.8092,3.769,3.7456,3.7456,3.704,3.6275,3.6275,3.6706,3.7404,3.7404,3.8167,3.9424,3.9424,3.9424,3.9424,3.9424,3.9424,3.9424,3.9424,3.9424,3.9424,3.9424,3.9424,3.9424,3.9424,3.9424,3.9424,3.9424,3.9424,3.9424,3.9424,3.9424,3.9424,3.9424,3.9424,3.9424,3.9424,3.9424,3.9424,3.9424,3.9424,3.9424,3.9424,3.9424,3.9424,3.9424,3.9424,3.9424,3.9424,3.9424,3.9424,3.9424,3.9424,3.9424,3.9424,3.9424,3.9424,3.9424,3.9424,3.9424,3.9424,3.9424,3.9424,3.9424,3.9424,3.9424,3.9424,3.9424,3.9424,3.9424,3.9424,3.9424,3.9424,3.9424,3.9424,3.5622,3.5622,3.5622,3.5622,0.0,0.0,3.5622,3.5876,3.6096,3.6096,3.6721,3.7347,3.7652,3.8058,3.8599,3.9326,3.9445,3.9597,4.002,4.007,4.007,4.007,4.007,4.007,4.007,4.007,4.007,4.007,4.007,4.007,4.007,4.007,4.007,4.007,3.9662,3.9368,3.9368,3.8995,3.8596,3.8246,3.8246,3.7847,3.71,3.7443,3.7857,3.8481,3.8774,3.9514,4.0447,4.0447,4.0076,3.9424,3.9424,3.9424,3.9424,3.9424,3.9424,3.9424,3.9424,3.9424,3.9424,3.9424,3.9424,3.9424,3.9424,3.9424,3.9424,3.9424,3.9424,3.9424,3.9424,3.9424,3.9424,3.9424,3.9424,3.9424,3.9424,3.9666,3.9864,3.9481,3.9424,3.9424,3.9424,3.9424,3.9424,3.9424,3.9424,3.9424,3.9424,3.9424,3.9424,3.9424,3.9424,3.9424,3.9424,3.9424,3.9424,3.9424,3.9424,3.9424,3.9424,3.9424,3.9424,3.9424,3.9424,3.9424,3.9424,3.9424,3.9424,3.9424,3.9424,3.9424,3.5622,3.569,3.574,3.574,3.5808,0.0,3.5876,3.6417,3.6907,3.6907,3.7499,3.8227,3.887,3.9056,3.9326,3.9969,4.007,4.007,4.007,4.007,4.007,4.007,4.007,4.007,4.007,4.007,4.007,4.007,4.007,4.007,4.007,4.007,4.007,4.007,4.007,4.007,4.007,4.007,3.9731,3.9016,3.9016,3.8635,3.7953,3.8701,3.9333,3.9918,4.07,4.1405,4.1997,4.1997,4.1095,3.9681,3.961,3.9538,3.9553,3.9424,3.9424,3.9424,3.9424,3.9424,3.9424,3.9424,3.9424,3.9424,3.9424,3.9424,3.9424,3.9424,3.9424,3.9424,3.9424,3.9424,3.9424,3.9424,3.9424,3.9424,3.9538,4.0185,4.05,3.9809,3.9681,3.9681,3.9538,3.9538,3.9481,3.9409,3.9424,3.9424,3.9424,3.9424,3.9424,3.9424,3.9424,3.9424,3.9424,3.9424,3.9424,3.9424,3.9424,3.9424,3.9424,3.9424,3.9424,3.9424,3.9424,3.9424,3.9424,3.9424,3.9424,3.9424,3.9424,3.9424,3.5622,3.6079,3.6552,3.6552,3.7009,0.0,3.7466,3.7584,3.7686,3.7686,3.8261,3.8819,3.8971,3.9478,3.9918,4.0054,4.007,4.007,4.007,4.007,4.007,4.007,4.007,4.007,4.007,4.007,4.007,4.007,4.007,4.007,4.007,4.007,4.007,4.007,4.007,4.007,4.007,4.007,4.002,3.985,3.985,3.9437,3.8723,3.9516,3.9877,3.9918,4.07,4.1405,4.1997,4.1997,4.1804,4.1412,4.069,4.0432,4.0363,3.9666,3.9424,3.9424,3.9424,3.9424,3.9424,3.9424,3.9424,3.9424,3.9424,3.9424,3.9424,3.9424,3.9424,3.9424,3.9424,3.9424,3.9424,3.9424,3.9424,3.961,4.0309,4.0554,4.0894,4.1412,4.1478,4.128,4.0569,4.0432,4.0185,3.9481,3.9424,3.9424,3.9424,3.9424,3.9424,3.9424,3.9424,3.9424,3.9424,3.9424,3.9424,3.9424,3.9424,3.9424,3.9424,3.9424,3.9424,3.9424,3.9424,3.9424,3.9424,3.9424,3.9424,3.9424,3.9424,3.9424,3.6654,3.7043,3.7347,3.7347,3.7635,0.0,0.0,3.8193,3.8447,3.8447,3.9039,3.9529,3.9529,3.9834,4.007,4.007,4.007,4.007,4.007,4.007,4.0204,4.0449,4.0497,4.0625,4.0891,4.0938,4.0938,4.0938,4.0938,4.0814,4.0546,4.0497,4.0368,4.0121,4.007,4.007,4.007,4.007,4.007,4.007,4.007,3.9901,3.9523,4.0695,4.1161,4.1148,4.231,4.302,4.329,4.329,4.329,4.3152,4.1853,4.108,4.0622,4.0185,3.9793,3.9424,3.9424,3.9424,3.9424,3.9424,3.9666,4.006,4.006,4.0378,4.0706,4.0706,4.0378,4.006,4.006,3.9737,3.9424,3.9424,3.9737,4.0185,4.0622,4.1396,4.2125,4.2583,4.3031,4.2892,4.1593,4.1013,4.0554,4.0115,3.9666,3.9424,3.9424,3.9424,3.9424,3.9424,3.9424,3.9424,3.9424,3.9424,3.9424,3.9424,3.9424,3.9424,3.9424,3.9424,3.9424,3.9424,3.9424,3.9424,3.9424,3.9424,3.9424,3.9424,3.9424,3.9424,3.7736,3.8007,3.8125,3.8125,3.8227,3.8328,0.0,0.0,0.0,3.9208,3.9665,4.007,4.007,4.007,4.007,4.007,4.007,4.007,4.007,4.007,4.0237,4.0703,4.0827,4.1087,4.1578,4.1621,4.1664,4.181,4.1664,4.1446,4.1087,4.0949,4.0703,4.0286,4.0171,4.007,4.007,4.007,4.007,4.007,4.007,4.007,4.0121,4.161,4.2286,4.2388,4.391,4.4587,4.4587,4.4587,4.4587,4.444,4.2847,4.1804,4.1213,4.1013,4.0378,3.9666,3.9666,3.9538,3.9424,3.9424,3.999,4.0758,4.0878,4.1462,4.1997,4.1997,4.1462,4.0946,4.0946,4.0309,3.9666,3.9864,4.0185,4.0569,4.108,4.2189,4.3169,4.3502,4.4121,4.4121,4.252,4.1674,4.1147,4.0946,4.0185,3.9666,3.9666,3.9481,3.9424,3.9424,3.9424,3.9424,3.9424,3.9424,3.9424,3.9424,3.9424,3.9424,3.9424,3.9424,3.9424,3.9424,3.9424,3.9424,3.9424,3.9424,3.9424,3.9424,3.9424,3.9424,3.7889,3.8379,3.887,3.887,3.936,3.9834,3.9834,0.0,3.9952,3.9952,0.0,4.007,4.007,0.0,0.0,4.007,4.007,4.007,4.007,4.007,4.0121,4.0154,4.0625,4.0949,4.0995,4.0995,4.1206,4.175,4.1296,4.1223,4.1664,4.1178,4.0856,4.0827,4.0319,4.007,4.007,4.007,4.007,4.007,4.007,4.007,4.0121,4.161,4.2286,4.2388,4.391,4.4587,4.4587,4.4587,4.4587,4.4514,4.3545,4.3108,4.2909,4.2125,4.128,4.0554,4.0554,4.006,3.9424,3.9424,3.999,4.0811,4.1609,4.1933,4.1997,4.1997,4.1933,4.1869,4.1869,4.1213,4.0758,4.1543,4.0585,4.02,4.252,4.2583,4.2583,4.4121,4.4514,4.431,4.3306,4.3047,4.2707,4.1997,4.108,4.0554,4.0554,3.9864,3.9424,3.9424,3.9424,3.9424,3.9424,3.9424,3.9424,3.9424,3.9424,3.9424,3.9424,3.9424,3.9424,3.9424,3.9424,3.9424,3.9424,3.9424,3.9424,3.9424,3.9424,3.9424,3.9056,3.9394,3.9631,3.9631,3.9851,4.007,4.007,4.007,4.007,4.007,0.0,0.0,0.0,0.0,0.0,0.0,4.007,4.007,4.007,4.007,4.0204,4.0546,4.078,4.1178,4.1895,4.1937,4.2185,4.2734,4.2266,4.208,4.2302,4.208,4.1621,4.0903,4.0703,4.04,4.0121,4.007,4.007,4.007,4.007,4.007,4.0121,4.117,4.1897,4.2354,4.3436,4.4164,4.4587,4.4587,4.4587,4.457,4.4196,4.3756,4.3246,4.2909,4.1869,4.069,4.069,4.0432,4.0309,4.1362,4.1949,4.2379,4.3213,4.3545,4.3545,4.3545,4.3152,4.2785,4.2785,4.2125,4.1543,4.1933,4.1804,4.1949,4.3047,4.3426,4.3739,4.444,4.4587,4.4514,4.4138,4.3621,4.3185,4.2785,4.1997,4.1478,4.1478,4.069,4.0185,4.0185,3.9666,3.9424,3.9424,3.9424,3.9424,3.9424,3.9424,3.9424,3.9424,3.9424,3.9424,3.9424,3.9424,3.9424,3.9424,3.9424,3.9424,3.9424,3.9424,3.9424,3.9935,4.007,4.007,4.007,4.007,4.007,4.007,4.007,4.007,4.007,4.007,0.0,0.0,0.0,4.007,4.007,0.0,4.007,4.007,4.007,4.0237,4.0607,4.0827,4.1358,4.2559,4.2559,4.2752,4.3444,4.3014,4.275,4.2902,4.2788,4.2302,4.1402,4.1206,4.0967,4.0546,4.0417,4.0336,4.0336,4.0154,4.007,4.0104,4.0865,4.1593,4.2337,4.3098,4.3859,4.4587,4.4587,4.4587,4.4587,4.4587,4.4196,4.368,4.368,4.2707,4.1396,4.1396,4.128,4.1264,4.2785,4.3306,4.3426,4.4327,4.4587,4.4587,4.4587,4.4138,4.368,4.368,4.3031,4.2395,4.2645,4.2847,4.3047,4.3562,4.3948,4.4327,4.457,4.4587,4.4587,4.4587,4.408,4.368,4.368,4.2909,4.2252,4.2062,4.1213,4.0622,4.0363,3.9809,3.9424,3.9424,3.9424,3.9424,3.9424,3.9424,3.9424,3.9424,3.9424,3.9424,3.9424,3.9424,3.9424,3.9424,3.9424,3.9424,3.9424,3.9424,3.9424,4.007,4.007,4.007,4.007,4.007,4.007,4.007,4.007,4.007,4.007,4.007,4.007,4.007,4.007,4.007,4.007,4.007,0.0,0.0,4.007,4.0138,4.0121,4.0577,4.1358,4.2559,4.2162,4.2306,4.341,4.3014,4.2939,4.3444,4.2976,4.2655,4.2655,4.208,4.175,4.1768,4.1178,4.0856,4.0856,4.0319,4.007,4.0104,4.0865,4.1593,4.2337,4.3098,4.3859,4.4587,4.4587,4.4587,4.4587,4.4587,4.457,4.457,4.457,4.4006,4.3246,4.3246,4.2645,4.2125,4.2986,4.3306,4.3426,4.4327,4.4587,4.4587,4.4587,4.457,4.457,4.457,4.3931,4.3502,4.4327,4.3213,4.2504,4.4179,4.3948,4.3621,4.4457,4.4587,4.4587,4.4587,4.457,4.457,4.457,4.3814,4.297,4.2125,4.1213,4.0363,3.9553,3.9424,3.9424,3.9424,3.9424,3.9424,3.9424,3.9424,3.9424,3.9424,3.9424,3.9424,3.9424,3.9424,3.9424,3.9424,3.9424,3.9424,3.9424,3.9424,3.9424,4.007,4.007,4.007,4.007,4.007,4.007,4.007,4.007,4.007,4.007,4.007,4.007,4.007,4.007,4.007,4.007,4.007,4.007,0.0,4.007,4.0254,4.0577,4.1133,4.1664,4.2062,4.2302,4.2714,4.3444,4.3014,4.2939,4.3479,4.3339,4.3069,4.2711,4.248,4.2203,4.1793,4.1578,4.1313,4.0903,4.0703,4.0449,4.0087,4.0341,4.0865,4.161,4.2354,4.3098,4.3859,4.4367,4.4587,4.4587,4.4587,4.4587,4.4587,4.4587,4.4064,4.3306,4.3306,4.3108,4.297,4.3873,4.4138,4.4196,4.4514,4.4587,4.4587,4.4587,4.4587,4.4587,4.4587,4.4384,4.4253,4.4514,4.4121,4.3856,4.444,4.4384,4.4253,4.457,4.4587,4.4587,4.4587,4.4587,4.4587,4.4587,4.4327,4.4064,4.3739,4.297,4.2062,4.1229,4.0569,4.006,3.9409,3.9424,3.9424,3.9424,3.9424,3.9424,3.9424,3.9424,3.9424,3.9424,3.9424,3.9424,3.9424,3.9424,3.9424,3.9424,3.9424,3.9424,4.007,4.007,4.007,4.007,4.007,4.007,4.007,4.007,4.007,4.007,4.007,4.0171,4.0319,4.0254,4.0171,4.0368,4.0204,4.007,0.0,4.007,4.0286,4.0827,4.1251,4.1664,4.208,4.248,4.2939,4.3444,4.3178,4.3142,4.3479,4.3497,4.3339,4.2976,4.2976,4.2808,4.2386,4.2244,4.1937,4.1534,4.1313,4.092,4.0368,4.0368,4.0695,4.1238,4.1694,4.2489,4.3453,4.3961,4.4333,4.4587,4.4587,4.4587,4.4587,4.4587,4.4253,4.3756,4.3756,4.3756,4.3873,4.4384,4.4587,4.4587,4.4587,4.4587,4.4587,4.4587,4.4587,4.4587,4.4587,4.4587,4.4587,4.4587,4.4587,4.4587,4.4587,4.4587,4.4587,4.4587,4.4587,4.4587,4.4587,4.4587,4.4587,4.4587,4.4587,4.4514,4.4196,4.3621,4.2986,4.2062,4.1213,4.0378,3.9481,3.9424,3.9424,3.9424,3.9424,3.9424,3.9424,3.9424,3.9424,3.9424,3.9424,3.9424,3.9424,3.9424,3.9424,3.9424,3.9424,3.9424]},{"header":{"parameterUnit":"m.s-1","parameterCategory":1,"la1":30.6,"la2":29.2853,"lo1":-89.7004,"lo2":-87.6739,"dy":0.0162,"dx":0.0183,"nx":112,"ny":82,"refTime":"2023-08-23T06:00:00:Z","depth":0,"parameterNumber":3,"parameterNumberName":"V-component_of_WINDS"},"data":[0.0,0.0,0.0,0.0,0.0,0.0,0.0,0.0,0.0,0.0,0.0,0.0,0.0,0.0,0.0,0.0,0.0,0.0,0.0,0.0,0.0,0.0,0.0,0.0,0.0,0.0,0.0,0.0,0.0,0.0,0.0,0.0,0.0,0.0,0.0,0.0,0.0,0.0,0.0,0.0,0.0,0.0,0.0,0.0,0.0,0.0,0.0,0.0,0.0,0.0,0.0,0.0,0.0,0.0,0.0,0.0,0.0,0.0,0.0,0.0,0.0,0.0,0.0,0.0,0.0,0.0,0.0,0.0,0.0,0.0,0.0,0.0,0.0,0.0,0.0,0.0,0.0,0.0,0.0,0.0,0.0,0.0,0.0,0.0,0.0,0.0,0.0,0.0,0.0,0.0,-1.9798,-1.9798,-1.9798,-1.9798,-1.9798,-1.9798,-1.9798,-1.9798,0.0,0.0,0.0,0.0,0.0,0.0,0.0,0.0,0.0,0.0,0.0,0.0,0.0,0.0,0.0,0.0,0.0,0.0,0.0,0.0,0.0,0.0,0.0,0.0,0.0,0.0,0.0,0.0,0.0,0.0,0.0,0.0,0.0,0.0,0.0,0.0,0.0,0.0,0.0,0.0,0.0,0.0,0.0,0.0,0.0,0.0,0.0,0.0,0.0,0.0,0.0,0.0,0.0,0.0,0.0,0.0,0.0,0.0,0.0,0.0,0.0,0.0,0.0,0.0,0.0,0.0,0.0,0.0,0.0,0.0,0.0,0.0,0.0,0.0,0.0,0.0,0.0,0.0,0.0,0.0,0.0,0.0,0.0,0.0,0.0,0.0,0.0,0.0,0.0,0.0,0.0,0.0,0.0,0.0,0.0,0.0,0.0,0.0,0.0,0.0,0.0,0.0,0.0,0.0,-1.9798,-1.9798,-1.9798,-1.9798,-1.9798,-1.9798,-1.9798,-1.9798,0.0,0.0,0.0,0.0,0.0,0.0,0.0,0.0,0.0,0.0,0.0,0.0,0.0,0.0,0.0,0.0,0.0,0.0,0.0,0.0,0.0,0.0,0.0,0.0,0.0,0.0,0.0,0.0,0.0,0.0,0.0,0.0,0.0,0.0,0.0,0.0,0.0,0.0,0.0,0.0,0.0,0.0,0.0,0.0,0.0,0.0,0.0,0.0,0.0,0.0,0.0,0.0,0.0,0.0,0.0,0.0,0.0,0.0,0.0,0.0,0.0,0.0,0.0,0.0,0.0,0.0,0.0,0.0,0.0,0.0,0.0,0.0,0.0,0.0,0.0,0.0,0.0,0.0,0.0,0.0,0.0,0.0,0.0,0.0,0.0,0.0,0.0,0.0,0.0,0.0,0.0,0.0,0.0,0.0,0.0,0.0,0.0,0.0,0.0,0.0,0.0,0.0,0.0,-1.9798,-1.9643,-1.9254,-1.9579,-1.9643,-1.9254,-1.9579,-1.9798,-1.9798,-1.9798,0.0,0.0,0.0,0.0,0.0,0.0,0.0,0.0,0.0,0.0,0.0,0.0,0.0,0.0,0.0,0.0,0.0,0.0,0.0,0.0,0.0,0.0,0.0,0.0,0.0,0.0,0.0,0.0,0.0,0.0,0.0,0.0,0.0,0.0,0.0,0.0,0.0,0.0,0.0,0.0,0.0,0.0,0.0,0.0,0.0,0.0,0.0,0.0,0.0,0.0,0.0,0.0,0.0,0.0,0.0,0.0,0.0,0.0,0.0,0.0,0.0,0.0,0.0,0.0,0.0,0.0,0.0,0.0,0.0,0.0,0.0,0.0,0.0,0.0,0.0,0.0,0.0,0.0,0.0,0.0,0.0,0.0,0.0,0.0,0.0,0.0,0.0,0.0,0.0,0.0,0.0,0.0,0.0,0.0,0.0,0.0,0.0,0.0,0.0,0.0,0.0,0.0,-1.9798,-1.9579,-1.9044,-1.9475,-1.9579,-1.8992,-1.9475,-1.9798,-1.9798,-1.9798,0.0,0.0,0.0,0.0,0.0,0.0,0.0,0.0,0.0,0.0,0.0,0.0,0.0,0.0,0.0,0.0,0.0,0.0,0.0,0.0,0.0,0.0,0.0,0.0,0.0,0.0,0.0,0.0,0.0,0.0,0.0,0.0,0.0,0.0,0.0,0.0,0.0,0.0,0.0,0.0,0.0,0.0,0.0,0.0,0.0,0.0,0.0,0.0,0.0,0.0,0.0,0.0,0.0,0.0,0.0,0.0,0.0,0.0,0.0,0.0,0.0,0.0,0.0,0.0,0.0,0.0,0.0,0.0,0.0,0.0,0.0,0.0,0.0,0.0,0.0,0.0,0.0,0.0,0.0,0.0,0.0,0.0,0.0,0.0,0.0,0.0,0.0,0.0,0.0,0.0,0.0,0.0,0.0,0.0,0.0,0.0,0.0,0.0,0.0,0.0,0.0,0.0,-1.9798,-1.9798,-1.9747,-1.9747,-1.9798,-1.9747,-1.9747,-1.9798,-1.9798,-1.9798,0.0,0.0,0.0,0.0,0.0,0.0,0.0,0.0,0.0,0.0,0.0,0.0,0.0,0.0,0.0,0.0,0.0,0.0,0.0,0.0,0.0,0.0,0.0,0.0,0.0,0.0,0.0,0.0,0.0,0.0,0.0,0.0,0.0,0.0,0.0,0.0,0.0,0.0,0.0,0.0,0.0,0.0,0.0,0.0,0.0,0.0,0.0,0.0,0.0,0.0,0.0,0.0,0.0,0.0,0.0,0.0,0.0,0.0,0.0,0.0,0.0,0.0,0.0,0.0,0.0,0.0,0.0,0.0,0.0,0.0,0.0,0.0,0.0,0.0,0.0,0.0,0.0,0.0,0.0,0.0,0.0,0.0,0.0,0.0,0.0,0.0,0.0,0.0,0.0,0.0,0.0,0.0,0.0,0.0,0.0,0.0,0.0,0.0,0.0,0.0,0.0,0.0,-1.9798,-1.9631,-1.915,-1.9527,-1.9592,-1.915,-1.9527,-1.9798,-1.9798,0.0,0.0,0.0,0.0,0.0,0.0,0.0,0.0,0.0,0.0,0.0,0.0,0.0,0.0,0.0,0.0,0.0,0.0,0.0,0.0,0.0,0.0,0.0,0.0,0.0,0.0,0.0,0.0,0.0,0.0,0.0,0.0,0.0,0.0,0.0,0.0,0.0,0.0,0.0,0.0,0.0,0.0,0.0,0.0,0.0,0.0,0.0,0.0,0.0,0.0,0.0,0.0,0.0,0.0,0.0,0.0,0.0,0.0,0.0,0.0,0.0,0.0,0.0,0.0,0.0,0.0,0.0,0.0,0.0,0.0,0.0,0.0,0.0,0.0,0.0,0.0,0.0,0.0,0.0,0.0,0.0,0.0,0.0,0.0,0.0,0.0,0.0,0.0,0.0,0.0,0.0,0.0,0.0,0.0,0.0,0.0,0.0,0.0,0.0,0.0,0.0,0.0,-2.0388,-2.0338,-2.0167,-1.966,-2.006,-2.0051,-1.9376,-1.98,-1.9999,-1.9811,0.0,0.0,0.0,0.0,0.0,0.0,0.0,0.0,0.0,0.0,0.0,0.0,0.0,0.0,0.0,0.0,0.0,0.0,0.0,0.0,0.0,0.0,0.0,0.0,0.0,0.0,0.0,0.0,0.0,0.0,0.0,0.0,0.0,0.0,0.0,0.0,0.0,0.0,0.0,0.0,0.0,0.0,0.0,0.0,0.0,0.0,0.0,0.0,0.0,0.0,0.0,0.0,0.0,0.0,0.0,0.0,0.0,0.0,0.0,0.0,0.0,0.0,0.0,0.0,0.0,0.0,0.0,0.0,0.0,0.0,0.0,0.0,0.0,0.0,0.0,0.0,0.0,0.0,0.0,0.0,0.0,0.0,0.0,0.0,0.0,0.0,0.0,0.0,0.0,0.0,0.0,0.0,0.0,0.0,0.0,0.0,0.0,0.0,0.0,0.0,0.0,0.0,-2.1493,-2.1493,-2.1493,-2.1493,-2.1493,-2.1267,-2.0769,-2.0731,-2.0426,0.0,0.0,0.0,0.0,0.0,0.0,0.0,0.0,0.0,0.0,0.0,0.0,0.0,0.0,0.0,0.0,0.0,0.0,0.0,0.0,0.0,0.0,0.0,0.0,0.0,0.0,0.0,0.0,0.0,0.0,0.0,0.0,0.0,0.0,0.0,0.0,0.0,0.0,0.0,0.0,0.0,0.0,0.0,0.0,0.0,0.0,0.0,0.0,0.0,0.0,0.0,0.0,0.0,0.0,0.0,0.0,0.0,0.0,0.0,0.0,0.0,0.0,0.0,0.0,0.0,0.0,0.0,0.0,0.0,0.0,0.0,0.0,0.0,0.0,0.0,0.0,0.0,0.0,0.0,0.0,0.0,0.0,0.0,0.0,0.0,0.0,0.0,0.0,0.0,0.0,0.0,0.0,0.0,0.0,0.0,0.0,0.0,0.0,0.0,0.0,0.0,0.0,0.0,-2.1543,-2.1493,-2.1493,-2.1493,-2.1493,-2.143,-2.1255,-2.1242,-2.1179,-2.1004,0.0,0.0,0.0,0.0,0.0,0.0,0.0,0.0,0.0,0.0,0.0,0.0,0.0,0.0,0.0,0.0,0.0,0.0,0.0,0.0,0.0,0.0,0.0,0.0,0.0,0.0,0.0,0.0,0.0,0.0,0.0,0.0,0.0,0.0,0.0,0.0,0.0,0.0,0.0,0.0,0.0,0.0,0.0,0.0,0.0,0.0,0.0,0.0,0.0,0.0,0.0,0.0,0.0,0.0,0.0,0.0,0.0,0.0,0.0,0.0,0.0,0.0,0.0,0.0,0.0,0.0,0.0,0.0,0.0,0.0,0.0,0.0,0.0,0.0,0.0,0.0,0.0,0.0,0.0,0.0,0.0,0.0,0.0,0.0,0.0,0.0,0.0,0.0,0.0,0.0,0.0,0.0,0.0,0.0,0.0,0.0,0.0,0.0,0.0,0.0,0.0,0.0,-2.2184,-2.2146,-2.2146,-2.2146,-2.2146,-2.2058,-2.1832,-2.182,-2.1719,-2.1506,0.0,0.0,0.0,0.0,0.0,0.0,0.0,0.0,0.0,0.0,0.0,0.0,0.0,0.0,0.0,0.0,0.0,0.0,0.0,0.0,0.0,0.0,0.0,0.0,0.0,0.0,0.0,0.0,0.0,0.0,0.0,0.0,0.0,0.0,0.0,0.0,0.0,0.0,0.0,0.0,0.0,0.0,0.0,0.0,0.0,0.0,0.0,0.0,0.0,0.0,0.0,0.0,0.0,0.0,0.0,0.0,0.0,0.0,0.0,0.0,0.0,0.0,0.0,0.0,0.0,0.0,0.0,0.0,0.0,0.0,0.0,0.0,0.0,0.0,0.0,0.0,0.0,0.0,0.0,0.0,0.0,0.0,0.0,0.0,0.0,0.0,0.0,0.0,0.0,0.0,0.0,0.0,0.0,0.0,0.0,0.0,0.0,0.0,0.0,0.0,0.0,0.0,-2.3185,-2.3185,-2.3185,-2.3185,-2.3125,-2.2924,-2.2435,-2.2443,-2.2286,-2.1781,0.0,0.0,0.0,0.0,0.0,0.0,0.0,0.0,0.0,0.0,0.0,0.0,0.0,0.0,0.0,0.0,0.0,0.0,0.0,0.0,0.0,0.0,0.0,0.0,0.0,0.0,0.0,0.0,0.0,0.0,0.0,0.0,0.0,0.0,0.0,0.0,0.0,0.0,0.0,0.0,0.0,0.0,0.0,0.0,0.0,0.0,0.0,0.0,0.0,0.0,0.0,0.0,0.0,0.0,0.0,0.0,0.0,0.0,0.0,0.0,-2.4937,-2.4118,0.0,0.0,0.0,0.0,0.0,0.0,0.0,0.0,0.0,0.0,0.0,0.0,0.0,0.0,0.0,0.0,0.0,0.0,0.0,0.0,0.0,0.0,0.0,0.0,0.0,0.0,0.0,0.0,0.0,0.0,0.0,0.0,0.0,0.0,0.0,0.0,0.0,0.0,0.0,0.0,-2.406,-2.406,-2.406,-2.406,-2.3484,-2.3027,-2.2915,-2.3528,-2.3825,-2.3707,-2.4236,0.0,0.0,0.0,0.0,0.0,0.0,0.0,0.0,0.0,0.0,0.0,0.0,0.0,0.0,0.0,0.0,0.0,0.0,0.0,0.0,0.0,0.0,0.0,0.0,0.0,0.0,0.0,0.0,0.0,0.0,0.0,0.0,0.0,0.0,0.0,0.0,0.0,0.0,0.0,0.0,0.0,0.0,0.0,0.0,0.0,0.0,0.0,0.0,0.0,0.0,0.0,0.0,0.0,0.0,0.0,0.0,0.0,0.0,0.0,-2.5494,-2.5007,0.0,0.0,0.0,0.0,0.0,0.0,0.0,0.0,0.0,0.0,0.0,0.0,0.0,0.0,0.0,0.0,0.0,0.0,0.0,0.0,0.0,0.0,0.0,0.0,0.0,0.0,0.0,0.0,0.0,0.0,0.0,0.0,0.0,0.0,0.0,0.0,0.0,0.0,0.0,0.0,-2.435,-2.4624,-2.4851,-2.4851,-2.4439,-2.4208,-2.4208,-2.461,-2.4851,-2.4851,-2.5175,0.0,0.0,0.0,0.0,0.0,0.0,0.0,0.0,0.0,0.0,0.0,0.0,0.0,0.0,0.0,0.0,0.0,0.0,0.0,0.0,0.0,0.0,0.0,0.0,0.0,0.0,0.0,0.0,0.0,0.0,0.0,0.0,0.0,0.0,0.0,0.0,0.0,0.0,0.0,0.0,0.0,0.0,0.0,0.0,0.0,0.0,0.0,0.0,0.0,0.0,0.0,0.0,0.0,-2.6375,-2.6108,-2.6669,-2.6054,-2.6122,-2.6669,-2.6054,-2.6054,-2.6457,-2.5837,0.0,0.0,0.0,0.0,0.0,0.0,0.0,0.0,0.0,0.0,0.0,0.0,0.0,0.0,0.0,0.0,0.0,0.0,0.0,0.0,0.0,0.0,-2.4851,-2.5618,-2.5783,-2.5783,-2.5783,0.0,0.0,0.0,0.0,0.0,0.0,0.0,0.0,0.0,0.0,0.0,-2.4738,-2.5231,-2.5563,-2.5563,-2.5453,-2.5398,-2.5398,-2.5508,-2.5563,-2.5563,-2.5728,-2.5728,0.0,0.0,0.0,0.0,0.0,0.0,0.0,0.0,0.0,0.0,0.0,0.0,0.0,0.0,0.0,0.0,0.0,0.0,0.0,0.0,0.0,0.0,0.0,0.0,0.0,0.0,0.0,0.0,0.0,0.0,0.0,0.0,-2.5287,-2.5398,0.0,0.0,0.0,0.0,0.0,0.0,0.0,0.0,0.0,0.0,0.0,0.0,0.0,-2.7625,-2.7625,-2.7509,-2.7509,-2.7625,-2.7408,-2.7357,-2.7458,-2.7357,-2.7357,-2.7458,-2.7357,0.0,-2.651,-2.6404,0.0,0.0,0.0,0.0,0.0,0.0,0.0,0.0,0.0,0.0,0.0,0.0,0.0,0.0,0.0,0.0,0.0,0.0,0.0,0.0,0.0,0.0,-2.639,-2.7137,-2.7291,-2.7291,-2.7291,-2.6322,-2.5342,-2.5287,-2.5231,-2.5007,0.0,0.0,0.0,0.0,0.0,0.0,-2.6122,-2.6283,-2.6336,-2.6336,-2.5783,-2.5398,-2.5398,-2.6014,-2.6336,-2.6336,-2.6982,-2.7034,-2.6404,-2.6982,0.0,0.0,0.0,0.0,0.0,0.0,0.0,0.0,0.0,0.0,0.0,0.0,0.0,0.0,0.0,0.0,0.0,0.0,0.0,0.0,0.0,0.0,0.0,0.0,0.0,0.0,0.0,0.0,0.0,-2.6014,-2.6162,-2.6587,-2.6283,-2.6162,0.0,0.0,0.0,0.0,0.0,0.0,0.0,0.0,0.0,-2.7625,-2.7625,-2.7625,-2.7625,-2.7625,-2.7625,-2.7625,-2.7625,-2.7625,-2.7625,-2.7625,-2.7625,-2.7625,-2.7625,-2.7408,-2.71,-2.71,-2.693,-2.6654,0.0,0.0,0.0,0.0,-2.5728,-2.5453,-2.5837,-2.6014,-2.6014,-2.6014,0.0,0.0,0.0,0.0,0.0,0.0,0.0,-2.5175,-2.6229,-2.651,-2.6669,-2.7408,-2.7625,-2.7625,-2.7625,-2.7086,-2.6481,-2.6122,-2.6014,-2.5783,-2.5063,-2.5231,0.0,0.0,0.0,-2.6587,-2.651,-2.6878,-2.71,-2.71,-2.6811,-2.6654,-2.6654,-2.6916,-2.71,-2.71,-2.7408,-2.7473,-2.7137,-2.7408,-2.7458,0.0,0.0,0.0,0.0,0.0,0.0,0.0,0.0,0.0,0.0,0.0,0.0,0.0,0.0,0.0,0.0,0.0,0.0,0.0,0.0,0.0,0.0,0.0,0.0,0.0,0.0,0.0,0.0,-2.6774,-2.6982,-2.7509,-2.71,-2.6982,0.0,0.0,0.0,0.0,0.0,0.0,-2.7625,-2.7625,-2.7625,-2.7625,-2.7625,-2.7625,-2.7625,-2.7625,-2.7625,-2.7625,-2.7625,-2.7625,-2.7625,-2.7625,-2.7625,-2.7625,-2.7625,-2.7625,-2.7625,-2.7625,-2.7625,-2.7625,-2.7625,-2.7255,-2.6774,-2.6774,-2.6443,-2.6054,-2.6602,-2.6774,-2.6774,-2.6774,-2.6669,-2.6404,-2.5837,0.0,0.0,0.0,0.0,-2.5837,-2.6602,-2.6774,-2.693,-2.7458,-2.7625,-2.7625,-2.7625,-2.7625,-2.7458,-2.6878,-2.6774,-2.6549,-2.5783,-2.6122,0.0,-2.5728,-2.6602,-2.7203,-2.6826,-2.7255,-2.7625,-2.7625,-2.7625,-2.7625,-2.7625,-2.7625,-2.7625,-2.7625,-2.7625,-2.7625,-2.7625,-2.7625,-2.7625,-2.7625,0.0,0.0,0.0,0.0,0.0,0.0,0.0,0.0,0.0,0.0,0.0,0.0,0.0,0.0,0.0,0.0,0.0,0.0,0.0,0.0,0.0,0.0,0.0,0.0,0.0,0.0,0.0,0.0,0.0,-2.7625,-2.7575,0.0,0.0,0.0,0.0,-2.7625,-2.7625,-2.7625,-2.7625,-2.7625,-2.7625,-2.7625,-2.7625,-2.7625,-2.7625,-2.7625,-2.7625,-2.7625,-2.7625,-2.7625,-2.7625,-2.7625,-2.7625,-2.7625,-2.7625,-2.7625,-2.7625,-2.7625,-2.7625,-2.7625,-2.7625,-2.7575,-2.756,-2.756,-2.7509,-2.7509,-2.7509,-2.756,-2.756,-2.756,-2.7086,-2.651,-2.6457,-2.596,0.0,0.0,-2.6457,-2.6616,-2.7357,-2.756,-2.756,-2.7575,-2.7625,-2.7625,-2.7625,-2.7625,-2.7575,-2.756,-2.756,-2.7306,-2.6563,0.0,-2.651,-2.6457,-2.651,-2.6774,-2.7458,-2.7575,-2.7625,-2.7625,-2.7625,-2.7625,-2.7625,-2.7625,-2.7625,-2.7625,-2.7625,-2.7625,-2.7625,-2.7625,-2.7625,-2.7625,-2.7625,0.0,0.0,0.0,0.0,0.0,0.0,0.0,0.0,0.0,0.0,0.0,0.0,0.0,0.0,0.0,0.0,0.0,0.0,0.0,0.0,0.0,0.0,0.0,0.0,0.0,0.0,0.0,0.0,-2.7625,-2.7625,0.0,-2.7625,-2.7625,-2.7625,-2.7625,-2.7625,-2.7625,-2.7625,-2.7625,-2.7625,-2.7625,-2.7625,-2.7625,-2.7625,-2.7625,-2.7625,-2.7625,-2.7625,-2.7625,-2.7625,-2.8038,-2.8233,-2.8263,-2.8682,-2.8861,-2.8861,-2.8861,-2.8404,-2.7625,-2.7625,-2.7625,-2.7625,-2.7625,-2.7625,-2.7625,-2.7625,-2.7625,-2.7625,-2.7625,-2.7705,-2.7853,-2.7853,-2.7974,-2.8188,-2.8419,-2.8473,-2.8542,-2.8808,-2.8861,-2.8861,-2.8861,-2.8861,-2.8861,-2.8861,-2.8861,-2.8861,-2.8861,-2.821,-2.7524,-2.7255,-2.7203,-2.7203,-2.7203,-2.7203,-2.7306,-2.7575,-2.7625,-2.7625,-2.7625,-2.7625,-2.7625,-2.7625,-2.7625,-2.7625,-2.7625,-2.7625,-2.7625,-2.7625,-2.7625,-2.7625,-2.7625,-2.7625,-2.781,0.0,0.0,0.0,0.0,0.0,0.0,0.0,0.0,0.0,0.0,0.0,0.0,0.0,0.0,0.0,0.0,0.0,0.0,0.0,0.0,0.0,0.0,0.0,0.0,0.0,-2.7625,-2.7625,-2.7625,-2.7625,-2.7625,-2.7625,-2.7625,-2.7625,-2.7625,-2.7625,-2.7625,-2.7625,-2.7625,-2.7625,-2.7625,-2.7799,-2.7919,-2.7919,-2.8143,-2.8248,-2.8248,-2.8248,-2.8248,-2.8263,-2.8727,-2.8936,-2.8951,-2.94,-2.9579,-2.9579,-2.9579,-2.9056,-2.8248,-2.8248,-2.8248,-2.8248,-2.8248,-2.8248,-2.8248,-2.8248,-2.8248,-2.8248,-2.8248,-2.8562,-2.8936,-2.8936,-2.9235,-2.9579,-2.9579,-2.9579,-2.9579,-2.9579,-2.9579,-2.9579,-2.9579,-2.9579,-2.9579,-2.9579,-2.9579,-2.9579,-2.9579,-2.8861,-2.8248,-2.8248,-2.8248,-2.8248,-2.8248,-2.8248,-2.8248,-2.8248,-2.8053,-2.7919,-2.7919,-2.7709,-2.7625,-2.7625,-2.7625,-2.7625,-2.7625,-2.7625,-2.7625,-2.7625,-2.7625,-2.7625,-2.7625,-2.7625,-2.7981,-2.8801,0.0,0.0,0.0,0.0,0.0,0.0,0.0,0.0,0.0,0.0,0.0,0.0,0.0,0.0,0.0,0.0,0.0,0.0,0.0,0.0,0.0,0.0,0.0,-2.7625,-2.7625,-2.7625,-2.7625,-2.7625,-2.7625,-2.7625,-2.7625,-2.7625,-2.7655,-2.7655,-2.767,-2.7685,-2.7685,-2.7685,-2.7685,-2.8278,-2.8622,-2.8622,-2.9265,-2.9579,-2.9579,-2.9579,-2.9579,-2.9579,-2.9609,-2.9609,-2.9609,-2.9624,-2.9639,-2.9639,-2.9639,-2.9639,-2.9639,-2.9594,-2.9579,-2.9579,-2.9579,-2.9579,-2.9579,-2.9579,-2.9579,-2.9579,-2.9579,-2.9594,-2.9609,-2.9609,-2.9624,-2.9639,-2.9639,-2.9639,-2.9639,-2.9639,-2.9639,-2.9639,-2.9639,-2.9639,-2.9639,-2.9639,-2.9639,-2.9639,-2.9639,-2.9639,-2.9624,-2.9594,-2.9579,-2.9579,-2.9579,-2.9579,0.0,-2.9579,-2.9026,-2.8622,-2.8622,-2.8038,-2.7685,-2.7685,-2.7685,-2.7619,-2.7655,-2.7655,-2.764,-2.7625,-2.7625,-2.7625,-2.7625,-2.7625,-2.8208,-2.9362,0.0,0.0,0.0,0.0,0.0,0.0,0.0,0.0,0.0,0.0,0.0,0.0,0.0,0.0,0.0,0.0,0.0,0.0,0.0,0.0,0.0,-2.8323,-2.8143,-2.7685,-2.7625,-2.7625,-2.7625,-2.7625,-2.7625,-2.7625,-2.7625,-2.7784,-2.8278,-2.8323,-2.8532,-2.8996,-2.9026,-2.9026,-2.9026,-2.9205,-2.931,-2.931,-2.949,-2.9579,-2.9579,-2.9579,-2.9579,-2.9594,-3.0043,-3.0253,-3.0283,-3.0776,-3.1001,-3.1001,-3.1001,-3.1001,-3.0911,-2.9953,-2.9579,-2.9579,-2.9579,-2.9579,-2.9579,-2.9579,-2.9579,-2.9579,-2.9579,-2.9879,-3.0253,-3.0253,-3.0597,-3.1001,-3.1001,-3.1001,-3.1001,-3.1001,-3.1001,-3.1001,-3.1001,-3.1001,-3.1001,-3.1001,-3.1001,-3.1001,-3.1001,-3.1001,-3.0687,-2.9744,-2.9579,-2.9579,-2.9579,-2.9579,-2.9579,-2.9579,-2.943,-2.931,-2.931,-2.9146,-2.9026,-2.9026,-2.9026,-2.8831,-2.8353,-2.8323,-2.8098,-2.764,-2.7625,-2.7625,-2.7625,-2.8042,-2.8463,0.0,0.0,0.0,0.0,0.0,0.0,0.0,0.0,0.0,0.0,0.0,0.0,0.0,0.0,0.0,0.0,0.0,0.0,0.0,0.0,0.0,0.0,-2.9011,-2.8861,-2.8472,-2.8464,-2.8464,-2.8464,-2.8464,-2.8464,-2.8464,-2.8464,-2.8577,-2.8981,-2.9011,-2.9175,-2.9564,-2.9579,-2.9579,-2.9579,-2.9834,-2.9968,-2.9968,-3.0253,-3.0402,-3.0402,-3.0402,-3.0402,-3.0417,-3.0776,-3.0941,-3.0956,-3.1302,-3.1482,-3.1482,-3.1482,-3.1482,-3.1465,0.0,0.0,0.0,0.0,-3.0402,-3.0402,-3.0402,-3.0402,-3.0402,-3.0402,-3.0642,-3.0941,-3.0941,-3.121,-3.1482,-3.1482,-3.1482,-3.1482,-3.1482,-3.1482,-3.1482,-3.1482,-3.1482,-3.1482,-3.1482,-3.1482,-3.1482,-3.1482,-3.1482,0.0,-3.0537,-3.0402,-3.0402,-3.0402,-3.0402,-3.0402,-3.0402,-3.0148,-2.9968,-2.9968,-2.9729,-2.9579,-2.9579,-2.9579,0.0,0.0,0.0,-2.8831,-2.8427,-2.8158,0.0,0.0,0.0,-2.8369,-2.8808,-2.9207,0.0,0.0,-3.1221,-3.1199,0.0,0.0,0.0,0.0,0.0,0.0,0.0,0.0,0.0,0.0,0.0,0.0,0.0,0.0,0.0,0.0,-2.9684,-2.9714,-2.9789,-2.9804,-2.9744,-2.9609,-2.9579,-2.9579,-2.9579,-2.9579,-2.9609,-2.9684,-2.9684,-2.9714,-2.9804,-2.9804,0.0,0.0,0.0,-3.0612,-3.0612,-3.1225,-3.1482,-3.1482,-3.1482,-3.1482,-3.1482,-3.1482,-3.1482,-3.1482,-3.1482,-3.1482,-3.1482,-3.1482,-3.1482,-3.1482,-3.1482,-3.1482,-3.1482,-3.1482,-3.1482,-3.1482,-3.1482,0.0,0.0,-3.1482,-3.1482,-3.1482,-3.1482,-3.1482,-3.1482,-3.1482,-3.1482,-3.1482,-3.1482,-3.1482,-3.1482,-3.1482,-3.1482,-3.1482,-3.1482,-3.1482,-3.1482,-3.1482,-3.1482,-3.1482,-3.1482,-3.1482,-3.1482,-3.1482,-3.1482,-3.1482,-3.1482,-3.1001,-3.0612,-3.0612,-3.0133,0.0,-2.9804,-2.9804,-2.9759,-2.9684,-2.9624,-2.9579,-2.9579,-2.9026,-2.8764,-2.8801,-2.8252,-2.8366,-2.9234,-2.9323,-3.0016,-3.1191,-3.1199,-3.1048,0.0,0.0,0.0,0.0,0.0,0.0,0.0,0.0,0.0,0.0,0.0,0.0,0.0,0.0,0.0,-3.0238,-3.0328,-3.0522,-3.1076,-3.115,-3.0761,-2.9699,-2.9579,-2.9579,-2.9579,-2.9579,-2.9789,-3.0283,-3.0328,-3.0567,-3.112,-3.115,-3.115,-3.115,-3.127,-3.1345,-3.1345,-3.1407,-3.1482,-3.1482,-3.1482,0.0,-3.1482,-3.1482,-3.1482,-3.1482,-3.1482,-3.1482,-3.1482,-3.1482,-3.1482,-3.1482,-3.1482,-3.1482,-3.1482,-3.1482,-3.1482,-3.1482,-3.1482,-3.1482,-3.1482,-3.1482,-3.1482,-3.1482,-3.1482,-3.1482,0.0,-3.1482,-3.1482,-3.1482,-3.1482,-3.1482,-3.1482,-3.1482,-3.1482,-3.1482,-3.1482,-3.1482,-3.1482,-3.1482,-3.1482,-3.1482,-3.1482,-3.1482,-3.1482,-3.1482,-3.1482,-3.1482,-3.1482,-3.1362,-3.1345,-3.1345,-3.1225,-3.115,-3.115,-3.115,-3.0911,-3.0357,-2.9864,-2.9579,-2.9579,-2.946,-2.9675,-3.0186,-3.0099,-3.062,-3.1785,-3.0193,-3.0016,-3.1191,-3.1204,-3.0185,0.0,0.0,0.0,0.0,0.0,0.0,0.0,0.0,0.0,0.0,0.0,-3.0148,-3.0492,0.0,-3.0657,-3.0971,-3.1016,-3.115,-3.1422,-3.1482,-3.1228,-3.0642,-3.0552,-3.0552,-3.0552,-3.0552,-3.0687,-3.1001,-3.1016,-3.1165,-3.1452,-3.1482,-3.1482,-3.1482,-3.1482,-3.1482,-3.1482,-3.1482,-3.1482,-3.1482,-3.1482,-3.1482,-3.1482,-3.1482,-3.1482,-3.1482,-3.1482,-3.1482,-3.1482,-3.1482,-3.1482,-3.1482,-3.1482,-3.1482,-3.1482,-3.1482,-3.1482,-3.1482,-3.1482,-3.1482,-3.1482,-3.1482,-3.1482,-3.1482,-3.1482,-3.1482,-3.1482,-3.1482,-3.1482,-3.1482,-3.1482,-3.1482,-3.1482,-3.1482,-3.1482,-3.1482,-3.1482,-3.1482,-3.1482,-3.1482,-3.1482,-3.1482,-3.1482,-3.1482,-3.1482,-3.1482,-3.1482,-3.1482,-3.1482,-3.1482,-3.1482,-3.1482,-3.1482,-3.1482,-3.1482,-3.1482,-3.139,-3.1046,-3.0731,-3.0552,-3.0552,-3.0223,-3.0177,-3.051,-3.0593,-3.1047,-3.2006,-3.1466,-3.1594,-3.2303,-3.3032,-3.1972,0.0,0.0,0.0,0.0,0.0,0.0,0.0,-2.9864,-3.0103,-3.0597,-3.0702,-3.0866,-3.1377,-3.1482,-3.1482,-3.1482,-3.1482,-3.1482,-3.1482,-3.1482,-3.1482,-3.1482,-3.1482,-3.1482,-3.1482,-3.1482,-3.1482,-3.1482,-3.1482,-3.1482,-3.1482,-3.1482,-3.1482,-3.1482,-3.1482,-3.1482,-3.1482,-3.1601,-3.1661,-3.1676,-3.1854,-3.1913,-3.1913,-3.1913,-3.1913,-3.1913,-3.1913,-3.1913,-3.1913,-3.1913,-3.1913,-3.1913,-3.1913,-3.1913,-3.1898,-3.1764,-3.1809,-3.1913,-3.1913,-3.1913,-3.1913,-3.1913,-3.1913,-3.1884,-3.1706,-3.1661,-3.1704,-3.1511,-3.1482,-3.1482,-3.1482,-3.1482,-3.1482,-3.1482,-3.1482,-3.1482,-3.1482,-3.1482,-3.1482,-3.1482,-3.1482,-3.1482,-3.1482,-3.1482,-3.1482,-3.1482,-3.1482,-3.1482,-3.1482,-3.1482,-3.1482,-3.1482,-3.1482,-3.1482,-3.1482,-3.1482,-3.1482,-3.1482,-3.1482,-3.1482,-3.1482,-3.1001,-3.0758,-3.091,-3.0944,-3.1306,-3.1935,-3.2814,-3.3454,-3.3856,-3.504,-3.4336,-2.9445,-2.9415,-2.937,-2.9445,-2.9939,-3.0402,0.0,-3.0881,-3.1345,-3.1347,-3.1362,-3.1377,-3.1467,-3.1482,-3.1482,-3.1482,-3.1482,-3.1482,-3.1482,-3.1482,-3.1482,-3.1482,-3.1482,-3.1482,-3.1482,-3.1482,-3.1482,-3.1482,-3.1482,-3.1482,-3.1482,-3.1482,-3.1482,-3.1482,-3.1482,-3.1482,-3.1482,-3.2108,-3.2407,-3.2422,-3.2991,-3.3275,-3.3275,-3.3275,-3.3275,-3.3275,-3.3275,-3.3275,-3.3275,-3.3275,-3.3275,-3.3275,-3.3275,-3.3275,-3.32,-3.2617,-3.2766,-3.3275,-3.3275,-3.3275,-3.3275,-3.3275,-3.3275,-3.317,-3.2587,-3.2407,-3.2273,-3.1704,-3.1482,-3.1482,-3.1482,-3.1482,-3.1482,-3.1482,-3.1482,-3.1482,-3.1482,-3.1482,-3.1482,-3.1482,-3.1482,-3.1482,-3.1482,-3.1482,-3.1482,-3.1482,-3.1482,-3.1482,-3.1482,-3.1482,-3.1482,-3.1482,-3.1482,-3.1482,-3.1482,-3.1482,-3.1482,-3.1482,-3.1482,-3.1482,-3.1482,-3.1407,-3.1675,-3.2369,-3.2346,-3.2714,-3.3358,-3.3917,-3.459,-3.5347,-3.5496,-3.5421,-2.9579,-3.0133,-3.0627,-3.0223,-3.0612,-3.1106,-3.1106,-3.133,-3.1482,-3.1482,-3.1482,-3.1482,-3.1482,-3.1482,-3.1482,-3.1482,-3.1482,-3.1482,-3.1482,-3.1482,-3.1482,-3.1482,-3.181,-3.1958,-3.1511,-3.1482,-3.1482,-3.1482,-3.1884,-3.2108,-3.2108,-3.2467,-3.2677,-3.2677,-3.2677,-3.2677,-3.2677,-3.2946,-3.308,-3.3095,-3.3365,-3.3499,-3.3499,-3.3499,-3.3499,-3.3499,-3.3499,-3.3499,-3.3499,-3.3499,-3.3499,-3.3499,-3.3499,-3.3724,-3.3978,-3.332,-3.326,-3.3499,-3.3499,-3.3499,-3.3499,-3.3499,-3.3499,-3.344,-3.317,-3.308,-3.3021,-3.2751,-3.2677,-3.2677,-3.2677,-3.2677,-3.2677,-3.2677,-3.2677,-3.2677,-3.2677,-3.2677,-3.2677,-3.2677,-3.2677,-3.2677,-3.2677,-3.2362,-3.2108,-3.2108,-3.1779,-3.1482,-3.1482,-3.1482,-3.1482,-3.1482,-3.1482,-3.1482,-3.1482,-3.1482,-3.1482,-3.1482,-3.1482,-3.1482,-3.1482,-3.1482,-3.164,-3.1951,-3.2382,-3.2749,-3.3039,-3.4016,-3.4314,-3.4024,-3.4284,-3.4011,-2.9755,-3.0569,-3.1353,-3.1108,-3.1569,-3.2078,-3.2078,-3.2078,-3.2078,-3.2078,-3.2078,-3.2078,-3.2078,-3.2078,-3.2078,-3.2078,-3.2078,-3.2078,-3.2078,-3.2078,-3.2078,-3.2078,-3.2497,-3.2602,-3.2123,-3.2078,-3.2078,-3.2078,-3.2512,-3.2781,-3.2781,-3.3245,-3.3499,-3.3499,-3.3499,-3.3499,-3.3499,-3.3679,-3.3769,-3.3769,-3.3963,-3.4053,-3.4053,-3.4053,-3.4053,-3.4053,-3.4053,-3.4053,-3.4053,-3.4053,-3.4053,-3.4053,-3.4053,-3.4337,-3.4696,-3.4218,-3.4053,-3.4053,-3.4053,-3.4053,-3.4053,-3.4053,-3.4053,-3.4023,-3.3829,-3.3769,-3.3724,-3.3544,-3.3499,-3.3499,-3.3499,-3.3499,-3.3499,-3.3499,-3.3499,-3.3499,-3.3499,-3.3499,-3.3499,-3.3499,-3.3499,-3.3499,-3.3499,-3.3095,-3.2781,-3.2781,-3.2377,-3.1943,-3.1526,-3.1482,-3.1482,-3.1482,-3.1482,-3.1482,-3.1482,-3.1482,-3.1482,-3.1482,-3.1482,-3.1482,-3.1482,-3.1482,-3.1482,-3.1482,-3.2007,-3.2272,-3.2272,-3.3271,-3.3547,-3.3108,-3.3026,-3.2868,-3.0015,-3.0719,-3.1395,-3.2258,-3.2946,-3.344,-3.344,-3.344,-3.344,-3.344,-3.344,-3.344,-3.344,-3.344,-3.344,-3.344,-3.344,-3.344,-3.344,-3.344,-3.344,-3.344,-3.3455,-3.3455,-3.344,-3.344,-3.344,-3.344,-3.3455,-3.3469,-3.3469,-3.3484,-3.3499,-3.3499,-3.3499,-3.3499,-3.3499,-3.4128,-3.4442,-3.4457,-3.513,-3.5444,-3.5444,-3.5444,-3.5444,-3.5444,-3.5444,-3.5444,-3.5444,-3.5444,-3.5444,-3.5444,-3.5444,-3.5459,-3.5474,-3.5444,-3.5444,-3.5444,-3.5444,-3.5444,-3.5444,-3.5444,-3.5444,-3.5325,-3.4651,-3.4442,-3.4307,-3.3679,-3.3499,-3.3499,-3.3499,-3.3499,-3.3499,-3.3499,-3.3499,-3.3499,-3.3499,-3.3499,-3.3499,-3.3499,-3.3499,-3.3499,-3.3499,-3.3484,-3.3469,-3.3469,-3.344,-3.2976,-3.1704,-3.1482,-3.1482,-3.1482,-3.1482,-3.1482,-3.1482,-3.1482,-3.1482,-3.1482,-3.1482,-3.1482,-3.1482,-3.1482,-3.1482,-3.1482,-3.1524,-3.1524,-3.1524,-3.1582,-3.2276,-3.3529,-3.2216,-3.2974,-2.938,-2.9827,-3.0339,-3.0623,-3.168,-3.2553,-3.2553,-3.3022,-3.3499,-3.3499,-3.3499,-3.3499,-3.3499,-3.3499,-3.3499,-3.3499,-3.3499,-3.3499,-3.3499,-3.3499,-3.3499,-3.3499,-3.3873,-3.4143,-3.4143,-3.3754,-3.3499,-3.3499,-3.3903,-3.4143,-3.4143,-3.4577,-3.4831,-3.4831,-3.4831,-3.4831,-3.4831,-3.5055,-3.516,-3.516,-3.5385,-3.5504,-3.5504,-3.5504,-3.5504,-3.5504,-3.5504,-3.5504,-3.5504,-3.5504,-3.5504,-3.5504,-3.5504,-3.5504,-3.5504,-3.5504,-3.5504,-3.5504,-3.5504,-3.5504,-3.5504,-3.5504,-3.5504,-3.5459,-3.5235,-3.516,-3.5115,-3.4891,-3.4831,-3.4831,-3.4831,-3.4831,-3.4831,-3.4831,-3.4831,-3.4831,-3.4831,-3.4831,-3.4831,-3.4831,-3.4831,-3.4831,-3.4831,-3.4457,-3.3993,-3.3559,-3.3499,-3.3335,-3.2901,-3.2841,-3.2841,-3.2841,-3.2841,-3.2662,-3.2213,-3.2183,-3.2003,-3.1497,-3.1482,-3.1482,-3.1482,-3.1482,-3.1482,-3.1482,-3.1482,-3.1482,-3.1482,-3.2007,-3.2216,-3.2219,-3.2707,-3.2882,-2.8671,-2.9238,-2.9807,-3.0294,-3.1608,-3.2752,-3.2752,-3.351,-3.4218,-3.4218,-3.4218,-3.4218,-3.4218,-3.4218,-3.4218,-3.4218,-3.4218,-3.4218,-3.4218,-3.4218,-3.4218,-3.4218,-3.4592,-3.4846,-3.4846,-3.4457,-3.4218,-3.4218,-3.4607,-3.4846,-3.4846,-3.5265,-3.5504,-3.5504,-3.5504,-3.5504,-3.5504,-3.5504,-3.5504,-3.5504,-3.5504,-3.5504,-3.5504,-3.5504,-3.5504,-3.5504,-3.5504,-3.5504,-3.5504,-3.5504,-3.5504,-3.5504,-3.5504,-3.5504,-3.5504,-3.5504,-3.5504,-3.5504,-3.5504,-3.5504,-3.5504,-3.5504,-3.5504,-3.5504,-3.5504,-3.5504,-3.5504,-3.5504,-3.5504,-3.5504,-3.5504,-3.5504,-3.5504,-3.5504,-3.5504,-3.5504,-3.5504,-3.5504,-3.5504,-3.5504,-3.5504,-3.5504,-3.5504,-3.513,-3.4696,-3.4277,-3.4218,-3.4038,-3.3559,-3.3499,-3.3499,-3.3499,-3.3499,-3.332,-3.2901,-3.2871,-3.2677,-3.2258,-3.2228,-3.2228,-3.2228,-3.2228,-3.2228,-3.2228,-3.2003,-3.1884,-3.1884,-3.2072,-3.1951,-3.1524,-3.2407,-3.2914,-2.8082,-2.8921,-2.9724,-3.1142,-3.2652,-3.3876,-3.3876,-3.4691,-3.5424,-3.5424,-3.5439,-3.5504,-3.5504,-3.5504,-3.5504,-3.5504,-3.5504,-3.5504,-3.5504,-3.5504,-3.5504,-3.5504,-3.5504,-3.5504,-3.5504,-3.5504,-3.5504,-3.5504,-3.5504,-3.5504,-3.5504,-3.5504,-3.5504,-3.5504,-3.5504,-3.5504,-3.5504,-3.5504,-3.5504,-3.5504,-3.5504,-3.5504,-3.5504,-3.5504,-3.5504,-3.5504,-3.5504,-3.5504,-3.5504,-3.5424,-3.5424,-3.5439,-3.5359,-3.5359,-3.5359,-3.5439,-3.5424,-3.5424,-3.5504,-3.5504,-3.5504,-3.5504,-3.5504,-3.5504,-3.5504,-3.5504,-3.5504,-3.5504,-3.5504,-3.5504,-3.5504,-3.5504,-3.5504,-3.5504,-3.5504,-3.5504,-3.5504,-3.5504,-3.5504,-3.5504,-3.5504,-3.5504,-3.5504,-3.5504,-3.5504,-3.5504,-3.5504,-3.504,-3.3769,-3.3604,-3.3604,-3.3604,-3.3604,-3.3589,-3.3544,-3.3544,-3.3529,-3.3499,-3.3499,-3.3499,-3.3499,-3.3499,-3.3499,-3.3499,-3.2886,-3.2557,-3.2557,-3.1943,-3.1571,-3.1571,-3.1511,-3.2889,-2.7386,-2.8015,-2.8647,-2.9417,-3.0745,-3.1888,-3.1888,-3.3171,-3.4394,-3.4394,-3.4986,-3.5504,-3.5504,-3.5504,-3.5504,-3.5504,-3.5504,-3.5504,-3.5504,-3.5504,-3.5504,-3.5504,-3.5504,-3.5504,-3.5504,-3.5504,-3.5504,-3.5504,-3.5504,-3.5504,-3.5504,-3.5504,-3.5504,-3.5504,-3.5504,-3.5504,-3.5504,-3.5504,-3.5504,-3.5504,-3.5504,-3.5504,-3.5504,-3.5504,-3.5504,-3.5504,-3.5504,-3.5504,-3.5424,-3.4691,-3.4394,-3.4312,-3.3602,-3.3325,-3.3394,-3.4109,-3.4394,-3.4461,-3.5213,-3.5504,-3.5504,-3.5504,-3.5504,-3.5504,-3.5504,-3.5504,-3.5504,-3.5504,-3.5504,-3.5504,-3.5504,-3.5504,-3.5504,-3.5504,-3.5504,-3.5504,-3.5504,-3.5504,-3.5504,-3.5504,-3.5504,-3.5504,-3.5504,-3.5504,-3.5504,-3.5504,-3.5504,-3.5385,-3.504,-3.4996,-3.4996,-3.4996,-3.4996,-3.4786,-3.4262,-3.4233,-3.4023,-3.3529,-3.3499,-3.3499,-3.3499,-3.3499,-3.3499,-3.3499,-3.3335,-3.3245,-3.3245,-3.308,-3.2991,-3.2976,-3.1959,-3.191,-2.7431,-2.7871,-2.8298,-2.9101,-3.0237,-3.118,-3.118,-3.2321,-3.338,-3.338,-3.4177,-3.4839,-3.4839,-3.5213,-3.5504,-3.5504,-3.5504,-3.5504,-3.5504,-3.5504,-3.5359,-3.4905,-3.4839,-3.4839,-3.4839,-3.4476,-3.4558,-3.5439,-3.5504,-3.5504,-3.5504,-3.5504,-3.5504,-3.5504,-3.5504,-3.5504,-3.5504,-3.5789,-3.5938,-3.5938,-3.6207,-3.6342,-3.6342,-3.5843,-3.5925,-3.6261,-3.5336,-3.5267,-3.5624,-3.4582,-3.4427,-3.4792,-3.4285,-3.4356,-3.4778,-3.5292,-3.5497,-3.558,-3.6112,-3.6342,-3.6252,-3.5684,-3.5504,-3.5504,-3.5504,-3.5504,-3.5504,-3.5504,-3.5504,-3.5504,-3.5504,-3.5504,-3.5504,-3.5504,-3.5504,-3.5504,-3.5504,-3.5504,-3.5504,-3.5504,-3.5504,-3.5504,-3.5504,-3.5504,-3.5504,-3.5504,-3.5504,-3.5504,-3.5504,-3.5504,-3.5504,-3.5504,-3.5504,-3.5355,-3.4966,-3.4921,-3.4771,-3.4397,-3.4382,-3.4382,-3.4382,-3.4382,-3.4382,-3.4382,-3.4083,-3.3918,-3.3918,-3.3634,-3.3499,-3.3484,-3.2751,-3.2363,-2.7808,-2.8109,-2.8373,-2.9515,-3.0419,-3.1044,-3.1044,-3.1756,-3.2393,-3.2393,-3.3171,-3.3808,-3.3808,-3.4543,-3.5148,-3.5279,-3.5294,-3.5359,-3.5504,-3.5504,-3.5133,-3.4095,-3.4027,-3.3959,-3.3808,-3.3101,-3.3325,-3.5001,-3.5213,-3.5359,-3.5504,-3.5504,-3.5504,-3.5504,-3.5594,-3.5639,-3.5639,-3.6282,-3.6611,-3.6611,-3.715,-3.7336,-3.7183,-3.6314,-3.6385,-3.7114,-3.5113,-3.4906,-3.5798,-3.4594,-3.4668,-3.5494,-3.5348,-3.5928,-3.6807,-3.6961,-3.7099,-3.7252,-3.7336,-3.7404,-3.721,-3.6028,-3.5639,-3.5624,-3.5534,-3.5504,-3.5504,-3.5504,-3.5504,-3.5504,-3.5504,-3.5564,-3.5639,-3.5639,-3.5699,-3.5759,-3.5759,-3.5759,-3.5729,-3.5654,-3.5639,-3.5609,-3.5519,-3.5504,-3.5504,-3.5504,-3.5504,-3.5504,-3.5504,-3.5504,-3.5504,-3.5504,-3.5504,-3.5504,-3.5504,-3.5504,-3.5504,-3.5504,-3.5504,-3.5504,-3.5504,-3.5504,-3.5504,-3.5504,-3.4921,-3.4607,-3.4607,-3.4038,-3.3769,-3.3769,-3.3769,-3.3769,-2.7808,-2.8109,-2.8373,-2.9515,-2.9934,-3.0075,-3.0075,-3.0771,-3.1462,-3.1462,-3.2177,-3.282,-3.282,-3.2961,-3.3394,-3.4095,-3.4245,-3.4543,-3.5359,-3.5504,-3.5133,-3.4095,-3.4027,-3.3671,-3.289,-3.2678,-3.2749,-3.3101,-3.3822,-3.461,-3.5439,-3.5504,-3.5504,-3.5504,-3.6028,-3.6312,-3.6312,-3.6941,-3.724,-3.7255,-3.736,-3.6961,-3.6171,-3.5957,-3.6028,-3.61,-3.4817,-3.4906,-3.5726,-3.3824,-3.313,-3.3285,-3.2449,-3.2843,-3.3837,-3.4641,-3.5451,-3.6356,-3.7114,-3.7404,-3.7285,-3.6552,-3.6312,-3.6207,-3.5669,-3.5504,-3.5504,-3.5504,-3.5504,-3.5504,-3.5504,-3.5908,-3.6312,-3.6312,-3.6701,-3.7075,-3.7075,-3.7075,-3.6926,-3.6417,-3.6312,-3.6148,-3.5609,-3.5504,-3.5504,-3.5504,-3.5504,-3.5504,-3.5504,-3.5504,-3.5504,-3.5504,-3.5504,-3.5504,-3.5504,-3.5504,-3.5504,-3.5504,-3.5504,-3.5504,-3.5504,-3.5504,-3.5504,-3.5504,-3.5385,-3.5325,-3.5325,-3.522,-3.516,-3.516,-3.516,-3.516,-2.7457,-2.7883,-2.831,-2.9139,-2.9566,-2.9792,-2.9792,-3.0139,-3.0482,-3.0482,-3.1193,-3.1888,-3.1888,-3.2249,-3.2749,-3.3171,-3.3241,-3.3463,-3.3905,-3.3973,-3.3616,-3.2678,-3.2522,-3.2393,-3.1888,-3.1402,-3.1769,-3.3241,-3.331,-3.3685,-3.4691,-3.554,-3.6013,-3.6013,-3.6641,-3.6971,-3.6971,-3.7599,-3.7619,-3.708,-3.7432,-3.7054,-3.6057,-3.6057,-3.6372,-3.6773,-3.5228,-3.5073,-3.5905,-3.3819,-3.3277,-3.3738,-3.3277,-3.406,-3.5537,-3.5981,-3.6833,-3.7752,-3.768,-3.7608,-3.7433,-3.6259,-3.6351,-3.6911,-3.6596,-3.6492,-3.6492,-3.6492,-3.6492,-3.6492,-3.6492,-3.6731,-3.6971,-3.6971,-3.7195,-3.7404,-3.7404,-3.7404,-3.7315,-3.703,-3.6971,-3.6866,-3.6552,-3.6222,-3.6013,-3.6013,-3.5729,-3.5504,-3.5504,-3.5504,-3.5504,-3.5504,-3.5504,-3.5504,-3.5504,-3.5504,-3.5504,-3.5504,-3.5504,-3.5504,-3.5504,-3.5504,-3.5504,-3.5504,-3.5504,-3.5504,-3.5504,-3.5504,-3.5504,-3.5504,-3.5504,-3.5504,-2.713,-2.7595,-2.8059,-2.8612,-2.9189,-2.9616,-2.9616,-2.9704,-2.9792,-2.9792,-3.0419,-3.0895,-3.0895,-3.1476,-3.2046,-3.2249,-3.2321,-3.2393,-3.2593,-3.2593,-3.2249,-3.1315,-3.118,-3.1106,-3.0895,-3.0203,-3.0709,-3.289,-3.2593,-3.2946,-3.4448,-3.5748,-3.6552,-3.6686,-3.7285,-3.7614,-3.7614,-3.8272,-3.8073,-3.6991,-3.7584,-3.7112,-3.5894,-3.5894,-3.6304,-3.7035,-3.5142,-3.4966,-3.5734,-3.3869,-3.3641,-3.4345,-3.4345,-3.5534,-3.7127,-3.7127,-3.7829,-3.8605,-3.7738,-3.7434,-3.7258,-3.592,-3.6325,-3.7223,-3.7089,-3.7267,-3.7404,-3.7404,-3.7404,-3.7404,-3.7404,-3.7524,-3.7659,-3.7793,-3.7838,-3.7838,-3.7838,-3.7838,-3.7793,-3.7644,-3.7614,-3.7569,-3.7434,-3.7,-3.6686,-3.6686,-3.6133,-3.5714,-3.5714,-3.5594,-3.5504,-3.5504,-3.5504,-3.5504,-3.5504,-3.5504,-3.5504,-3.5504,-3.5504,-3.5504,-3.5504,-3.5504,-3.5504,-3.5504,-3.5504,-3.5504,-3.5504,-3.5504,-3.5504,-3.5504,-3.5504,-3.5504,-2.713,-2.7318,-2.7494,-2.8047,-2.8599,-2.9001,-2.9001,-2.9415,-2.9792,-2.9792,-2.9869,-2.9934,-2.9934,-2.9998,-3.0355,-3.118,-3.1315,-3.1609,-3.2464,-3.2593,-3.2249,-3.1315,-3.118,-3.0833,-2.9998,-2.9869,-2.9934,-3.0152,-3.0908,-3.2784,-3.606,-3.6447,-3.6746,-3.73,-3.7958,-3.8302,-3.8302,-3.8975,-3.8767,-3.7742,-3.78,-3.6724,-3.4815,-3.4815,-3.4897,-3.491,-3.3713,-3.3869,-3.4746,-3.3556,-3.3154,-3.324,-3.324,-3.3953,-3.4979,-3.4979,-3.5601,-3.6448,-3.6369,-3.6369,-3.6355,-3.6142,-3.6409,-3.6735,-3.6187,-3.6681,-3.7404,-3.7404,-3.7404,-3.7404,-3.7404,-3.7853,-3.8452,-3.908,-3.923,-3.923,-3.923,-3.923,-3.905,-3.8422,-3.8302,-3.8108,-3.7509,-3.736,-3.733,-3.733,-3.6791,-3.6402,-3.6402,-3.5878,-3.5504,-3.5504,-3.5504,-3.5504,-3.5504,-3.5504,-3.5504,-3.5504,-3.5504,-3.5504,-3.5504,-3.5504,-3.5504,-3.5504,-3.5504,-3.5504,-3.5504,-3.5504,-3.5504,-3.5504,-3.5504,-3.5504,-2.6728,-2.703,-2.7331,-2.7557,-2.8021,-2.8436,-2.8436,-2.8863,-2.9277,-2.9277,-2.9553,-2.9792,-2.9792,-2.9792,-2.9934,-3.0279,-3.0343,-3.0495,-3.0846,-3.0921,-3.0771,-3.0419,-3.0343,-3.0216,-2.9869,-2.9792,-2.9998,-3.062,-3.1536,-3.2963,-3.5125,-3.5253,-3.5539,-3.6094,-3.6782,-3.7096,-3.7096,-3.7353,-3.6944,-3.5935,-3.5935,-3.5142,-3.3797,-3.4428,-3.4664,-3.4664,-3.4275,-3.4275,-3.4581,-3.3556,-3.3081,-3.3081,-3.3081,-3.3797,-3.4664,-3.4664,-3.5359,-3.6119,-3.5507,-3.5278,-3.5197,-3.4568,-3.4887,-3.5747,-3.6764,-3.7316,-3.7769,-3.8389,-3.8616,-3.8616,-3.8616,-3.8811,-3.908,-3.9349,-3.9424,-3.9424,-3.9424,-3.9424,-3.9334,-3.9065,-3.9005,-3.8931,-3.8661,-3.8272,-3.8003,-3.8003,-3.7449,-3.6911,-3.6537,-3.6252,-3.5953,-3.5549,-3.5504,-3.5504,-3.5504,-3.5504,-3.5504,-3.5504,-3.5504,-3.5684,-3.6088,-3.6088,-3.6088,-3.6088,-3.6088,-3.5893,-3.5504,-3.5504,-3.5714,-3.6088,-3.6244,-3.5985,-2.6164,-2.6519,-2.703,-2.703,-2.7457,-2.7858,-2.7858,-2.8285,-2.8687,-2.8687,-2.9139,-2.9528,-2.9528,-2.9679,-2.9792,-2.9792,-2.9792,-2.9792,-2.9792,-2.9792,-2.9792,-2.9792,-2.9792,-2.9792,-2.9792,-2.9792,-3.0075,-3.0771,-3.1402,-3.2267,-3.3436,-3.3503,-3.4163,-3.5499,-3.5991,-3.6198,-3.6198,-3.6198,-3.5668,-3.4664,-3.4664,-3.4108,-3.3154,-3.3869,-3.4191,-3.4191,-3.4191,-3.4191,-3.4191,-3.3398,-3.3081,-3.3081,-3.3081,-3.3556,-3.4191,-3.4191,-3.465,-3.5183,-3.4498,-3.4191,-3.4108,-3.3313,-3.3641,-3.4581,-3.671,-3.751,-3.7994,-3.8708,-3.9177,-3.9424,-3.9424,-3.9424,-3.9424,-3.9424,-3.9424,-3.9424,-3.9424,-3.9424,-3.9424,-3.9424,-3.9424,-3.9424,-3.9424,-3.902,-3.8691,-3.8691,-3.8123,-3.7539,-3.7105,-3.6716,-3.6312,-3.5848,-3.5624,-3.5504,-3.5504,-3.5504,-3.5594,-3.5789,-3.5804,-3.6088,-3.6731,-3.6761,-3.6761,-3.6761,-3.6761,-3.6522,-3.6073,-3.6073,-3.6312,-3.6761,-3.6918,-3.6656,-2.53,-2.5734,-2.6533,-2.6533,-2.6879,-2.7293,-2.7293,-2.772,-2.8109,-2.8109,-2.8549,-2.8938,-2.8938,-2.9402,-2.9792,-2.9792,-2.9792,-2.9792,-2.9792,-2.9792,-2.9792,-2.9792,-2.9792,-2.9792,-2.9792,-2.9792,-2.9792,-2.9792,-2.9792,-3.0335,-3.1405,-3.1468,-3.2888,-3.6077,-3.6198,-3.6198,-3.6198,-3.6198,-3.5668,-3.4664,-3.4664,-3.4108,-3.3081,-3.3081,-3.3167,-3.3167,-3.3167,-3.3167,-3.3167,-3.3081,-3.3081,-3.3081,-3.3081,-3.3081,-3.3167,-3.3167,-3.3167,-3.3154,-3.3167,-3.3167,-3.3081,-3.3081,-3.3081,-3.3471,-3.5574,-3.6944,-3.7829,-3.7829,-3.8546,-3.9424,-3.9424,-3.9424,-3.9424,-3.9424,-3.9424,-3.9424,-3.9424,-3.9424,-3.9424,-3.9424,-3.9424,-3.9424,-3.9424,-3.9409,-3.9409,-3.9409,-3.8826,-3.8377,-3.8362,-3.727,-3.6492,-3.6477,-3.5893,-3.5504,-3.5504,-3.5504,-3.5789,-3.6432,-3.6477,-3.6746,-3.7375,-3.7404,-3.7404,-3.7404,-3.7404,-3.7404,-3.7389,-3.7389,-3.7389,-3.7404,-3.7404,-3.7404,-2.5943,-2.6245,-2.6533,-2.6533,-2.6659,-2.6716,-2.6716,-2.7155,-2.7544,-2.7544,-2.7984,-2.8486,-2.8863,-2.9076,-2.934,-2.9729,-2.9792,-2.9792,-2.9792,-2.9792,-2.9792,-2.9792,-2.9792,-2.9792,-2.9792,-2.9792,-2.9792,-2.9792,-2.9792,-3.0269,-3.1336,-3.1386,-3.2206,-3.3985,-3.4095,-3.4095,-3.4095,-3.4095,-3.394,-3.3641,-3.3641,-3.3398,-3.3081,-3.3081,-3.3081,-3.3081,-3.3081,-3.3081,-3.3081,-3.3081,-3.3081,-3.3081,-3.3081,-3.3081,-3.3081,-3.3081,-3.3081,-3.3081,-3.3081,-3.3081,-3.3081,-3.3081,-3.3641,-3.4345,-3.4979,-3.5908,-3.7007,-3.8457,-3.9104,-3.9424,-3.9424,-3.9424,-3.9424,-3.9424,-3.9424,-3.9424,-3.9424,-3.9424,-3.9424,-3.9424,-3.9424,-3.9424,-3.9424,-3.9424,-3.9424,-3.9424,-3.923,-3.8931,-3.8452,-3.8033,-3.7614,-3.7165,-3.6926,-3.6462,-3.5579,-3.5923,-3.6267,-3.6477,-3.6881,-3.7404,-3.8048,-3.8078,-3.8078,-3.8078,-3.8078,-3.7853,-3.7404,-3.7404,-3.7644,-3.8093,-3.8556,-3.8781,-2.4612,-2.5358,-2.5955,-2.5955,-2.6245,-2.6533,-2.6533,-2.6798,-2.6967,-2.6967,-2.7406,-2.7959,-2.8511,-2.8787,-2.9114,-2.9691,-2.9792,-2.9792,-2.9792,-2.9792,-2.9792,-2.9792,-2.9792,-2.9792,-2.9792,-2.9792,-2.9792,-2.9792,-2.9792,-3.0269,-3.1336,-3.1386,-3.1901,-3.3043,-3.3081,-3.3081,-3.3081,-3.3081,-3.3081,-3.3081,-3.3081,-3.3081,-3.3081,-3.3081,-3.3081,-3.3081,-3.3081,-3.3081,0.0,-3.3081,-3.3081,-3.3081,-3.3081,-3.3081,-3.3081,-3.3081,-3.3081,-3.3081,-3.3081,-3.3081,-3.3081,-3.3081,-3.4108,-3.5292,-3.5292,-3.5987,-3.7175,-3.8943,-3.9424,-3.9424,-3.9424,-3.9424,-3.9424,-3.9424,-3.9424,-3.9424,-3.9424,-3.9424,-3.9424,-3.9424,-3.9424,-3.9424,-3.9424,-3.9424,-3.9424,-3.9424,-3.9424,-3.926,-3.8841,-3.8556,-3.8227,-3.7823,-3.7554,-3.709,-3.6282,-3.6596,-3.6941,-3.7195,-3.7569,-3.8078,-3.8751,-3.8781,-3.8781,-3.8781,-3.8781,-3.8571,-3.8167,-3.8167,-3.8377,-3.8796,-3.9215,-3.9424,0.0,-2.3452,-2.5004,-2.4933,-2.5734,-2.6452,-2.6383,-2.6465,0.0,-2.6533,-2.6866,-2.7406,-2.7996,-2.8524,-2.9063,-2.9691,-2.9792,-2.9792,-2.9792,-2.9792,-2.9792,-2.9792,-2.9792,-2.9792,-2.9792,-2.9792,-2.9792,-2.9792,-2.9792,-3.0269,-3.1336,-3.1386,-3.1901,-3.3043,-3.3081,-3.3081,-3.3081,-3.3081,-3.3081,-3.3081,-3.3081,-3.3081,-3.3081,-3.3081,-3.3081,-3.3081,-3.3081,-3.3081,-3.3081,-3.3081,-3.3081,-3.3081,-3.3081,-3.3081,-3.3081,-3.3081,-3.3081,-3.3081,-3.3081,-3.3081,-3.3081,-3.3154,-3.4485,-3.6132,-3.6198,-3.7007,-3.8144,-3.9104,-3.9424,-3.9424,-3.9424,-3.9424,-3.9424,-3.9424,-3.9424,-3.9424,-3.9424,-3.9424,-3.9424,-3.9424,-3.9337,-3.9337,-3.9424,-3.9337,-3.9337,-3.9424,-3.9424,-3.9424,-3.9424,-3.8856,-3.8452,-3.8381,-3.7759,-3.7401,-3.7401,-3.744,-3.7749,-3.8347,-3.8437,-3.8751,-3.9394,-3.9424,-3.9424,-3.9424,-3.9424,-3.9424,-3.9424,-3.9424,-3.9424,-3.9424,-3.9424,-3.9424,-2.0934,0.0,-2.4791,-2.4036,-2.5205,-2.6314,0.0,-2.5955,-2.6533,-2.6533,-2.6634,-2.6954,-2.7921,-2.821,-2.8624,-2.9628,-2.9792,-2.9792,-2.9792,-2.9792,-2.9792,-2.9792,-2.9792,-2.9792,-2.9792,-2.9792,-2.9792,-2.9792,-2.9792,-3.0269,-3.1336,-3.1386,-3.1901,-3.3043,-3.3081,-3.3081,-3.3081,-3.3081,-3.3081,-3.3081,-3.3081,-3.3081,-3.3081,-3.3081,-3.3081,-3.3081,-3.3081,-3.3081,-3.3081,-3.3081,-3.3081,-3.3081,-3.3081,-3.3081,-3.3081,-3.3081,-3.3081,-3.3081,-3.3081,-3.3081,-3.324,-3.4037,-3.4664,-3.521,-3.5974,-3.7482,-3.9104,-3.9337,-3.9424,-3.9424,-3.9424,-3.9424,-3.9424,-3.9424,-3.9424,-3.9424,-3.9424,-3.9424,-3.9424,-3.9424,-3.8708,-3.8472,-3.9265,-3.8708,-3.8472,-3.9265,-3.9424,-3.9424,-3.9424,-3.9275,-3.8852,-3.8001,-3.7781,-3.7694,-3.7694,-3.7997,-3.8227,-3.8377,-3.8886,-3.9245,-3.9409,-3.9424,-3.9424,-3.9424,-3.9424,-3.9424,-3.9424,-3.9424,-3.9424,-3.9424,-3.9424,-3.9424,-2.0566,-2.2048,-2.3514,-2.2925,-2.3952,-2.5134,-2.5004,-2.5441,-2.5955,-2.6383,-2.6533,-2.6804,-2.7896,-2.8109,-2.8473,-2.9603,-2.9792,-2.9792,-2.9792,-2.9792,-2.9792,-2.9792,-2.9792,-2.9792,-2.9792,-2.9792,-2.9792,-2.9792,-2.9792,-3.0269,-3.1336,-3.1386,-3.1901,-3.3043,-3.3081,-3.3081,-3.3081,-3.3081,-3.3081,-3.3081,-3.3081,-3.3081,-3.3081,-3.3081,-3.3081,-3.3081,-3.3081,-3.3081,-3.3081,-3.3081,-3.3081,-3.3081,-3.3081,-3.3081,-3.3081,-3.3081,-3.3081,-3.3081,-3.3081,-3.3081,-3.324,-3.3797,-3.4275,-3.4828,-3.5359,-3.6618,-3.8055,-3.8546,-3.8708,-3.8782,-3.9265,-3.9424,-3.9424,-3.9424,-3.9424,-3.9424,-3.9424,-3.9424,-3.9265,-3.8782,-3.8234,-3.7829,-3.789,-3.7405,-3.742,-3.8457,-3.8708,-3.8708,-3.8708,-3.8708,-3.8219,-3.7175,-3.7098,-3.7098,-3.7098,-3.7243,-3.7828,-3.8784,-3.9215,-3.9177,-3.8708,-3.8708,-3.8708,-3.8708,-3.9177,-3.9424,-3.9424,-3.9424,-3.9424,-3.9424,-3.9424,-3.9424,-2.0566,-2.1155,-2.1811,-2.1811,-2.2627,-2.3672,-2.4409,-2.4636,-2.5004,-2.5873,-2.6164,-2.6569,-2.7665,-2.8024,-2.8473,-2.9603,-2.9792,-2.9792,-2.9792,-2.9792,-2.9792,-2.9792,-2.9792,-2.9792,-2.9792,-2.9792,-2.9792,-2.9792,-2.9867,-3.0344,-3.1336,-3.1474,-3.2001,-3.3043,-3.3081,-3.3081,-3.3081,-3.3081,-3.3081,-3.3081,-3.3081,-3.3081,-3.3081,-3.3081,-3.3081,-3.3081,-3.3081,-3.3081,-3.3081,-3.3081,-3.3081,-3.3081,-3.3081,-3.3081,-3.3081,-3.3081,-3.3081,-3.3081,-3.3081,-3.3081,-3.3081,-3.3081,-3.3713,-3.4428,-3.4428,-3.5047,-3.5974,-3.7035,-3.7434,-3.7753,-3.8694,-3.8929,-3.8929,-3.8929,-3.8929,-3.8929,-3.8929,-3.8929,-3.862,-3.7738,-3.7434,-3.7112,-3.6369,-3.6053,-3.629,-3.742,-3.7587,-3.7587,-3.7587,-3.7587,-3.719,-3.6053,-3.5974,-3.5974,-3.5974,-3.5974,-3.6852,-3.8782,-3.8929,-3.8531,-3.7587,-3.7753,-3.7829,-3.7829,-3.887,-3.9337,-3.9177,-3.9177,-3.909,-3.8929,-3.9002,-3.9192,-2.0566,-2.0712,-2.0789,-2.0789,-2.2199,-2.3294,-2.2627,-2.3147,-2.3734,-2.3963,-2.4636,-2.5541,-2.6647,-2.7545,-2.8473,-2.9603,-2.9792,-2.9792,-2.9792,-2.9792,-2.9792,-2.9792,-2.9792,-2.9792,-2.9792,-2.9792,-2.9792,-2.9792,-3.0231,-3.0746,-3.1361,-3.1838,-3.239,-3.3056,-3.3081,-3.3081,-3.3081,-3.3081,-3.3081,-3.3081,-3.3081,-3.3081,-3.3081,-3.3081,-3.3081,-3.3081,-3.3081,-3.3081,-3.3081,-3.3081,-3.3081,-3.3081,-3.3081,-3.3081,-3.3081,-3.3081,-3.3081,-3.3081,-3.3081,-3.3081,-3.3081,-3.3081,-3.324,-3.3313,-3.3313,-3.3471,-3.3784,-3.4897,-3.5762,-3.6448,-3.6682,-3.6682,-3.6682,-3.6682,-3.6682,-3.6682,-3.6682,-3.6682,-3.6682,-3.6448,-3.5762,-3.5359,-3.6053,-3.5507,-3.5292,-3.629,-3.6448,-3.6448,-3.6448,-3.6448,-3.6067,-3.5047,-3.4897,-3.4897,-3.4897,-3.4897,-3.544,-3.6604,-3.6682,-3.6604,-3.6448,-3.7343,-3.7829,-3.7829,-3.887,-3.8943,-3.8069,-3.8069,-3.7587,-3.6682,-3.7353,-3.826,-2.0566,-2.0566,-2.0566,-2.0566,-2.1669,-2.2702,-2.2776,-2.3588,-2.4337,-2.4337,-2.4847,-2.5573,-2.6459,-2.7155,-2.8172,-2.9576,-2.9792,-2.9792,-2.9792,-3.0043,-3.0231,-3.0231,-3.0482,-3.0545,-3.0269,-3.0231,-3.0231,-3.0231,-3.047,-3.0972,-3.1788,-3.2077,-3.2478,-3.3056,-3.3081,-3.3081,-3.3081,-3.3081,-3.3081,-3.3081,-3.3081,-3.3081,-3.3081,-3.3081,-3.3081,-3.3081,-3.3081,-3.3081,-3.3081,-3.3081,-3.3081,-3.3081,-3.3081,-3.3081,-3.3081,-3.3081,-3.3081,-3.3081,-3.3081,-3.3081,-3.3081,-3.3081,-3.3081,-3.3081,-3.3081,-3.3081,-3.324,-3.3713,-3.4581,-3.5507,-3.6053,-3.6198,-3.6198,-3.6198,-3.6198,-3.6198,-3.6198,-3.6198,-3.6053,-3.5507,-3.5061,-3.4664,-3.4568,-3.4095,-3.4191,-3.5197,-3.5359,-3.5359,-3.5359,-3.5359,-3.4966,-3.3953,-3.3882,-3.3882,-3.3882,-3.3882,-3.4498,-3.6119,-3.5668,-3.5359,-3.5359,-3.5842,-3.6094,-3.6094,-3.7175,-3.7405,-3.693,-3.693,-3.6682,-3.6212,-3.6978,-3.8067,-2.0566,-2.0566,-2.0566,-2.0566,-2.1155,-2.1962,-2.2925,-2.3745,-2.4337,-2.4564,-2.518,-2.5846,-2.6506,-2.7292,-2.8293,-2.9561,-2.9792,-2.9829,-2.9967,-3.0357,-3.0658,-3.0783,-3.1148,-3.1235,-3.0834,-3.0796,-3.0796,-3.0796,-3.0922,-3.1348,-3.2177,-3.234,-3.2616,-3.3068,-3.3081,-3.3081,-3.3081,-3.3081,-3.3081,-3.3081,-3.3081,-3.3081,-3.3081,-3.3081,-3.3081,-3.3081,-3.3081,-3.3081,-3.3081,-3.3081,-3.3081,-3.3081,-3.3081,-3.3081,-3.3081,-3.3081,-3.3081,-3.3081,-3.3081,-3.3081,-3.3081,-3.3081,-3.3081,-3.3081,-3.3081,-3.3081,-3.3081,-3.3081,-3.3713,-3.4498,-3.5265,-3.5494,-3.5494,-3.5494,-3.5494,-3.5494,-3.5494,-3.5494,-3.5278,-3.4511,-3.4345,-3.4037,-3.324,-3.3081,-3.3398,-3.4191,-3.4345,-3.4345,-3.4345,-3.4345,-3.4037,-3.3154,-3.3081,-3.3081,-3.3081,-3.3081,-3.3784,-3.5346,-3.4733,-3.4345,-3.4345,-3.4594,-3.4664,-3.4664,-3.5668,-3.6039,-3.5814,-3.5814,-3.5734,-3.5507,-3.6058,-3.6896,-2.0566,-2.0566,-2.0566,-2.0566,-2.0634,-2.0934,-2.1886,-2.2178,-2.2478,-2.3452,-2.4792,-2.5982,-2.6494,-2.8255,-2.9664,-2.9779,-2.9792,-2.9967,-3.0482,-3.0595,-3.0796,-3.1273,-3.1361,-3.1373,-3.1336,-3.1336,-3.1336,-3.1336,-3.18,-3.2127,-3.2215,-3.2717,-3.3031,-3.3081,-3.3081,-3.3081,-3.3081,-3.3081,-3.3081,-3.3081,-3.3081,-3.3081,-3.3081,-3.3081,-3.3081,-3.3081,-3.3081,-3.3081,-3.3081,-3.3081,-3.3081,-3.3081,-3.3081,-3.3081,-3.3081,-3.3081,-3.3081,-3.3081,-3.3081,-3.3081,-3.3081,-3.3081,-3.3081,-3.3081,-3.3081,-3.3081,-3.3081,-3.3081,-3.3154,-3.324,-3.3313,-3.3313,-3.3313,-3.3313,-3.3313,-3.3313,-3.3313,-3.3313,-3.3313,-3.324,-3.324,-3.3154,-3.3081,-3.3081,-3.3154,-3.324,-3.324,-3.324,-3.324,-3.324,-3.3154,-3.3081,-3.3081,-3.3081,-3.3081,-3.3081,-3.3154,-3.3313,-3.324,-3.324,-3.324,-3.4191,-3.4664,-3.4664,-3.5668,-3.5734,-3.4815,-3.4815,-3.4275,-3.33,-3.3335,-3.3472,-2.0566,-2.0566,-2.0566,-2.0566,-2.0566,-2.0857,-2.1811,-2.2478,-2.285,-2.2627,-2.4002,-2.5731,-2.7257,-2.8746,-2.9792,-2.9792,-3.008,-3.0382,-3.0583,-3.1185,-3.1687,-3.1876,-3.2215,-3.2303,-3.1938,-3.1901,-3.1901,-3.1901,-3.2102,-3.2365,-3.2729,-3.2955,-3.3081,-3.3081,-3.3081,-3.3081,-3.3081,-3.3081,-3.3081,-3.3081,-3.3081,-3.3081,-3.3081,-3.3081,-3.3081,-3.3081,-3.3081,-3.3081,-3.3081,-3.3081,-3.3081,-3.3081,-3.3081,-3.3081,-3.3081,-3.3081,-3.3081,-3.3081,-3.3081,-3.3081,-3.3081,-3.3081,-3.3081,-3.3081,-3.3081,-3.3081,-3.3081,-3.3081,-3.3081,-3.3081,-3.3081,-3.3081,-3.3081,-3.3081,-3.3081,-3.3081,-3.3081,-3.3081,-3.3081,-3.3081,-3.3081,-3.3081,-3.3081,-3.3081,-3.3081,-3.3081,-3.3081,-3.3081,-3.3081,-3.3081,-3.3081,-3.3081,-3.3081,-3.3081,-3.3081,-3.3081,-3.3081,-3.3081,-3.3081,-3.3081,-3.3081,-3.3471,-3.3713,-3.3713,-3.4108,-3.4108,-3.3713,-3.3713,-3.3471,-3.3068,-3.3123,-3.3119,-2.0566,-2.0566,-2.0566,-2.0566,-2.0566,-2.0789,-2.1451,-2.2339,-2.2925,-2.2553,-2.3842,-2.5766,-2.8155,-2.8937,-2.9365,-2.9714,-3.0256,-3.067,-3.0834,-3.1637,-3.2277,-3.2466,-3.283,-3.2918,-3.2516,-3.2491,-3.2491,-3.2491,-3.2491,-3.2654,-3.3056,-3.3081,-3.3081,-3.3081,-3.3081,-3.3081,-3.3081,-3.3081,-3.3081,-3.3081,-3.3081,-3.3081,-3.3081,-3.3081,-3.3081,-3.3081,-3.3081,-3.3081,-3.3081,-3.3081,-3.3081,-3.3081,-3.3081,-3.3081,-3.3081,-3.3081,-3.3081,-3.3081,-3.3081,-3.3081,-3.3081,-3.3081,-3.3081,-3.3081,-3.3081,-3.3081,-3.3081,-3.3081,-3.3081,-3.3081,-3.3081,-3.3081,-3.3081,-3.3081,-3.3081,-3.3081,-3.3081,-3.3081,-3.3081,-3.3081,-3.3081,-3.3081,-3.3081,-3.3081,-3.3081,-3.3081,-3.3081,-3.3081,-3.3081,-3.3081,-3.3081,-3.3081,-3.3081,-3.3081,-3.3081,-3.3081,-3.3081,-3.3081,-3.3081,-3.3081,-3.3081,-3.3081,-3.3081,-3.3081,-3.3081,-3.3081,-3.3081,-3.3081,-3.3081,-3.3081,-3.3081,-3.3081,-2.0566,-2.0566,-2.0566,-2.0566,-2.0566,-2.0566,-2.0566,-2.1298,-2.2253,-2.3305,-2.431,-2.5934,-2.918,-2.8858,-2.8438,-2.9624,-3.0256,-3.0796,-3.1323,-3.1863,-3.2428,-3.3006,-3.3081,-3.3081,-3.3081,-3.3081,-3.3081,-3.3081,-3.3081,-3.3081,-3.3081,-3.3081,-3.3081,-3.3081,-3.3081,-3.3081,-3.3081,-3.3081,-3.3081,-3.3081,-3.3081,-3.3081,-3.3081,-3.3081,-3.3081,-3.3081,-3.3081,-3.3081,-3.3081,-3.3081,-3.3081,-3.3081,-3.3081,-3.3081,-3.3081,-3.3081,-3.3081,-3.3081,-3.3081,-3.3081,-3.3081,-3.3081,-3.3081,-3.3081,-3.3081,-3.3081,-3.3081,-3.3081,-3.3081,-3.3081,-3.3081,-3.3081,-3.3081,-3.3081,-3.3081,-3.3081,-3.3081,-3.3081,-3.3081,-3.3081,-3.3081,-3.3081,-3.3081,-3.3081,-3.3081,-3.3081,-3.3081,-3.3081,-3.3081,-3.3081,-3.3081,-3.3081,-3.3081,-3.3081,-3.3081,-3.3081,-3.3081,-3.3081,-3.3081,-3.3081,-3.3081,-3.3081,-3.3081,-3.3081,-3.3081,-3.3081,-3.3081,-3.3081,-3.3081,-3.3081,-3.3081,-3.3081,-2.0566,-2.0566,-2.0566,-2.0566,-2.0566,-2.0566,-2.0566,-2.0789,-2.148,-2.3179,-2.3777,-2.4661,-2.7036,-2.7221,-2.729,-2.8438,-2.9044,-2.9915,-3.1229,-3.1863,-3.2428,-3.3006,-3.3081,-3.3081,-3.3081,-3.3081,-3.3081,-3.3081,-3.3081,-3.3081,-3.3081,-3.3081,-3.3081,-3.3081,-3.3081,-3.3081,-3.3081,-3.3081,-3.3081,-3.3081,-3.3081,-3.3081,-3.3081,-3.3081,-3.3081,-3.3081,-3.3081,-3.3081,-3.3081,-3.3081,-3.3081,-3.3081,-3.3081,-3.3081,-3.3081,-3.3081,-3.3081,-3.3081,-3.3081,-3.3081,-3.3081,-3.3081,-3.3081,-3.3081,-3.3081,-3.3081,-3.3081,-3.3081,-3.3081,-3.3081,-3.3081,-3.3081,-3.3081,-3.3081,-3.3081,-3.3081,-3.3081,-3.3081,-3.3081,-3.3081,-3.3081,-3.3081,-3.3081,-3.3081,-3.3081,-3.3081,-3.3081,-3.3081,-3.3081,-3.3081,-3.3081,-3.3081,-3.3081,-3.3081,-3.3081,-3.3081,-3.3081,-3.3081,-3.3081,-3.3081,-3.3081,-3.3081,-3.3081,-3.3081,-3.3081,-3.3081,-3.3081,-3.3081,-3.3081,-3.3081,-3.3081,-3.3081,-2.0566,-2.0566,-2.0566,-2.0566,-2.0566,-2.0566,-2.0566,-2.0566,-2.1143,-2.2924,-2.3067,-2.3583,-2.5791,-2.6008,-2.6213,-2.7279,-2.7871,-2.874,-3.0241,-3.1119,-3.1821,-3.2692,-3.293,-3.3081,-3.3081,-3.3081,-3.3081,-3.3081,-3.3081,-3.3081,-3.3081,-3.3081,-3.3081,-3.3081,-3.3081,-3.3081,-3.3081,-3.3081,-3.3081,-3.3081,-3.3081,-3.3081,-3.3081,-3.3081,-3.3081,-3.3081,-3.3081,-3.3081,-3.3081,-3.3081,-3.3081,-3.3081,-3.3081,-3.3081,-3.3081,-3.3081,-3.3081,-3.3081,-3.3081,-3.3081,-3.3081,-3.3081,-3.3081,-3.3081,-3.3081,-3.3081,-3.3081,-3.3081,-3.3081,-3.3081,-3.3081,-3.3081,-3.3081,-3.3081,-3.3081,-3.3081,-3.3081,-3.3081,-3.3081,-3.3081,-3.3081,-3.3081,-3.3081,-3.3081,-3.3081,-3.3081,-3.3081,-3.3081,-3.3081,-3.3081,-3.3081,-3.3081,-3.3081,-3.3081,-3.3081,-3.3081,-3.3081,-3.3081,-3.3081,-3.3081,-3.3081,-3.3081,-3.3081,-3.3081,-3.3081,-3.3081,-3.3081,-3.3081,-3.3081,-3.3081,-3.3081,-3.3081,-2.0566,-2.0566,-2.0566,-2.0566,-2.0566,-2.0566,-2.0566,-2.0566,-2.0985,-2.2424,-2.2271,-2.2654,-2.5081,-2.5056,-2.5041,-2.6141,-2.6769,-2.7493,-2.8692,-2.9785,-3.0858,-3.1959,-3.2641,-3.3006,-3.3006,-3.3043,-3.3081,-3.3081,-3.3081,-3.3081,-3.3081,-3.3031,-3.3018,-3.3081,-3.3031,-3.3018,-3.3081,-3.3081,-3.3081,-3.3081,-3.3081,-3.3081,-3.3081,-3.3081,-3.3081,-3.3081,-3.3081,-3.3081,-3.3081,-3.3081,-3.3081,-3.3081,-3.3081,-3.3081,-3.3081,-3.3081,-3.3081,-3.3081,-3.3081,-3.3081,-3.3081,-3.3081,-3.3081,-3.3081,-3.3081,-3.3081,-3.3081,-3.3081,-3.3081,-3.3081,-3.3081,-3.3081,-3.3081,-3.3081,-3.3081,-3.3081,-3.3081,-3.3081,-3.3081,-3.3081,-3.3081,-3.3081,-3.3081,-3.3081,-3.3081,-3.3081,-3.3081,-3.3081,-3.3081,-3.3081,-3.3081,-3.3081,-3.3081,-3.3081,-3.3081,-3.3081,-3.3081,-3.3081,-3.3081,-3.3081,-3.3081,-3.3081,-3.3081,-3.3081,-3.3081,-3.3081,-3.3081,-3.3081,-3.3081,-3.3081,-3.3081,-3.3081,-2.0566,-2.0566,-2.0566,-2.0566,-2.0566,-2.0566,-2.0566,-2.0566,-2.0762,-2.1441,-2.1735,-2.2168,-2.3076,-2.3348,-2.38,-2.4957,-2.5295,-2.6154,-2.8551,-2.9153,-2.9878,-3.143,-3.2064,-3.2403,-3.2403,-3.2805,-3.3081,-3.3081,-3.3081,-3.3081,-3.3081,-3.2641,-3.2604,-3.3068,-3.2641,-3.2616,-3.3068,-3.3081,-3.3081,-3.3081,-3.3081,-3.3081,-3.3081,-3.3081,-3.3081,-3.3081,-3.3081,-3.3081,-3.3081,-3.3081,-3.3081,-3.3081,-3.3081,-3.3081,-3.3081,-3.3081,-3.3081,-3.3081,-3.3081,-3.3081,-3.3081,-3.3081,-3.3081,-3.3081,-3.3081,-3.3081,-3.3081,-3.3081,-3.3081,-3.3081,-3.3081,-3.3081,-3.3081,-3.3081,-3.3081,-3.3081,-3.3081,-3.3081,-3.3081,-3.3081,-3.3081,-3.3081,-3.3081,-3.3081,-3.3081,-3.3081,-3.3081,-3.3081,-3.3081,-3.3081,-3.3081,-3.3081,-3.3081,-3.3081,-3.3081,-3.3081,-3.3081,-3.3081,-3.3081,-3.3081,-3.3081,-3.3081,-3.3081,-3.3081,-3.3081,-3.3081,-3.3081,-3.3081,-3.3081,-3.3081,-3.3081,-3.3081,-2.0566,-2.0566,-2.0566,-2.0566,-2.0566,-2.0566,-2.0566,-2.0566,-2.0635,-2.0869,-2.1269,-2.1709,-2.2139,-2.2559,-2.3063,-2.3846,-2.3963,-2.4882,-2.7389,-2.7974,-2.8811,-3.081,-3.1486,-3.1813,-3.1813,-3.2089,-3.2265,-3.2265,-3.2265,-3.2265,-3.2265,-3.1989,-3.1951,-3.2265,-3.1976,-3.1964,-3.2265,-3.2265,-3.2403,-3.2667,-3.2667,-3.2805,-3.3081,-3.3081,-3.3081,-3.3081,-3.3081,-3.3081,-3.3081,-3.3081,-3.3081,-3.3081,-3.3081,-3.3081,-3.3081,-3.3081,-3.3081,-3.3081,-3.3081,-3.3081,-3.3081,-3.3081,-3.3081,-3.3081,-3.3081,-3.3081,-3.3081,-3.3081,-3.3081,-3.3081,-3.3081,-3.3081,-3.3081,-3.3081,-3.3081,-3.3081,-3.3081,-3.3081,-3.3081,-3.3081,-3.3081,-3.3081,-3.3081,-3.3081,-3.3081,-3.3081,-3.3081,-3.3081,-3.3081,-3.3081,-3.3081,-3.3081,-3.3081,-3.3081,-3.3081,-3.3081,-3.3081,-3.3081,-3.3081,-3.3081,-3.3081,-3.3081,-3.3081,-3.3081,-3.3081,-3.3081,-3.3081,-3.3081,-3.3081,-3.3081,-3.3081,-3.3081,-2.0566,-2.0566,-2.0566,-2.0566,-2.0566,-2.0566,-2.0566,-2.0566,-2.0566,-2.0566,-2.0918,-2.1367,-2.1807,-2.2227,-2.2646,-2.3066,-2.3135,-2.381,-2.5891,-2.6568,-2.7592,-2.9621,-3.0343,-3.0733,-3.0733,-3.082,-3.0869,-3.1128,-3.1128,-3.1223,-3.1386,-3.1298,-3.1298,-3.1386,-3.1298,-3.1298,-3.1386,-3.1386,-3.1625,-3.2077,-3.2164,-3.2466,-3.293,-3.3031,-3.3081,-3.3081,-3.3081,-3.3081,-3.3081,-3.3081,-3.3081,-3.3081,-3.3081,-3.3081,-3.3081,-3.3081,-3.3081,-3.3081,-3.3081,-3.3081,-3.3081,-3.3081,-3.3081,-3.3081,-3.3081,-3.3081,-3.3081,-3.3081,-3.3081,-3.3081,-3.3081,-3.3081,-3.3081,-3.3081,-3.3081,-3.3081,-3.3081,-3.3081,-3.3081,-3.3081,-3.3081,-3.3081,-3.3081,-3.3081,-3.3081,-3.3081,-3.3081,-3.3081,-3.3081,-3.3081,-3.3081,-3.3081,-3.3081,-3.3081,-3.3081,-3.3081,-3.3081,-3.3081,-3.3081,-3.3081,-3.3081,-3.3081,-3.3081,-3.3081,-3.3081,-3.3081,-3.3081,-3.3081,-3.3081,-3.3081,-3.3081,-3.3081,-2.0566,-2.0566,-2.0566,-2.0566,-2.0566,-2.0566,-2.0566,-2.0566,-2.0566,-2.0566,-2.0918,-2.1367,-2.1807,-2.2227,-2.2646,-2.3066,-2.3135,-2.3551,-2.4882,-2.5094,-2.5633,-2.6903,-2.7512,-2.7809,-2.7809,-2.8294,-2.8986,-2.9942,-3.0025,-3.0455,-3.1386,-3.0959,-3.0922,-3.1373,-3.0947,-3.0934,-3.1386,-3.1386,-3.1424,-3.1499,-3.1989,-3.2252,-3.234,-3.2855,-3.3081,-3.3081,-3.3081,-3.3081,-3.3081,-3.3081,-3.3081,-3.3081,-3.3081,-3.3081,-3.3081,-3.3081,-3.3081,-3.3081,-3.3081,-3.3081,-3.3081,-3.3081,-3.3081,-3.3081,-3.3081,-3.3081,-3.3081,-3.3081,-3.3081,-3.3081,-3.3081,-3.3081,-3.3081,-3.3081,-3.3081,-3.3081,-3.3081,-3.3081,-3.3081,-3.3081,-3.3081,-3.3081,-3.3081,-3.3081,-3.3081,-3.3081,-3.3081,-3.3081,-3.3081,-3.3081,-3.3081,-3.3081,-3.3081,-3.3081,-3.3081,-3.3081,-3.3081,-3.3081,-3.3081,-3.3081,-3.3081,-3.3081,-3.3081,-3.3081,-3.3081,-3.3081,-3.3081,-3.3081,-3.3081,-3.3081,-3.3081,-3.3081,-2.0566,-2.0566,-2.0566,-2.0566,-2.0566,-2.0566,-2.0566,-2.0566,-2.0566,-2.0566,-2.0723,-2.1074,-2.1758,-2.2041,-2.2373,-2.3027,-2.3135,-2.3464,-2.4617,-2.4787,-2.521,-2.6389,-2.6673,-2.688,-2.688,-2.7082,-2.7375,-2.7877,-2.796,-2.8138,-2.8621,-2.9,-2.9309,-2.9528,-2.9928,-3.0269,-3.0495,-3.0495,-3.0645,-3.0959,-3.1499,-3.175,-3.1763,-3.234,-3.2767,-3.3081,-3.3081,-3.3081,-3.3081,-3.3081,-3.3081,-3.3081,-3.3081,-3.3081,-3.3081,-3.3081,-3.3081,-3.3081,-3.3081,-3.3081,-3.3081,-3.3081,-3.3081,-3.3081,-3.3081,-3.3081,-3.3081,-3.3081,-3.3081,-3.3081,-3.3081,-3.3081,-3.3081,-3.3081,-3.3081,-3.3081,-3.3081,-3.3081,-3.3081,-3.3081,-3.3081,-3.3081,-3.3081,-3.3081,-3.3081,-3.3081,-3.3081,-3.3081,-3.3081,-3.3081,-3.3081,-3.3081,-3.3081,-3.3081,-3.3081,-3.3081,-3.3081,-3.3081,-3.3081,-3.3081,-3.3081,-3.3081,-3.3081,-3.3081,-3.3081,-3.3081,-3.3081,-3.3081,-3.3081,-3.3081,-3.3081,-3.3081,-2.0566,-2.0566,-2.0566,-2.0566,-2.0566,-2.0566,-2.0566,-2.0566,-2.0566,-2.0566,-2.0566,-2.0801,-2.1572,-2.1807,-2.2129,-2.2861,-2.3066,-2.3387,-2.4211,-2.4372,-2.4713,-2.5557,-2.5641,-2.5641,-2.5641,-2.5641,-2.5724,-2.6058,-2.6058,-2.6224,-2.6472,-2.729,-2.7844,-2.8096,-2.8937,-2.9534,-2.9792,-2.9792,-2.9993,-3.0407,-3.0934,-3.1198,-3.121,-3.175,-3.2315,-3.2867,-3.3018,-3.3081,-3.3081,-3.3081,-3.3081,-3.3081,-3.3081,-3.3081,-3.3081,-3.3081,-3.3081,-3.3081,-3.3081,-3.3081,-3.3081,-3.3081,-3.3081,-3.3081,-3.3081,-3.3081,-3.3081,-3.3081,-3.3081,-3.3081,-3.3081,-3.3081,-3.3081,-3.3081,-3.3081,-3.3081,-3.3081,-3.3081,-3.3081,-3.3081,-3.3081,-3.3081,-3.3081,-3.3081,-3.3081,-3.3081,-3.3081,-3.3081,-3.3081,-3.3081,-3.3081,-3.3081,-3.3081,-3.3081,-3.3081,-3.3081,-3.3081,-3.3081,-3.3081,-3.3081,-3.3081,-3.3081,-3.3081,-3.3081,-3.3081,-3.3081,-3.3081,-3.3081,-3.3081,-3.3081,-3.3081,-3.3081,-2.0566,-2.0566,-2.0566,-2.0566,-2.0566,-2.0566,-2.0566,-2.0566,-2.0566,-2.0566,-2.0566,-2.0713,-2.1182,-2.1611,-2.2031,-2.2471,-2.2881,-2.3135,-2.3222,-2.3222,-2.3222,-2.3299,-2.3309,-2.3309,-2.3309,-2.3309,-2.3714,-2.4787,-2.4872,-2.5378,-2.6472,-2.6554,-2.7046,-2.8084,-2.8176,-2.8688,-2.9792,-2.9792,-2.9804,-2.9842,-3.0394,-3.0658,-3.067,-3.1198,-3.1738,-3.229,-3.283,-3.3081,-3.3081,-3.3081,-3.3081,-3.3081,-3.3081,-3.3081,-3.3081,-3.3081,-3.3081,-3.3081,-3.3081,-3.3081,-3.3081,-3.3081,-3.3081,-3.3081,-3.3081,-3.3081,-3.3081,-3.3081,-3.3081,-3.3081,-3.3081,-3.3081,-3.3081,-3.3081,-3.3081,-3.3081,-3.3081,-3.3081,-3.3081,-3.3081,-3.3081,-3.3081,-3.3081,-3.3081,-3.3081,-3.3081,-3.3081,-3.3081,-3.3081,-3.3081,-3.3081,-3.3081,-3.3081,-3.3081,-3.3081,-3.3081,-3.3081,-3.3081,-3.3081,-3.3081,-3.3081,-3.3081,-3.3081,-3.3081,-3.3081,-3.3081,-3.3081,-3.3081,-3.3081,-3.3081,-3.3081,-3.3081,-2.0566,-2.0566,-2.0566,-2.0566,-2.0566,-2.0566,-2.0566,-2.0566,-2.0566,-2.0566,-2.0566,-2.0615,-2.0781,-2.1172,-2.1699,-2.2402,-2.2637,-2.2832,-2.3096,-2.3135,-2.3135,-2.3135,-2.3135,-2.3135,-2.3135,-2.3135,-2.3299,-2.3714,-2.3714,-2.3887,-2.4307,-2.4967,-2.5619,-2.5942,-2.6707,-2.7614,-2.8688,-2.9443,-2.9792,-2.9792,-2.9993,-3.0093,-3.0105,-3.0645,-3.1185,-3.1725,-3.2277,-3.2729,-3.3081,-3.3081,-3.3081,-3.3081,-3.3081,-3.3081,-3.3081,-3.3081,-3.3081,-3.3081,-3.3081,-3.3081,-3.3081,-3.3081,-3.3081,-3.3081,-3.3081,-3.3081,-3.3081,-3.3081,-3.3081,-3.3081,-3.3081,-3.3081,-3.3081,-3.3081,-3.3081,-3.3081,-3.3081,-3.3081,-3.3081,-3.3081,-3.3081,-3.3081,-3.3081,-3.3081,-3.3081,-3.3081,-3.3081,-3.3081,-3.3081,-3.3081,-3.3081,-3.3081,-3.3081,-3.3081,-3.3081,-3.3081,-3.3081,-3.3081,-3.3081,-3.3081,-3.3081,-3.3081,-3.3081,-3.3081,-3.3081,-3.3081,-3.3081,-3.3081,-3.3081,-3.3081,-3.3081,-3.3081,-2.0566,-2.0566,-2.0566,-2.0566,-2.0566,-2.0566,-2.0566,-2.0566,-2.0566,-2.0566,-2.0566,-2.0605,-2.0762,-2.1035,-2.1465,-2.2187,-2.2422,-2.2656,-2.3076,-2.3135,-2.3135,-2.3135,-2.3135,-2.3135,-2.3135,-2.3135,-2.3135,-2.3135,-2.3135,-2.3135,-2.3135,-2.38,-2.4372,-2.4787,-2.588,-2.6883,-2.7533,-2.8291,-2.887,-2.9197,-2.9197,-2.9443,-2.9804,-3.0168,-3.0721,-3.1411,-3.1775,-3.2365,-3.3081,-3.3081,-3.3081,-3.3081,-3.3081,-3.3081,-3.3081,-3.3081,-3.3081,-3.3081,-3.3081,-3.3081,-3.3081,-3.3081,-3.3081,-3.3081,-3.3081,-3.3081,-3.3081,-3.3081,-3.3081,-3.3081,-3.3081,-3.3081,-3.3081,-3.3081,-3.3081,-3.3081,-3.3081,-3.3081,-3.3081,-3.3081,-3.3081,-3.3081,-3.3081,-3.3081,-3.3081,-3.3081,-3.3081,-3.3081,-3.3081,-3.3081,-3.3081,-3.3081,-3.3081,-3.3081,-3.3081,-3.3081,-3.3081,-3.3081,-3.3081,-3.3081,-3.3081,-3.3081,-3.3081,-3.3081,-3.3081,-3.3081,-3.3081,-3.3081,-3.3081,-3.3081,-3.3081,-3.3081,0.0,0.0,0.0,-2.0566,-2.0566,-2.0566,-2.0566,-2.0566,-2.0566,-2.0566,-2.0576,-2.0713,-2.1152,-2.125,-2.1396,-2.1836,-2.2246,-2.2656,-2.3076,-2.3135,-2.3135,-2.3135,-2.3135,-2.3135,-2.3135,-2.3135,-2.3135,-2.3135,-2.3135,-2.3135,-2.3135,-2.3135,-2.3637,-2.4702,-2.5891,-2.6472,-2.6472,-2.6472,-2.7046,-2.8016,-2.8016,-2.8688,-2.9792,-2.9792,-3.0369,-3.1386,-3.1386,-3.2026,-3.3081,-3.3081,-3.3081,-3.3081,-3.3081,-3.3081,-3.3081,-3.3081,-3.3081,-3.3081,-3.3081,-3.3081,-3.3081,-3.3081,-3.3081,-3.3081,-3.3081,-3.3081,-3.3081,-3.3081,-3.3081,-3.3081,-3.3081,-3.3081,-3.3081,-3.3081,-3.3081,-3.3081,-3.3081,-3.3081,-3.3081,-3.3081,-3.3081,-3.3081,-3.3081,-3.3081,-3.3081,-3.3081,-3.3081,-3.3081,-3.3081,-3.3081,-3.3081,-3.3081,-3.3081,-3.3081,-3.3081,-3.3081,-3.3081,-3.3081,-3.3081,-3.3081,-3.3081,-3.3081,-3.3081,-3.3081,-3.3081,-3.3081,-3.3081,-3.3081,-3.3081,-3.3081,-3.3081,-3.3081,-2.0566,0.0,0.0,0.0,0.0,0.0,-2.0566,-2.0566,-2.0566,-2.0566,-2.082,-2.1094,-2.1211,-2.1494,-2.1846,-2.2275,-2.2441,-2.2656,-2.3076,-2.3135,-2.3135,-2.3135,-2.3135,-2.3135,-2.3135,-2.3135,-2.3135,-2.3135,-2.3135,-2.3135,-2.3135,-2.3135,-2.3222,-2.3551,-2.4713,-2.5294,-2.5294,-2.6058,-2.6637,-2.6964,-2.6964,-2.7533,-2.8597,-2.8597,-2.9591,-3.1386,-3.1386,-3.2026,-3.3081,-3.3081,-3.3081,-3.3081,-3.3081,-3.3081,-3.3081,-3.3081,-3.3081,-3.3081,-3.3081,-3.3081,-3.3081,-3.3081,-3.3081,-3.3081,-3.3081,-3.3081,-3.3081,-3.3081,-3.3081,-3.3081,-3.3081,-3.3081,-3.3081,-3.3081,-3.3081,-3.3081,-3.3081,-3.3081,-3.3081,-3.3081,-3.3081,-3.3081,-3.3081,-3.3081,-3.3081,-3.3081,-3.3081,-3.3081,-3.3081,-3.3081,-3.3081,-3.3081,-3.3081,-3.3081,-3.3081,-3.3081,-3.3081,-3.3081,-3.3081,-3.3081,-3.3081,-3.3081,-3.3081,-3.3081,-3.3081,-3.3081,-3.3081,-3.3081,-3.3081,-3.3081,-3.3081,-3.3081,-2.0566,-2.0566,-2.0566,-2.0566,0.0,0.0,-2.0566,-2.0713,-2.084,-2.084,-2.1201,-2.1562,-2.1738,-2.1973,-2.2285,-2.2705,-2.2773,-2.2861,-2.3105,-2.3135,-2.3135,-2.3135,-2.3135,-2.3135,-2.3135,-2.3135,-2.3135,-2.3135,-2.3135,-2.3135,-2.3135,-2.3135,-2.3135,-2.3135,-2.3714,-2.4125,-2.4125,-2.4723,-2.5305,-2.5797,-2.5797,-2.6378,-2.7452,-2.758,-2.8527,-2.993,-3.0157,-3.0733,-3.1601,-3.1601,-3.2164,-3.3081,-3.3081,-3.3081,-3.3081,-3.3081,-3.3081,-3.3081,-3.3081,-3.3081,-3.3081,-3.3081,-3.3081,-3.3081,-3.3081,-3.3081,-3.3081,-3.3081,-3.3081,-3.3081,-3.3081,-3.3081,-3.3081,-3.3081,-3.3081,-3.3081,-3.3081,-3.2698,-3.2426,-3.2982,-3.3081,-3.3081,-3.3081,-3.3081,-3.3081,-3.3081,-3.3081,-3.3081,-3.3081,-3.3081,-3.3081,-3.3081,-3.3081,-3.3081,-3.3081,-3.3081,-3.3081,-3.3081,-3.3081,-3.3081,-3.3081,-3.3081,-3.3081,-3.3081,-3.3081,-3.3081,-3.3081,-3.3081,-3.3081,-3.3081,-3.3081,-3.3081,-2.0566,-2.0605,-2.0635,-2.0635,-2.0674,0.0,-2.0713,-2.1025,-2.1309,-2.1309,-2.165,-2.207,-2.2441,-2.2549,-2.2705,-2.3076,-2.3135,-2.3135,-2.3135,-2.3135,-2.3135,-2.3135,-2.3135,-2.3135,-2.3135,-2.3135,-2.3135,-2.3135,-2.3135,-2.3135,-2.3135,-2.3135,-2.3135,-2.3135,-2.3135,-2.3135,-2.3135,-2.3135,-2.3637,-2.4617,-2.4617,-2.521,-2.6329,-2.6723,-2.7286,-2.7951,-2.8366,-2.8857,-2.9407,-2.9407,-3.0687,-3.2711,-3.2797,-3.2884,-3.2896,-3.3081,-3.3081,-3.3081,-3.3081,-3.3081,-3.3081,-3.3081,-3.3081,-3.3081,-3.3081,-3.3081,-3.3081,-3.3081,-3.3081,-3.3081,-3.3081,-3.3081,-3.3081,-3.3081,-3.3081,-3.3081,-3.2884,-3.1965,-3.15,-3.2525,-3.2711,-3.2711,-3.2884,-3.2884,-3.2982,-3.3068,-3.3081,-3.3081,-3.3081,-3.3081,-3.3081,-3.3081,-3.3081,-3.3081,-3.3081,-3.3081,-3.3081,-3.3081,-3.3081,-3.3081,-3.3081,-3.3081,-3.3081,-3.3081,-3.3081,-3.3081,-3.3081,-3.3081,-3.3081,-3.3081,-3.3081,-3.3081,-2.0566,-2.083,-2.1103,-2.1103,-2.1367,0.0,-2.1631,-2.1699,-2.1758,-2.1758,-2.209,-2.2412,-2.25,-2.2793,-2.3047,-2.3125,-2.3135,-2.3135,-2.3135,-2.3135,-2.3135,-2.3135,-2.3135,-2.3135,-2.3135,-2.3135,-2.3135,-2.3135,-2.3135,-2.3135,-2.3135,-2.3135,-2.3135,-2.3135,-2.3135,-2.3135,-2.3135,-2.3135,-2.3222,-2.3474,-2.3474,-2.4049,-2.5147,-2.5539,-2.652,-2.7951,-2.8366,-2.8857,-2.9407,-2.9407,-2.9681,-3.0226,-3.1223,-3.1589,-3.1677,-3.2698,-3.3081,-3.3081,-3.3081,-3.3081,-3.3081,-3.3081,-3.3081,-3.3081,-3.3081,-3.3081,-3.3081,-3.3081,-3.3081,-3.3081,-3.3081,-3.3081,-3.3081,-3.3081,-3.3081,-3.2797,-3.1777,-3.14,-3.0956,-3.0226,-3.0135,-3.0406,-3.1412,-3.1589,-3.1965,-3.2982,-3.3081,-3.3081,-3.3081,-3.3081,-3.3081,-3.3081,-3.3081,-3.3081,-3.3081,-3.3081,-3.3081,-3.3081,-3.3081,-3.3081,-3.3081,-3.3081,-3.3081,-3.3081,-3.3081,-3.3081,-3.3081,-3.3081,-3.3081,-3.3081,-3.3081,-3.3081,-2.1162,-2.1387,-2.1562,-2.1562,-2.1728,0.0,0.0,-2.2051,-2.2197,-2.2197,-2.2539,-2.2822,-2.2822,-2.2998,-2.3135,-2.3135,-2.3135,-2.3135,-2.3135,-2.3135,-2.2862,-2.2306,-2.2217,-2.1943,-2.14,-2.1311,-2.1311,-2.1311,-2.1311,-2.1587,-2.2129,-2.2217,-2.2492,-2.3047,-2.3135,-2.3135,-2.3135,-2.3135,-2.3135,-2.3135,-2.3135,-2.3387,-2.3983,-2.4573,-2.5347,-2.6214,-2.6825,-2.7275,-2.7579,-2.7579,-2.7579,-2.7757,-2.9579,-3.0676,-3.1311,-3.1965,-3.2513,-3.3081,-3.3081,-3.3081,-3.3081,-3.3081,-3.2698,-3.2152,-3.2152,-3.1689,-3.1235,-3.1235,-3.1689,-3.2152,-3.2152,-3.2612,-3.3081,-3.3081,-3.2612,-3.1965,-3.1311,-3.0214,-2.9223,-2.8588,-2.7945,-2.8121,-2.9943,-3.0765,-3.14,-3.2052,-3.2698,-3.3081,-3.3081,-3.3081,-3.3081,-3.3081,-3.3081,-3.3081,-3.3081,-3.3081,-3.3081,-3.3081,-3.3081,-3.3081,-3.3081,-3.3081,-3.3081,-3.3081,-3.3081,-3.3081,-3.3081,-3.3081,-3.3081,-3.3081,-3.3081,-3.3081,-2.1787,-2.1943,-2.2012,-2.2012,-2.207,-2.2129,0.0,0.0,0.0,-2.2637,-2.29,-2.3135,-2.3135,-2.3135,-2.3135,-2.3135,-2.3135,-2.3135,-2.3135,-2.3135,-2.2765,-2.1756,-2.148,-2.0935,-1.9943,-1.9852,-1.9761,-1.9497,-1.9761,-2.0215,-2.0935,-2.1203,-2.1756,-2.2677,-2.296,-2.3135,-2.3135,-2.3135,-2.3135,-2.3135,-2.3135,-2.3135,-2.3164,-2.4023,-2.4414,-2.4473,-2.5352,-2.5742,-2.5742,-2.5742,-2.5742,-2.5917,-2.8226,-2.9681,-3.0496,-3.0765,-3.1689,-3.2698,-3.2698,-3.2884,-3.3081,-3.3081,-3.2239,-3.1134,-3.0944,-3.0124,-2.9407,-2.9407,-3.0124,-3.0855,-3.0855,-3.1777,-3.2698,-3.2426,-3.1965,-3.1412,-3.0676,-2.9131,-2.7767,-2.7315,-2.638,-2.638,-2.868,-2.9863,-3.0586,-3.0855,-3.1965,-3.2698,-3.2698,-3.2982,-3.3081,-3.3081,-3.3081,-3.3081,-3.3081,-3.3081,-3.3081,-3.3081,-3.3081,-3.3081,-3.3081,-3.3081,-3.3081,-3.3081,-3.3081,-3.3081,-3.3081,-3.3081,-3.3081,-3.3081,-3.3081,-3.3081,-2.1875,-2.2158,-2.2441,-2.2441,-2.2725,-2.2998,-2.2998,0.0,-2.3066,-2.3066,0.0,-2.3135,-2.3135,0.0,0.0,-2.3135,-2.3135,-2.3135,-2.3135,-2.3135,-2.3047,-2.295,-2.1943,-2.1203,-2.1114,-2.1114,-2.0657,-1.9579,-2.0477,-2.0666,-1.9761,-2.0755,-2.1382,-2.148,-2.258,-2.3135,-2.3135,-2.3135,-2.3135,-2.3135,-2.3135,-2.3135,-2.3164,-2.4023,-2.4414,-2.4473,-2.5352,-2.5742,-2.5742,-2.5742,-2.5742,-2.583,-2.721,-2.7861,-2.8132,-2.9223,-3.0406,-3.14,-3.14,-3.2152,-3.3081,-3.3081,-3.2239,-3.1033,-2.9954,-2.9498,-2.9407,-2.9407,-2.9498,-2.959,-2.959,-3.0496,-3.1134,-3.0045,-3.1424,-3.1977,-2.868,-2.8588,-2.8588,-2.638,-2.583,-2.61,-2.7589,-2.7955,-2.8402,-2.9407,-3.0676,-3.14,-3.14,-3.2426,-3.3081,-3.3081,-3.3081,-3.3081,-3.3081,-3.3081,-3.3081,-3.3081,-3.3081,-3.3081,-3.3081,-3.3081,-3.3081,-3.3081,-3.3081,-3.3081,-3.3081,-3.3081,-3.3081,-3.3081,-3.3081,-3.3081,-2.2549,-2.2744,-2.2881,-2.2881,-2.3008,-2.3135,-2.3135,-2.3135,-2.3135,-2.3135,0.0,0.0,0.0,0.0,0.0,0.0,-2.3135,-2.3135,-2.3135,-2.3135,-2.2862,-2.2129,-2.1569,-2.0755,-1.9314,-1.9222,-1.8672,-1.7483,-1.8488,-1.8956,-1.8503,-1.8956,-1.9852,-2.1293,-2.1756,-2.2394,-2.3047,-2.3135,-2.3135,-2.3135,-2.3135,-2.3135,-2.3164,-2.3769,-2.4189,-2.4453,-2.5078,-2.5498,-2.5742,-2.5742,-2.5742,-2.5732,-2.6294,-2.6945,-2.7683,-2.8132,-2.959,-3.1223,-3.1223,-3.1589,-3.1777,-3.0328,-2.951,-2.8855,-2.7662,-2.721,-2.721,-2.721,-2.7757,-2.8319,-2.8319,-2.9223,-3.0045,-2.9498,-2.9681,-2.951,-2.7955,-2.74,-2.6935,-2.5917,-2.5742,-2.583,-2.639,-2.7125,-2.7778,-2.8319,-2.9407,-3.0135,-3.0135,-3.1223,-3.1965,-3.1965,-3.2698,-3.3081,-3.3081,-3.3081,-3.3081,-3.3081,-3.3081,-3.3081,-3.3081,-3.3081,-3.3081,-3.3081,-3.3081,-3.3081,-3.3081,-3.3081,-3.3081,-3.3081,-3.3081,-3.3081,-2.3057,-2.3135,-2.3135,-2.3135,-2.3135,-2.3135,-2.3135,-2.3135,-2.3135,-2.3135,-2.3135,0.0,0.0,0.0,-2.3135,-2.3135,0.0,-2.3135,-2.3135,-2.3135,-2.2765,-2.1933,-2.148,-2.0395,-1.7956,-1.7956,-1.749,-1.592,-1.6943,-1.7598,-1.7225,-1.7505,-1.8503,-2.0305,-2.0657,-2.1212,-2.2129,-2.2403,-2.2589,-2.2589,-2.295,-2.3135,-2.3154,-2.3594,-2.4014,-2.4443,-2.4883,-2.5322,-2.5742,-2.5742,-2.5742,-2.5742,-2.5742,-2.6294,-2.703,-2.703,-2.8402,-3.0214,-3.0214,-3.0406,-3.0395,-2.8319,-2.7589,-2.74,-2.611,-2.5742,-2.5742,-2.5742,-2.639,-2.703,-2.703,-2.7945,-2.8866,-2.8495,-2.8226,-2.7955,-2.722,-2.6668,-2.611,-2.5732,-2.5742,-2.5742,-2.5742,-2.6486,-2.703,-2.703,-2.8132,-2.9039,-2.9315,-3.0496,-3.1311,-3.1677,-3.2525,-3.3081,-3.3081,-3.3081,-3.3081,-3.3081,-3.3081,-3.3081,-3.3081,-3.3081,-3.3081,-3.3081,-3.3081,-3.3081,-3.3081,-3.3081,-3.3081,-3.3081,-3.3081,-3.3081,-2.3135,-2.3135,-2.3135,-2.3135,-2.3135,-2.3135,-2.3135,-2.3135,-2.3135,-2.3135,-2.3135,-2.3135,-2.3135,-2.3135,-2.3135,-2.3135,-2.3135,0.0,0.0,-2.3135,-2.3057,-2.3047,-2.2031,-2.0395,-1.7956,-1.8772,-1.8395,-1.6015,-1.6943,-1.7131,-1.592,-1.7037,-1.7777,-1.7777,-1.8956,-1.9579,-1.9588,-2.0755,-2.1382,-2.1382,-2.258,-2.3135,-2.3154,-2.3594,-2.4014,-2.4443,-2.4883,-2.5322,-2.5742,-2.5742,-2.5742,-2.5742,-2.5742,-2.5732,-2.5732,-2.5732,-2.6572,-2.7683,-2.7683,-2.8495,-2.9223,-2.8049,-2.7589,-2.74,-2.611,-2.5742,-2.5742,-2.5742,-2.5732,-2.5732,-2.5732,-2.6658,-2.7315,-2.611,-2.7662,-2.8669,-2.6284,-2.6668,-2.7125,-2.5927,-2.5742,-2.5742,-2.5742,-2.5732,-2.5732,-2.5732,-2.6849,-2.8038,-2.9223,-3.0496,-3.1677,-3.2896,-3.3081,-3.3081,-3.3081,-3.3081,-3.3081,-3.3081,-3.3081,-3.3081,-3.3081,-3.3081,-3.3081,-3.3081,-3.3081,-3.3081,-3.3081,-3.3081,-3.3081,-3.3081,-3.3081,-3.3081,-2.3135,-2.3135,-2.3135,-2.3135,-2.3135,-2.3135,-2.3135,-2.3135,-2.3135,-2.3135,-2.3135,-2.3135,-2.3135,-2.3135,-2.3135,-2.3135,-2.3135,-2.3135,0.0,-2.3135,-2.2775,-2.2031,-2.0845,-1.9761,-1.8948,-1.8503,-1.7584,-1.592,-1.6943,-1.7131,-1.5825,-1.6204,-1.6857,-1.7692,-1.8141,-1.868,-1.9488,-1.9943,-2.0486,-2.1293,-2.1756,-2.2306,-2.3144,-2.3291,-2.3594,-2.4023,-2.4453,-2.4883,-2.5322,-2.5615,-2.5742,-2.5742,-2.5742,-2.5742,-2.5742,-2.5742,-2.6476,-2.7589,-2.7589,-2.7861,-2.8038,-2.6754,-2.639,-2.6294,-2.583,-2.5742,-2.5742,-2.5742,-2.5742,-2.5742,-2.5742,-2.6014,-2.6197,-2.583,-2.638,-2.6744,-2.5917,-2.6014,-2.6197,-2.5732,-2.5742,-2.5742,-2.5742,-2.5742,-2.5742,-2.5742,-2.611,-2.6476,-2.6935,-2.8038,-2.9315,-3.0508,-3.1412,-3.2152,-3.3068,-3.3081,-3.3081,-3.3081,-3.3081,-3.3081,-3.3081,-3.3081,-3.3081,-3.3081,-3.3081,-3.3081,-3.3081,-3.3081,-3.3081,-3.3081,-3.3081,-3.3081,-2.3135,-2.3135,-2.3135,-2.3135,-2.3135,-2.3135,-2.3135,-2.3135,-2.3135,-2.3135,-2.3135,-2.296,-2.258,-2.2775,-2.296,-2.2492,-2.2862,-2.3135,0.0,-2.3135,-2.2677,-2.148,-2.0567,-1.9761,-1.8956,-1.8141,-1.7131,-1.592,-1.6574,-1.6669,-1.5825,-1.5832,-1.6204,-1.7037,-1.7037,-1.7404,-1.8211,-1.8588,-1.9222,-2.0034,-2.0486,-2.1302,-2.2492,-2.2492,-2.2907,-2.3809,-2.4072,-2.4531,-2.5088,-2.5381,-2.5596,-2.5742,-2.5742,-2.5742,-2.5742,-2.5742,-2.6197,-2.6945,-2.6945,-2.6945,-2.6754,-2.6014,-2.5742,-2.5742,-2.5742,-2.5742,-2.5742,-2.5742,-2.5742,-2.5742,-2.5742,-2.5742,-2.5742,-2.5742,-2.5742,-2.5742,-2.5742,-2.5742,-2.5742,-2.5742,-2.5742,-2.5742,-2.5742,-2.5742,-2.5742,-2.5742,-2.5742,-2.583,-2.6294,-2.7125,-2.8049,-2.9315,-3.0496,-3.1689,-3.2982,-3.3081,-3.3081,-3.3081,-3.3081,-3.3081,-3.3081,-3.3081,-3.3081,-3.3081,-3.3081,-3.3081,-3.3081,-3.3081,-3.3081,-3.3081,-3.3081,-3.3081]}]]